<?xml version="1.0" encoding="UTF-8" standalone="no" ?>
<gpx xmlns="http://www.topografix.com/GPX/1/1" xmlns:xsi="http://www.w3.org/2001/XMLSchema-instance" xsi:schemaLocation="http://www.topografix.com/GPX/1/1 http://www.topografix.com/GPX/1/1/gpx.xsd" version="1.1" creator="VisuGPX - https://www.visugpx.com">
  <metadata>
    <name>La Cadière d'azur, Ceyreste, Grand Caunet</name>
    <desc><![CDATA[Au départ de la Cadière d%u2019Azur, on descend en direction de Saint Cyr sur Mer par des chemins de traverse et l%u2019on continue ainsi jusqu%u2019à l%u2019entrée ouest de La Ciotat. Vous passez ensuite à proximité de la gare ferroviaire (la fameuse gare immortalisée par les frères Lumière en 1895) puis rejoignez le charmant village de Ceyreste. Une fois la visite effectuée, direction le Grand Caunet en passant par la voie romaine, pour atteindre le point culminant de la sortie à 444 mètres d%u2019altitude avant de redescendre sur Ste Anne du Castellet et de finir la sortie sur des petites routes serpentant au milieu des bois et des vignes. Réalisé en vélo électrique Var Ouest E-Bike]]></desc>
  </metadata>
  <trk>
    <name><![CDATA[Ceyreste Grand Caunet]]></name>
    <trkseg>
      <trkpt lat="43.19596" lon="5.75725">
        <ele>140.60000610352</ele>
        <time>2016-05-05T12:45:07.000Z</time>
      </trkpt>
      <trkpt lat="43.19598" lon="5.75725">
        <ele>140.80000305176</ele>
        <time>2016-05-05T12:45:30.000Z</time>
      </trkpt>
      <trkpt lat="43.19596" lon="5.75726">
        <ele>140.60000610352</ele>
        <time>2016-05-05T12:45:31.000Z</time>
      </trkpt>
      <trkpt lat="43.19593" lon="5.75727">
        <ele>140.19999694824</ele>
        <time>2016-05-05T12:45:32.000Z</time>
      </trkpt>
      <trkpt lat="43.19585" lon="5.7573">
        <ele>138.19999694824</ele>
        <time>2016-05-05T12:45:36.000Z</time>
      </trkpt>
      <trkpt lat="43.1958" lon="5.75733">
        <ele>137</ele>
        <time>2016-05-05T12:45:40.000Z</time>
      </trkpt>
      <trkpt lat="43.19573" lon="5.75735">
        <ele>135.39999389648</ele>
        <time>2016-05-05T12:45:49.000Z</time>
      </trkpt>
      <trkpt lat="43.19567" lon="5.75742">
        <ele>133.80000305176</ele>
        <time>2016-05-05T12:46:03.000Z</time>
      </trkpt>
      <trkpt lat="43.19556" lon="5.75756">
        <ele>130.19999694824</ele>
        <time>2016-05-05T12:46:08.000Z</time>
      </trkpt>
      <trkpt lat="43.19537" lon="5.75776">
        <ele>127</ele>
        <time>2016-05-05T12:46:13.000Z</time>
      </trkpt>
      <trkpt lat="43.19533" lon="5.75778">
        <ele>126.59999847412</ele>
        <time>2016-05-05T12:46:14.000Z</time>
      </trkpt>
      <trkpt lat="43.19529" lon="5.75781">
        <ele>126.19999694824</ele>
        <time>2016-05-05T12:46:15.000Z</time>
      </trkpt>
      <trkpt lat="43.19527" lon="5.75788">
        <ele>125.80000305176</ele>
        <time>2016-05-05T12:46:17.000Z</time>
      </trkpt>
      <trkpt lat="43.19528" lon="5.75797">
        <ele>125.80000305176</ele>
        <time>2016-05-05T12:46:19.000Z</time>
      </trkpt>
      <trkpt lat="43.1953" lon="5.75808">
        <ele>125.80000305176</ele>
        <time>2016-05-05T12:46:21.000Z</time>
      </trkpt>
      <trkpt lat="43.19531" lon="5.7582">
        <ele>125.19999694824</ele>
        <time>2016-05-05T12:46:23.000Z</time>
      </trkpt>
      <trkpt lat="43.1953" lon="5.75826">
        <ele>124.80000305176</ele>
        <time>2016-05-05T12:46:24.000Z</time>
      </trkpt>
      <trkpt lat="43.19527" lon="5.75837">
        <ele>123.59999847412</ele>
        <time>2016-05-05T12:46:26.000Z</time>
      </trkpt>
      <trkpt lat="43.19524" lon="5.75843">
        <ele>123</ele>
        <time>2016-05-05T12:46:27.000Z</time>
      </trkpt>
      <trkpt lat="43.19521" lon="5.75849">
        <ele>122.40000152588</ele>
        <time>2016-05-05T12:46:28.000Z</time>
      </trkpt>
      <trkpt lat="43.19509" lon="5.75873">
        <ele>119.40000152588</ele>
        <time>2016-05-05T12:46:31.000Z</time>
      </trkpt>
      <trkpt lat="43.195" lon="5.7589">
        <ele>116.80000305176</ele>
        <time>2016-05-05T12:46:33.000Z</time>
      </trkpt>
      <trkpt lat="43.19495" lon="5.75898">
        <ele>116</ele>
        <time>2016-05-05T12:46:34.000Z</time>
      </trkpt>
      <trkpt lat="43.19491" lon="5.75904">
        <ele>115</ele>
        <time>2016-05-05T12:46:35.000Z</time>
      </trkpt>
      <trkpt lat="43.19486" lon="5.75909">
        <ele>114.19999694824</ele>
        <time>2016-05-05T12:46:36.000Z</time>
      </trkpt>
      <trkpt lat="43.19482" lon="5.7591">
        <ele>113.40000152588</ele>
        <time>2016-05-05T12:46:37.000Z</time>
      </trkpt>
      <trkpt lat="43.19477" lon="5.75907">
        <ele>112.59999847412</ele>
        <time>2016-05-05T12:46:38.000Z</time>
      </trkpt>
      <trkpt lat="43.19471" lon="5.75902">
        <ele>111.40000152588</ele>
        <time>2016-05-05T12:46:39.000Z</time>
      </trkpt>
      <trkpt lat="43.19465" lon="5.75895">
        <ele>110.59999847412</ele>
        <time>2016-05-05T12:46:40.000Z</time>
      </trkpt>
      <trkpt lat="43.1946" lon="5.75887">
        <ele>109.80000305176</ele>
        <time>2016-05-05T12:46:41.000Z</time>
      </trkpt>
      <trkpt lat="43.19457" lon="5.75878">
        <ele>110</ele>
        <time>2016-05-05T12:46:42.000Z</time>
      </trkpt>
      <trkpt lat="43.19455" lon="5.75859">
        <ele>111.19999694824</ele>
        <time>2016-05-05T12:46:44.000Z</time>
      </trkpt>
      <trkpt lat="43.19454" lon="5.75851">
        <ele>111.80000305176</ele>
        <time>2016-05-05T12:46:45.000Z</time>
      </trkpt>
      <trkpt lat="43.19453" lon="5.75835">
        <ele>113</ele>
        <time>2016-05-05T12:46:47.000Z</time>
      </trkpt>
      <trkpt lat="43.19453" lon="5.75821">
        <ele>113.80000305176</ele>
        <time>2016-05-05T12:46:49.000Z</time>
      </trkpt>
      <trkpt lat="43.19453" lon="5.75801">
        <ele>115</ele>
        <time>2016-05-05T12:46:52.000Z</time>
      </trkpt>
      <trkpt lat="43.19457" lon="5.75784">
        <ele>115.80000305176</ele>
        <time>2016-05-05T12:46:55.000Z</time>
      </trkpt>
      <trkpt lat="43.19461" lon="5.75773">
        <ele>116.59999847412</ele>
        <time>2016-05-05T12:46:57.000Z</time>
      </trkpt>
      <trkpt lat="43.1947" lon="5.75751">
        <ele>118.19999694824</ele>
        <time>2016-05-05T12:47:01.000Z</time>
      </trkpt>
      <trkpt lat="43.19475" lon="5.7574">
        <ele>119</ele>
        <time>2016-05-05T12:47:03.000Z</time>
      </trkpt>
      <trkpt lat="43.19479" lon="5.75729">
        <ele>119.80000305176</ele>
        <time>2016-05-05T12:47:05.000Z</time>
      </trkpt>
      <trkpt lat="43.1948" lon="5.75723">
        <ele>120.19999694824</ele>
        <time>2016-05-05T12:47:06.000Z</time>
      </trkpt>
      <trkpt lat="43.19482" lon="5.75711">
        <ele>120.59999847412</ele>
        <time>2016-05-05T12:47:08.000Z</time>
      </trkpt>
      <trkpt lat="43.1948" lon="5.75692">
        <ele>121.19999694824</ele>
        <time>2016-05-05T12:47:11.000Z</time>
      </trkpt>
      <trkpt lat="43.19477" lon="5.75674">
        <ele>121.19999694824</ele>
        <time>2016-05-05T12:47:14.000Z</time>
      </trkpt>
      <trkpt lat="43.19476" lon="5.75667">
        <ele>121.19999694824</ele>
        <time>2016-05-05T12:47:15.000Z</time>
      </trkpt>
      <trkpt lat="43.19471" lon="5.75642">
        <ele>121</ele>
        <time>2016-05-05T12:47:19.000Z</time>
      </trkpt>
      <trkpt lat="43.19471" lon="5.75635">
        <ele>121.19999694824</ele>
        <time>2016-05-05T12:47:20.000Z</time>
      </trkpt>
      <trkpt lat="43.19472" lon="5.75622">
        <ele>121.80000305176</ele>
        <time>2016-05-05T12:47:22.000Z</time>
      </trkpt>
      <trkpt lat="43.19474" lon="5.75616">
        <ele>122</ele>
        <time>2016-05-05T12:47:23.000Z</time>
      </trkpt>
      <trkpt lat="43.19481" lon="5.75593">
        <ele>123.59999847412</ele>
        <time>2016-05-05T12:47:27.000Z</time>
      </trkpt>
      <trkpt lat="43.19486" lon="5.75582">
        <ele>124.59999847412</ele>
        <time>2016-05-05T12:47:29.000Z</time>
      </trkpt>
      <trkpt lat="43.19494" lon="5.75567">
        <ele>126.19999694824</ele>
        <time>2016-05-05T12:47:32.000Z</time>
      </trkpt>
      <trkpt lat="43.19502" lon="5.7555">
        <ele>127.80000305176</ele>
        <time>2016-05-05T12:47:35.000Z</time>
      </trkpt>
      <trkpt lat="43.19505" lon="5.75545">
        <ele>128.19999694824</ele>
        <time>2016-05-05T12:47:36.000Z</time>
      </trkpt>
      <trkpt lat="43.19512" lon="5.75522">
        <ele>129.60000610352</ele>
        <time>2016-05-05T12:47:40.000Z</time>
      </trkpt>
      <trkpt lat="43.19514" lon="5.75516">
        <ele>130</ele>
        <time>2016-05-05T12:47:41.000Z</time>
      </trkpt>
      <trkpt lat="43.1952" lon="5.75484">
        <ele>131.60000610352</ele>
        <time>2016-05-05T12:47:46.000Z</time>
      </trkpt>
      <trkpt lat="43.19521" lon="5.75477">
        <ele>131.80000305176</ele>
        <time>2016-05-05T12:47:47.000Z</time>
      </trkpt>
      <trkpt lat="43.19522" lon="5.75464">
        <ele>132.39999389648</ele>
        <time>2016-05-05T12:47:49.000Z</time>
      </trkpt>
      <trkpt lat="43.19524" lon="5.75444">
        <ele>133.60000610352</ele>
        <time>2016-05-05T12:47:52.000Z</time>
      </trkpt>
      <trkpt lat="43.19528" lon="5.75411">
        <ele>136</ele>
        <time>2016-05-05T12:47:57.000Z</time>
      </trkpt>
      <trkpt lat="43.19528" lon="5.75405">
        <ele>136.39999389648</ele>
        <time>2016-05-05T12:47:58.000Z</time>
      </trkpt>
      <trkpt lat="43.1953" lon="5.75378">
        <ele>137.60000610352</ele>
        <time>2016-05-05T12:48:02.000Z</time>
      </trkpt>
      <trkpt lat="43.19532" lon="5.75365">
        <ele>137.60000610352</ele>
        <time>2016-05-05T12:48:04.000Z</time>
      </trkpt>
      <trkpt lat="43.19534" lon="5.75352">
        <ele>138</ele>
        <time>2016-05-05T12:48:06.000Z</time>
      </trkpt>
      <trkpt lat="43.19535" lon="5.75346">
        <ele>138</ele>
        <time>2016-05-05T12:48:07.000Z</time>
      </trkpt>
      <trkpt lat="43.19536" lon="5.75311">
        <ele>138.19999694824</ele>
        <time>2016-05-05T12:48:12.000Z</time>
      </trkpt>
      <trkpt lat="43.19536" lon="5.75298">
        <ele>138.39999389648</ele>
        <time>2016-05-05T12:48:14.000Z</time>
      </trkpt>
      <trkpt lat="43.19541" lon="5.75253">
        <ele>138.39999389648</ele>
        <time>2016-05-05T12:48:21.000Z</time>
      </trkpt>
      <trkpt lat="43.19541" lon="5.75247">
        <ele>138.60000610352</ele>
        <time>2016-05-05T12:48:22.000Z</time>
      </trkpt>
      <trkpt lat="43.19542" lon="5.75227">
        <ele>139</ele>
        <time>2016-05-05T12:48:25.000Z</time>
      </trkpt>
      <trkpt lat="43.19545" lon="5.75216">
        <ele>139.80000305176</ele>
        <time>2016-05-05T12:48:27.000Z</time>
      </trkpt>
      <trkpt lat="43.19551" lon="5.75196">
        <ele>141.60000610352</ele>
        <time>2016-05-05T12:48:31.000Z</time>
      </trkpt>
      <trkpt lat="43.19553" lon="5.75195">
        <ele>142.39999389648</ele>
        <time>2016-05-05T12:48:32.000Z</time>
      </trkpt>
      <trkpt lat="43.19561" lon="5.75201">
        <ele>144.19999694824</ele>
        <time>2016-05-05T12:48:34.000Z</time>
      </trkpt>
      <trkpt lat="43.19568" lon="5.75226">
        <ele>145.80000305176</ele>
        <time>2016-05-05T12:48:38.000Z</time>
      </trkpt>
      <trkpt lat="43.19569" lon="5.75239">
        <ele>146</ele>
        <time>2016-05-05T12:48:40.000Z</time>
      </trkpt>
      <trkpt lat="43.19569" lon="5.75246">
        <ele>146</ele>
        <time>2016-05-05T12:48:41.000Z</time>
      </trkpt>
      <trkpt lat="43.1957" lon="5.75253">
        <ele>146</ele>
        <time>2016-05-05T12:48:42.000Z</time>
      </trkpt>
      <trkpt lat="43.1957" lon="5.75273">
        <ele>145.80000305176</ele>
        <time>2016-05-05T12:48:45.000Z</time>
      </trkpt>
      <trkpt lat="43.1957" lon="5.7528">
        <ele>145.80000305176</ele>
        <time>2016-05-05T12:48:46.000Z</time>
      </trkpt>
      <trkpt lat="43.19572" lon="5.75311">
        <ele>146.60000610352</ele>
        <time>2016-05-05T12:48:51.000Z</time>
      </trkpt>
      <trkpt lat="43.19574" lon="5.75338">
        <ele>146.60000610352</ele>
        <time>2016-05-05T12:48:55.000Z</time>
      </trkpt>
      <trkpt lat="43.19577" lon="5.75351">
        <ele>146.80000305176</ele>
        <time>2016-05-05T12:48:57.000Z</time>
      </trkpt>
      <trkpt lat="43.19579" lon="5.75356">
        <ele>147</ele>
        <time>2016-05-05T12:48:58.000Z</time>
      </trkpt>
      <trkpt lat="43.19584" lon="5.75367">
        <ele>148</ele>
        <time>2016-05-05T12:49:00.000Z</time>
      </trkpt>
      <trkpt lat="43.19594" lon="5.75379">
        <ele>150</ele>
        <time>2016-05-05T12:49:03.000Z</time>
      </trkpt>
      <trkpt lat="43.19599" lon="5.75385">
        <ele>151</ele>
        <time>2016-05-05T12:49:05.000Z</time>
      </trkpt>
      <trkpt lat="43.19608" lon="5.75394">
        <ele>153</ele>
        <time>2016-05-05T12:49:08.000Z</time>
      </trkpt>
      <trkpt lat="43.19612" lon="5.75397">
        <ele>153.80000305176</ele>
        <time>2016-05-05T12:49:09.000Z</time>
      </trkpt>
      <trkpt lat="43.19618" lon="5.75403">
        <ele>155.19999694824</ele>
        <time>2016-05-05T12:49:11.000Z</time>
      </trkpt>
      <trkpt lat="43.19625" lon="5.75413">
        <ele>156.80000305176</ele>
        <time>2016-05-05T12:49:14.000Z</time>
      </trkpt>
      <trkpt lat="43.19629" lon="5.75424">
        <ele>157.60000610352</ele>
        <time>2016-05-05T12:49:16.000Z</time>
      </trkpt>
      <trkpt lat="43.19629" lon="5.75447">
        <ele>156.60000610352</ele>
        <time>2016-05-05T12:49:20.000Z</time>
      </trkpt>
      <trkpt lat="43.19627" lon="5.75453">
        <ele>155.80000305176</ele>
        <time>2016-05-05T12:49:21.000Z</time>
      </trkpt>
      <trkpt lat="43.19615" lon="5.75489">
        <ele>151</ele>
        <time>2016-05-05T12:49:26.000Z</time>
      </trkpt>
      <trkpt lat="43.19598" lon="5.75541">
        <ele>147.60000610352</ele>
        <time>2016-05-05T12:49:33.000Z</time>
      </trkpt>
      <trkpt lat="43.19603" lon="5.75573">
        <ele>148</ele>
        <time>2016-05-05T12:49:37.000Z</time>
      </trkpt>
      <trkpt lat="43.19607" lon="5.75586">
        <ele>148.39999389648</ele>
        <time>2016-05-05T12:49:39.000Z</time>
      </trkpt>
      <trkpt lat="43.19613" lon="5.75602">
        <ele>149.19999694824</ele>
        <time>2016-05-05T12:49:42.000Z</time>
      </trkpt>
      <trkpt lat="43.19621" lon="5.75629">
        <ele>150.19999694824</ele>
        <time>2016-05-05T12:49:49.000Z</time>
      </trkpt>
      <trkpt lat="43.19623" lon="5.75643">
        <ele>149.80000305176</ele>
        <time>2016-05-05T12:49:55.000Z</time>
      </trkpt>
      <trkpt lat="43.19626" lon="5.75661">
        <ele>148.39999389648</ele>
        <time>2016-05-05T12:50:14.000Z</time>
      </trkpt>
      <trkpt lat="43.19629" lon="5.75672">
        <ele>147.60000610352</ele>
        <time>2016-05-05T12:50:17.000Z</time>
      </trkpt>
      <trkpt lat="43.19637" lon="5.75697">
        <ele>147</ele>
        <time>2016-05-05T12:50:24.000Z</time>
      </trkpt>
      <trkpt lat="43.19641" lon="5.7571">
        <ele>146.60000610352</ele>
        <time>2016-05-05T12:50:27.000Z</time>
      </trkpt>
      <trkpt lat="43.19647" lon="5.75714">
        <ele>147</ele>
        <time>2016-05-05T12:50:29.000Z</time>
      </trkpt>
      <trkpt lat="43.19653" lon="5.75716">
        <ele>147.60000610352</ele>
        <time>2016-05-05T12:50:31.000Z</time>
      </trkpt>
      <trkpt lat="43.1967" lon="5.7572">
        <ele>149.19999694824</ele>
        <time>2016-05-05T12:50:35.000Z</time>
      </trkpt>
      <trkpt lat="43.19685" lon="5.7571">
        <ele>149.39999389648</ele>
        <time>2016-05-05T12:50:39.000Z</time>
      </trkpt>
      <trkpt lat="43.19692" lon="5.75701">
        <ele>148.39999389648</ele>
        <time>2016-05-05T12:50:41.000Z</time>
      </trkpt>
      <trkpt lat="43.19697" lon="5.75692">
        <ele>147.80000305176</ele>
        <time>2016-05-05T12:50:43.000Z</time>
      </trkpt>
      <trkpt lat="43.197" lon="5.75686">
        <ele>147.80000305176</ele>
        <time>2016-05-05T12:50:44.000Z</time>
      </trkpt>
      <trkpt lat="43.19706" lon="5.75668">
        <ele>148</ele>
        <time>2016-05-05T12:50:46.000Z</time>
      </trkpt>
      <trkpt lat="43.1971" lon="5.75658">
        <ele>147.60000610352</ele>
        <time>2016-05-05T12:50:47.000Z</time>
      </trkpt>
      <trkpt lat="43.19714" lon="5.75646">
        <ele>146.80000305176</ele>
        <time>2016-05-05T12:50:48.000Z</time>
      </trkpt>
      <trkpt lat="43.19723" lon="5.75622">
        <ele>146</ele>
        <time>2016-05-05T12:50:50.000Z</time>
      </trkpt>
      <trkpt lat="43.19731" lon="5.75599">
        <ele>145.39999389648</ele>
        <time>2016-05-05T12:50:52.000Z</time>
      </trkpt>
      <trkpt lat="43.19738" lon="5.75578">
        <ele>145.80000305176</ele>
        <time>2016-05-05T12:50:54.000Z</time>
      </trkpt>
      <trkpt lat="43.19745" lon="5.75559">
        <ele>146.19999694824</ele>
        <time>2016-05-05T12:50:56.000Z</time>
      </trkpt>
      <trkpt lat="43.1975" lon="5.75549">
        <ele>145.60000610352</ele>
        <time>2016-05-05T12:50:57.000Z</time>
      </trkpt>
      <trkpt lat="43.19758" lon="5.7553">
        <ele>146.19999694824</ele>
        <time>2016-05-05T12:50:59.000Z</time>
      </trkpt>
      <trkpt lat="43.19775" lon="5.75491">
        <ele>145.80000305176</ele>
        <time>2016-05-05T12:51:03.000Z</time>
      </trkpt>
      <trkpt lat="43.19783" lon="5.75472">
        <ele>144.19999694824</ele>
        <time>2016-05-05T12:51:05.000Z</time>
      </trkpt>
      <trkpt lat="43.19791" lon="5.75453">
        <ele>143</ele>
        <time>2016-05-05T12:51:07.000Z</time>
      </trkpt>
      <trkpt lat="43.19798" lon="5.75434">
        <ele>142.39999389648</ele>
        <time>2016-05-05T12:51:09.000Z</time>
      </trkpt>
      <trkpt lat="43.19799" lon="5.75417">
        <ele>144</ele>
        <time>2016-05-05T12:51:11.000Z</time>
      </trkpt>
      <trkpt lat="43.19799" lon="5.75409">
        <ele>145.19999694824</ele>
        <time>2016-05-05T12:51:12.000Z</time>
      </trkpt>
      <trkpt lat="43.198" lon="5.75386">
        <ele>147.80000305176</ele>
        <time>2016-05-05T12:51:15.000Z</time>
      </trkpt>
      <trkpt lat="43.19803" lon="5.7537">
        <ele>148.19999694824</ele>
        <time>2016-05-05T12:51:17.000Z</time>
      </trkpt>
      <trkpt lat="43.19816" lon="5.75334">
        <ele>147</ele>
        <time>2016-05-05T12:51:21.000Z</time>
      </trkpt>
      <trkpt lat="43.1982" lon="5.75325">
        <ele>146.39999389648</ele>
        <time>2016-05-05T12:51:22.000Z</time>
      </trkpt>
      <trkpt lat="43.19838" lon="5.75284">
        <ele>142.39999389648</ele>
        <time>2016-05-05T12:51:26.000Z</time>
      </trkpt>
      <trkpt lat="43.19847" lon="5.75262">
        <ele>140.19999694824</ele>
        <time>2016-05-05T12:51:28.000Z</time>
      </trkpt>
      <trkpt lat="43.19855" lon="5.75239">
        <ele>138.60000610352</ele>
        <time>2016-05-05T12:51:30.000Z</time>
      </trkpt>
      <trkpt lat="43.19863" lon="5.75201">
        <ele>137.80000305176</ele>
        <time>2016-05-05T12:51:33.000Z</time>
      </trkpt>
      <trkpt lat="43.1987" lon="5.75147">
        <ele>137.60000610352</ele>
        <time>2016-05-05T12:51:37.000Z</time>
      </trkpt>
      <trkpt lat="43.19873" lon="5.75118">
        <ele>136.19999694824</ele>
        <time>2016-05-05T12:51:39.000Z</time>
      </trkpt>
      <trkpt lat="43.19875" lon="5.7509">
        <ele>134.60000610352</ele>
        <time>2016-05-05T12:51:41.000Z</time>
      </trkpt>
      <trkpt lat="43.19876" lon="5.75047">
        <ele>132.80000305176</ele>
        <time>2016-05-05T12:51:44.000Z</time>
      </trkpt>
      <trkpt lat="43.19876" lon="5.75033">
        <ele>131.60000610352</ele>
        <time>2016-05-05T12:51:45.000Z</time>
      </trkpt>
      <trkpt lat="43.19877" lon="5.75003">
        <ele>129.19999694824</ele>
        <time>2016-05-05T12:51:47.000Z</time>
      </trkpt>
      <trkpt lat="43.19877" lon="5.74973">
        <ele>129.39999389648</ele>
        <time>2016-05-05T12:51:49.000Z</time>
      </trkpt>
      <trkpt lat="43.19879" lon="5.74927">
        <ele>127.19999694824</ele>
        <time>2016-05-05T12:51:52.000Z</time>
      </trkpt>
      <trkpt lat="43.19881" lon="5.74913">
        <ele>126.19999694824</ele>
        <time>2016-05-05T12:51:53.000Z</time>
      </trkpt>
      <trkpt lat="43.19885" lon="5.74898">
        <ele>125</ele>
        <time>2016-05-05T12:51:54.000Z</time>
      </trkpt>
      <trkpt lat="43.1989" lon="5.74884">
        <ele>123.59999847412</ele>
        <time>2016-05-05T12:51:55.000Z</time>
      </trkpt>
      <trkpt lat="43.19895" lon="5.7487">
        <ele>122</ele>
        <time>2016-05-05T12:51:56.000Z</time>
      </trkpt>
      <trkpt lat="43.19912" lon="5.74831">
        <ele>117</ele>
        <time>2016-05-05T12:51:59.000Z</time>
      </trkpt>
      <trkpt lat="43.19924" lon="5.74804">
        <ele>113.40000152588</ele>
        <time>2016-05-05T12:52:01.000Z</time>
      </trkpt>
      <trkpt lat="43.19937" lon="5.74777">
        <ele>111.80000305176</ele>
        <time>2016-05-05T12:52:03.000Z</time>
      </trkpt>
      <trkpt lat="43.19949" lon="5.74751">
        <ele>111</ele>
        <time>2016-05-05T12:52:05.000Z</time>
      </trkpt>
      <trkpt lat="43.19966" lon="5.74711">
        <ele>109.59999847412</ele>
        <time>2016-05-05T12:52:08.000Z</time>
      </trkpt>
      <trkpt lat="43.19972" lon="5.74698">
        <ele>109.19999694824</ele>
        <time>2016-05-05T12:52:09.000Z</time>
      </trkpt>
      <trkpt lat="43.19985" lon="5.74672">
        <ele>107.59999847412</ele>
        <time>2016-05-05T12:52:11.000Z</time>
      </trkpt>
      <trkpt lat="43.19993" lon="5.74661">
        <ele>106.40000152588</ele>
        <time>2016-05-05T12:52:12.000Z</time>
      </trkpt>
      <trkpt lat="43.20001" lon="5.74649">
        <ele>104.80000305176</ele>
        <time>2016-05-05T12:52:13.000Z</time>
      </trkpt>
      <trkpt lat="43.20027" lon="5.74616">
        <ele>102.59999847412</ele>
        <time>2016-05-05T12:52:16.000Z</time>
      </trkpt>
      <trkpt lat="43.20044" lon="5.74594">
        <ele>102</ele>
        <time>2016-05-05T12:52:18.000Z</time>
      </trkpt>
      <trkpt lat="43.20062" lon="5.74571">
        <ele>100.40000152588</ele>
        <time>2016-05-05T12:52:20.000Z</time>
      </trkpt>
      <trkpt lat="43.2007" lon="5.7456">
        <ele>99.400001525879</ele>
        <time>2016-05-05T12:52:21.000Z</time>
      </trkpt>
      <trkpt lat="43.20096" lon="5.74525">
        <ele>97</ele>
        <time>2016-05-05T12:52:24.000Z</time>
      </trkpt>
      <trkpt lat="43.20113" lon="5.74501">
        <ele>96.199996948242</ele>
        <time>2016-05-05T12:52:26.000Z</time>
      </trkpt>
      <trkpt lat="43.20127" lon="5.74475">
        <ele>95.800003051758</ele>
        <time>2016-05-05T12:52:28.000Z</time>
      </trkpt>
      <trkpt lat="43.20138" lon="5.74448">
        <ele>95.199996948242</ele>
        <time>2016-05-05T12:52:30.000Z</time>
      </trkpt>
      <trkpt lat="43.20148" lon="5.7442">
        <ele>95</ele>
        <time>2016-05-05T12:52:32.000Z</time>
      </trkpt>
      <trkpt lat="43.20153" lon="5.74406">
        <ele>95.199996948242</ele>
        <time>2016-05-05T12:52:33.000Z</time>
      </trkpt>
      <trkpt lat="43.20179" lon="5.74332">
        <ele>96</ele>
        <time>2016-05-05T12:52:39.000Z</time>
      </trkpt>
      <trkpt lat="43.20197" lon="5.74266">
        <ele>96.800003051758</ele>
        <time>2016-05-05T12:52:45.000Z</time>
      </trkpt>
      <trkpt lat="43.20201" lon="5.74245">
        <ele>97</ele>
        <time>2016-05-05T12:52:47.000Z</time>
      </trkpt>
      <trkpt lat="43.20206" lon="5.74219">
        <ele>97</ele>
        <time>2016-05-05T12:52:50.000Z</time>
      </trkpt>
      <trkpt lat="43.20226" lon="5.74165">
        <ele>97.800003051758</ele>
        <time>2016-05-05T12:52:57.000Z</time>
      </trkpt>
      <trkpt lat="43.20241" lon="5.74113">
        <ele>97.199996948242</ele>
        <time>2016-05-05T12:53:04.000Z</time>
      </trkpt>
      <trkpt lat="43.20246" lon="5.74041">
        <ele>98.599998474121</ele>
        <time>2016-05-05T12:53:13.000Z</time>
      </trkpt>
      <trkpt lat="43.20246" lon="5.74006">
        <ele>99</ele>
        <time>2016-05-05T12:53:18.000Z</time>
      </trkpt>
      <trkpt lat="43.20246" lon="5.73997">
        <ele>99</ele>
        <time>2016-05-05T12:53:20.000Z</time>
      </trkpt>
      <trkpt lat="43.20247" lon="5.73992">
        <ele>99</ele>
        <time>2016-05-05T12:53:24.000Z</time>
      </trkpt>
      <trkpt lat="43.20252" lon="5.73989">
        <ele>98.599998474121</ele>
        <time>2016-05-05T12:53:36.000Z</time>
      </trkpt>
      <trkpt lat="43.20261" lon="5.73984">
        <ele>98</ele>
        <time>2016-05-05T12:53:39.000Z</time>
      </trkpt>
      <trkpt lat="43.20265" lon="5.73983">
        <ele>97.599998474121</ele>
        <time>2016-05-05T12:53:40.000Z</time>
      </trkpt>
      <trkpt lat="43.20282" lon="5.73981">
        <ele>96.400001525879</ele>
        <time>2016-05-05T12:53:43.000Z</time>
      </trkpt>
      <trkpt lat="43.20312" lon="5.73978">
        <ele>94.199996948242</ele>
        <time>2016-05-05T12:53:48.000Z</time>
      </trkpt>
      <trkpt lat="43.20324" lon="5.73972">
        <ele>93.400001525879</ele>
        <time>2016-05-05T12:53:50.000Z</time>
      </trkpt>
      <trkpt lat="43.20329" lon="5.73968">
        <ele>93.199996948242</ele>
        <time>2016-05-05T12:53:51.000Z</time>
      </trkpt>
      <trkpt lat="43.20334" lon="5.73965">
        <ele>92.800003051758</ele>
        <time>2016-05-05T12:53:52.000Z</time>
      </trkpt>
      <trkpt lat="43.20348" lon="5.73951">
        <ele>92.199996948242</ele>
        <time>2016-05-05T12:53:55.000Z</time>
      </trkpt>
      <trkpt lat="43.20352" lon="5.73946">
        <ele>92.199996948242</ele>
        <time>2016-05-05T12:53:56.000Z</time>
      </trkpt>
      <trkpt lat="43.2036" lon="5.73934">
        <ele>92</ele>
        <time>2016-05-05T12:53:58.000Z</time>
      </trkpt>
      <trkpt lat="43.20363" lon="5.73927">
        <ele>92</ele>
        <time>2016-05-05T12:53:59.000Z</time>
      </trkpt>
      <trkpt lat="43.20372" lon="5.73896">
        <ele>92</ele>
        <time>2016-05-05T12:54:03.000Z</time>
      </trkpt>
      <trkpt lat="43.20372" lon="5.73876">
        <ele>91.599998474121</ele>
        <time>2016-05-05T12:54:05.000Z</time>
      </trkpt>
      <trkpt lat="43.20363" lon="5.73847">
        <ele>91</ele>
        <time>2016-05-05T12:54:07.000Z</time>
      </trkpt>
      <trkpt lat="43.20352" lon="5.73808">
        <ele>90</ele>
        <time>2016-05-05T12:54:10.000Z</time>
      </trkpt>
      <trkpt lat="43.20335" lon="5.73731">
        <ele>90.800003051758</ele>
        <time>2016-05-05T12:54:16.000Z</time>
      </trkpt>
      <trkpt lat="43.20332" lon="5.73708">
        <ele>90.599998474121</ele>
        <time>2016-05-05T12:54:18.000Z</time>
      </trkpt>
      <trkpt lat="43.20329" lon="5.73684">
        <ele>90.400001525879</ele>
        <time>2016-05-05T12:54:20.000Z</time>
      </trkpt>
      <trkpt lat="43.20324" lon="5.73606">
        <ele>89</ele>
        <time>2016-05-05T12:54:27.000Z</time>
      </trkpt>
      <trkpt lat="43.20323" lon="5.73595">
        <ele>88.800003051758</ele>
        <time>2016-05-05T12:54:28.000Z</time>
      </trkpt>
      <trkpt lat="43.20322" lon="5.73572">
        <ele>88.199996948242</ele>
        <time>2016-05-05T12:54:30.000Z</time>
      </trkpt>
      <trkpt lat="43.20318" lon="5.73492">
        <ele>86.199996948242</ele>
        <time>2016-05-05T12:54:37.000Z</time>
      </trkpt>
      <trkpt lat="43.20316" lon="5.73468">
        <ele>85.599998474121</ele>
        <time>2016-05-05T12:54:39.000Z</time>
      </trkpt>
      <trkpt lat="43.20316" lon="5.73456">
        <ele>85.400001525879</ele>
        <time>2016-05-05T12:54:40.000Z</time>
      </trkpt>
      <trkpt lat="43.20314" lon="5.73418">
        <ele>84.199996948242</ele>
        <time>2016-05-05T12:54:43.000Z</time>
      </trkpt>
      <trkpt lat="43.20312" lon="5.73365">
        <ele>82.400001525879</ele>
        <time>2016-05-05T12:54:47.000Z</time>
      </trkpt>
      <trkpt lat="43.20311" lon="5.73352">
        <ele>82</ele>
        <time>2016-05-05T12:54:48.000Z</time>
      </trkpt>
      <trkpt lat="43.2031" lon="5.73324">
        <ele>82.400001525879</ele>
        <time>2016-05-05T12:54:50.000Z</time>
      </trkpt>
      <trkpt lat="43.20307" lon="5.73265">
        <ele>81.199996948242</ele>
        <time>2016-05-05T12:54:54.000Z</time>
      </trkpt>
      <trkpt lat="43.20302" lon="5.73217">
        <ele>79</ele>
        <time>2016-05-05T12:54:57.000Z</time>
      </trkpt>
      <trkpt lat="43.20302" lon="5.73185">
        <ele>78.599998474121</ele>
        <time>2016-05-05T12:54:59.000Z</time>
      </trkpt>
      <trkpt lat="43.20304" lon="5.7317">
        <ele>78</ele>
        <time>2016-05-05T12:55:00.000Z</time>
      </trkpt>
      <trkpt lat="43.20306" lon="5.73154">
        <ele>77.199996948242</ele>
        <time>2016-05-05T12:55:01.000Z</time>
      </trkpt>
      <trkpt lat="43.20314" lon="5.73124">
        <ele>75.599998474121</ele>
        <time>2016-05-05T12:55:03.000Z</time>
      </trkpt>
      <trkpt lat="43.20318" lon="5.73109">
        <ele>75</ele>
        <time>2016-05-05T12:55:04.000Z</time>
      </trkpt>
      <trkpt lat="43.20327" lon="5.73079">
        <ele>74.599998474121</ele>
        <time>2016-05-05T12:55:06.000Z</time>
      </trkpt>
      <trkpt lat="43.20342" lon="5.73021">
        <ele>72.800003051758</ele>
        <time>2016-05-05T12:55:10.000Z</time>
      </trkpt>
      <trkpt lat="43.20345" lon="5.73006">
        <ele>72.199996948242</ele>
        <time>2016-05-05T12:55:11.000Z</time>
      </trkpt>
      <trkpt lat="43.20352" lon="5.72978">
        <ele>71</ele>
        <time>2016-05-05T12:55:13.000Z</time>
      </trkpt>
      <trkpt lat="43.20364" lon="5.72938">
        <ele>70.400001525879</ele>
        <time>2016-05-05T12:55:16.000Z</time>
      </trkpt>
      <trkpt lat="43.20368" lon="5.72925">
        <ele>70.199996948242</ele>
        <time>2016-05-05T12:55:17.000Z</time>
      </trkpt>
      <trkpt lat="43.20385" lon="5.72875">
        <ele>69.400001525879</ele>
        <time>2016-05-05T12:55:21.000Z</time>
      </trkpt>
      <trkpt lat="43.20391" lon="5.72851">
        <ele>69.599998474121</ele>
        <time>2016-05-05T12:55:23.000Z</time>
      </trkpt>
      <trkpt lat="43.20392" lon="5.72838">
        <ele>69.199996948242</ele>
        <time>2016-05-05T12:55:24.000Z</time>
      </trkpt>
      <trkpt lat="43.20396" lon="5.72787">
        <ele>68.199996948242</ele>
        <time>2016-05-05T12:55:28.000Z</time>
      </trkpt>
      <trkpt lat="43.20402" lon="5.7272">
        <ele>69.400001525879</ele>
        <time>2016-05-05T12:55:34.000Z</time>
      </trkpt>
      <trkpt lat="43.20402" lon="5.7271">
        <ele>69.199996948242</ele>
        <time>2016-05-05T12:55:35.000Z</time>
      </trkpt>
      <trkpt lat="43.204" lon="5.72701">
        <ele>68.800003051758</ele>
        <time>2016-05-05T12:55:36.000Z</time>
      </trkpt>
      <trkpt lat="43.20397" lon="5.72691">
        <ele>68.599998474121</ele>
        <time>2016-05-05T12:55:37.000Z</time>
      </trkpt>
      <trkpt lat="43.20383" lon="5.72647">
        <ele>68.400001525879</ele>
        <time>2016-05-05T12:55:42.000Z</time>
      </trkpt>
      <trkpt lat="43.2038" lon="5.72638">
        <ele>68.400001525879</ele>
        <time>2016-05-05T12:55:43.000Z</time>
      </trkpt>
      <trkpt lat="43.20372" lon="5.72614">
        <ele>67.599998474121</ele>
        <time>2016-05-05T12:55:46.000Z</time>
      </trkpt>
      <trkpt lat="43.20351" lon="5.72546">
        <ele>65.599998474121</ele>
        <time>2016-05-05T12:55:55.000Z</time>
      </trkpt>
      <trkpt lat="43.20337" lon="5.72502">
        <ele>66.599998474121</ele>
        <time>2016-05-05T12:56:03.000Z</time>
      </trkpt>
      <trkpt lat="43.20328" lon="5.72477">
        <ele>67.199996948242</ele>
        <time>2016-05-05T12:56:09.000Z</time>
      </trkpt>
      <trkpt lat="43.20325" lon="5.72471">
        <ele>67.199996948242</ele>
        <time>2016-05-05T12:57:46.000Z</time>
      </trkpt>
      <trkpt lat="43.20324" lon="5.72468">
        <ele>67.400001525879</ele>
        <time>2016-05-05T12:57:47.000Z</time>
      </trkpt>
      <trkpt lat="43.20316" lon="5.72449">
        <ele>67.800003051758</ele>
        <time>2016-05-05T12:57:51.000Z</time>
      </trkpt>
      <trkpt lat="43.20312" lon="5.72437">
        <ele>68</ele>
        <time>2016-05-05T12:57:53.000Z</time>
      </trkpt>
      <trkpt lat="43.20303" lon="5.72408">
        <ele>68.400001525879</ele>
        <time>2016-05-05T12:57:57.000Z</time>
      </trkpt>
      <trkpt lat="43.20288" lon="5.72353">
        <ele>69.800003051758</ele>
        <time>2016-05-05T12:58:05.000Z</time>
      </trkpt>
      <trkpt lat="43.20283" lon="5.72342">
        <ele>70.199996948242</ele>
        <time>2016-05-05T12:58:07.000Z</time>
      </trkpt>
      <trkpt lat="43.20274" lon="5.72326">
        <ele>70.599998474121</ele>
        <time>2016-05-05T12:58:10.000Z</time>
      </trkpt>
      <trkpt lat="43.20263" lon="5.72294">
        <ele>71</ele>
        <time>2016-05-05T12:58:15.000Z</time>
      </trkpt>
      <trkpt lat="43.20246" lon="5.7223">
        <ele>69.599998474121</ele>
        <time>2016-05-05T12:58:24.000Z</time>
      </trkpt>
      <trkpt lat="43.20233" lon="5.72185">
        <ele>69</ele>
        <time>2016-05-05T12:58:30.000Z</time>
      </trkpt>
      <trkpt lat="43.2023" lon="5.72177">
        <ele>69</ele>
        <time>2016-05-05T12:58:31.000Z</time>
      </trkpt>
      <trkpt lat="43.20214" lon="5.72146">
        <ele>68.400001525879</ele>
        <time>2016-05-05T12:58:36.000Z</time>
      </trkpt>
      <trkpt lat="43.20211" lon="5.72138">
        <ele>68.199996948242</ele>
        <time>2016-05-05T12:58:38.000Z</time>
      </trkpt>
      <trkpt lat="43.20207" lon="5.72128">
        <ele>68</ele>
        <time>2016-05-05T12:58:40.000Z</time>
      </trkpt>
      <trkpt lat="43.20205" lon="5.72122">
        <ele>67.800003051758</ele>
        <time>2016-05-05T12:58:41.000Z</time>
      </trkpt>
      <trkpt lat="43.20202" lon="5.72115">
        <ele>67.599998474121</ele>
        <time>2016-05-05T12:58:42.000Z</time>
      </trkpt>
      <trkpt lat="43.20197" lon="5.72094">
        <ele>67.599998474121</ele>
        <time>2016-05-05T12:58:45.000Z</time>
      </trkpt>
      <trkpt lat="43.20197" lon="5.72086">
        <ele>67.599998474121</ele>
        <time>2016-05-05T12:58:46.000Z</time>
      </trkpt>
      <trkpt lat="43.20195" lon="5.7206">
        <ele>67.599998474121</ele>
        <time>2016-05-05T12:58:49.000Z</time>
      </trkpt>
      <trkpt lat="43.20195" lon="5.72052">
        <ele>67.599998474121</ele>
        <time>2016-05-05T12:58:50.000Z</time>
      </trkpt>
      <trkpt lat="43.20196" lon="5.72042">
        <ele>67.400001525879</ele>
        <time>2016-05-05T12:58:51.000Z</time>
      </trkpt>
      <trkpt lat="43.20199" lon="5.72002">
        <ele>66.199996948242</ele>
        <time>2016-05-05T12:58:55.000Z</time>
      </trkpt>
      <trkpt lat="43.202" lon="5.71973">
        <ele>63.400001525879</ele>
        <time>2016-05-05T12:58:58.000Z</time>
      </trkpt>
      <trkpt lat="43.20201" lon="5.71937">
        <ele>62.599998474121</ele>
        <time>2016-05-05T12:59:03.000Z</time>
      </trkpt>
      <trkpt lat="43.20202" lon="5.71932">
        <ele>62.599998474121</ele>
        <time>2016-05-05T12:59:04.000Z</time>
      </trkpt>
      <trkpt lat="43.20209" lon="5.7192">
        <ele>62.400001525879</ele>
        <time>2016-05-05T12:59:07.000Z</time>
      </trkpt>
      <trkpt lat="43.20218" lon="5.71917">
        <ele>62.400001525879</ele>
        <time>2016-05-05T12:59:09.000Z</time>
      </trkpt>
      <trkpt lat="43.20222" lon="5.71914">
        <ele>62.400001525879</ele>
        <time>2016-05-05T12:59:10.000Z</time>
      </trkpt>
      <trkpt lat="43.20224" lon="5.71909">
        <ele>62.200000762939</ele>
        <time>2016-05-05T12:59:11.000Z</time>
      </trkpt>
      <trkpt lat="43.20227" lon="5.71886">
        <ele>62</ele>
        <time>2016-05-05T12:59:16.000Z</time>
      </trkpt>
      <trkpt lat="43.20222" lon="5.71844">
        <ele>64.400001525879</ele>
        <time>2016-05-05T12:59:23.000Z</time>
      </trkpt>
      <trkpt lat="43.20211" lon="5.71817">
        <ele>65.199996948242</ele>
        <time>2016-05-05T12:59:28.000Z</time>
      </trkpt>
      <trkpt lat="43.20206" lon="5.71806">
        <ele>65.599998474121</ele>
        <time>2016-05-05T12:59:30.000Z</time>
      </trkpt>
      <trkpt lat="43.20202" lon="5.71795">
        <ele>66</ele>
        <time>2016-05-05T12:59:32.000Z</time>
      </trkpt>
      <trkpt lat="43.20194" lon="5.71773">
        <ele>67</ele>
        <time>2016-05-05T12:59:36.000Z</time>
      </trkpt>
      <trkpt lat="43.2019" lon="5.71762">
        <ele>67.400001525879</ele>
        <time>2016-05-05T12:59:38.000Z</time>
      </trkpt>
      <trkpt lat="43.20187" lon="5.71749">
        <ele>67.800003051758</ele>
        <time>2016-05-05T12:59:40.000Z</time>
      </trkpt>
      <trkpt lat="43.20181" lon="5.71732">
        <ele>68.599998474121</ele>
        <time>2016-05-05T12:59:43.000Z</time>
      </trkpt>
      <trkpt lat="43.20174" lon="5.71708">
        <ele>69.199996948242</ele>
        <time>2016-05-05T12:59:47.000Z</time>
      </trkpt>
      <trkpt lat="43.20162" lon="5.71672">
        <ele>70</ele>
        <time>2016-05-05T12:59:53.000Z</time>
      </trkpt>
      <trkpt lat="43.20154" lon="5.71648">
        <ele>70.400001525879</ele>
        <time>2016-05-05T12:59:57.000Z</time>
      </trkpt>
      <trkpt lat="43.20147" lon="5.71629">
        <ele>70.800003051758</ele>
        <time>2016-05-05T13:00:00.000Z</time>
      </trkpt>
      <trkpt lat="43.20134" lon="5.71592">
        <ele>71.599998474121</ele>
        <time>2016-05-05T13:00:06.000Z</time>
      </trkpt>
      <trkpt lat="43.20129" lon="5.7158">
        <ele>71.800003051758</ele>
        <time>2016-05-05T13:00:08.000Z</time>
      </trkpt>
      <trkpt lat="43.20107" lon="5.71536">
        <ele>72.400001525879</ele>
        <time>2016-05-05T13:00:16.000Z</time>
      </trkpt>
      <trkpt lat="43.20094" lon="5.71514">
        <ele>72.400001525879</ele>
        <time>2016-05-05T13:00:20.000Z</time>
      </trkpt>
      <trkpt lat="43.20089" lon="5.71501">
        <ele>72.400001525879</ele>
        <time>2016-05-05T13:00:22.000Z</time>
      </trkpt>
      <trkpt lat="43.20072" lon="5.71448">
        <ele>73</ele>
        <time>2016-05-05T13:00:30.000Z</time>
      </trkpt>
      <trkpt lat="43.20057" lon="5.7138">
        <ele>74.599998474121</ele>
        <time>2016-05-05T13:00:40.000Z</time>
      </trkpt>
      <trkpt lat="43.20056" lon="5.71373">
        <ele>74.599998474121</ele>
        <time>2016-05-05T13:00:41.000Z</time>
      </trkpt>
      <trkpt lat="43.20052" lon="5.71338">
        <ele>74.599998474121</ele>
        <time>2016-05-05T13:00:46.000Z</time>
      </trkpt>
      <trkpt lat="43.2005" lon="5.71324">
        <ele>74.599998474121</ele>
        <time>2016-05-05T13:00:48.000Z</time>
      </trkpt>
      <trkpt lat="43.20048" lon="5.71277">
        <ele>74.400001525879</ele>
        <time>2016-05-05T13:00:54.000Z</time>
      </trkpt>
      <trkpt lat="43.20048" lon="5.71226">
        <ele>73.800003051758</ele>
        <time>2016-05-05T13:01:00.000Z</time>
      </trkpt>
      <trkpt lat="43.20047" lon="5.71218">
        <ele>73.800003051758</ele>
        <time>2016-05-05T13:01:01.000Z</time>
      </trkpt>
      <trkpt lat="43.20039" lon="5.71181">
        <ele>73.800003051758</ele>
        <time>2016-05-05T13:01:06.000Z</time>
      </trkpt>
      <trkpt lat="43.20037" lon="5.71174">
        <ele>73.800003051758</ele>
        <time>2016-05-05T13:01:07.000Z</time>
      </trkpt>
      <trkpt lat="43.20018" lon="5.71138">
        <ele>73.199996948242</ele>
        <time>2016-05-05T13:01:13.000Z</time>
      </trkpt>
      <trkpt lat="43.2" lon="5.71096">
        <ele>73.400001525879</ele>
        <time>2016-05-05T13:01:20.000Z</time>
      </trkpt>
      <trkpt lat="43.19985" lon="5.71052">
        <ele>73.599998474121</ele>
        <time>2016-05-05T13:01:27.000Z</time>
      </trkpt>
      <trkpt lat="43.19975" lon="5.7102">
        <ele>72.800003051758</ele>
        <time>2016-05-05T13:01:33.000Z</time>
      </trkpt>
      <trkpt lat="43.19968" lon="5.70989">
        <ele>71.599998474121</ele>
        <time>2016-05-05T13:01:37.000Z</time>
      </trkpt>
      <trkpt lat="43.19964" lon="5.70961">
        <ele>70</ele>
        <time>2016-05-05T13:01:40.000Z</time>
      </trkpt>
      <trkpt lat="43.19962" lon="5.70943">
        <ele>68.400001525879</ele>
        <time>2016-05-05T13:01:42.000Z</time>
      </trkpt>
      <trkpt lat="43.19961" lon="5.70934">
        <ele>67.800003051758</ele>
        <time>2016-05-05T13:01:43.000Z</time>
      </trkpt>
      <trkpt lat="43.1996" lon="5.70927">
        <ele>67.199996948242</ele>
        <time>2016-05-05T13:01:44.000Z</time>
      </trkpt>
      <trkpt lat="43.19959" lon="5.7092">
        <ele>66.599998474121</ele>
        <time>2016-05-05T13:01:45.000Z</time>
      </trkpt>
      <trkpt lat="43.19956" lon="5.70915">
        <ele>66</ele>
        <time>2016-05-05T13:01:46.000Z</time>
      </trkpt>
      <trkpt lat="43.19951" lon="5.70911">
        <ele>65.599998474121</ele>
        <time>2016-05-05T13:01:47.000Z</time>
      </trkpt>
      <trkpt lat="43.19946" lon="5.70906">
        <ele>65</ele>
        <time>2016-05-05T13:01:48.000Z</time>
      </trkpt>
      <trkpt lat="43.19937" lon="5.70889">
        <ele>63.599998474121</ele>
        <time>2016-05-05T13:01:50.000Z</time>
      </trkpt>
      <trkpt lat="43.19932" lon="5.7088">
        <ele>63</ele>
        <time>2016-05-05T13:01:51.000Z</time>
      </trkpt>
      <trkpt lat="43.19926" lon="5.70872">
        <ele>62.400001525879</ele>
        <time>2016-05-05T13:01:52.000Z</time>
      </trkpt>
      <trkpt lat="43.19919" lon="5.70867">
        <ele>62.200000762939</ele>
        <time>2016-05-05T13:01:53.000Z</time>
      </trkpt>
      <trkpt lat="43.19913" lon="5.70861">
        <ele>62</ele>
        <time>2016-05-05T13:01:54.000Z</time>
      </trkpt>
      <trkpt lat="43.19901" lon="5.70848">
        <ele>61.599998474121</ele>
        <time>2016-05-05T13:01:56.000Z</time>
      </trkpt>
      <trkpt lat="43.19891" lon="5.70836">
        <ele>61.200000762939</ele>
        <time>2016-05-05T13:01:58.000Z</time>
      </trkpt>
      <trkpt lat="43.19881" lon="5.70826">
        <ele>60.799999237061</ele>
        <time>2016-05-05T13:02:00.000Z</time>
      </trkpt>
      <trkpt lat="43.19869" lon="5.70813">
        <ele>60.400001525879</ele>
        <time>2016-05-05T13:02:03.000Z</time>
      </trkpt>
      <trkpt lat="43.19865" lon="5.70795">
        <ele>60.200000762939</ele>
        <time>2016-05-05T13:02:06.000Z</time>
      </trkpt>
      <trkpt lat="43.19864" lon="5.70789">
        <ele>60.200000762939</ele>
        <time>2016-05-05T13:02:07.000Z</time>
      </trkpt>
      <trkpt lat="43.19857" lon="5.70771">
        <ele>60.400001525879</ele>
        <time>2016-05-05T13:02:11.000Z</time>
      </trkpt>
      <trkpt lat="43.19855" lon="5.70766">
        <ele>60.400001525879</ele>
        <time>2016-05-05T13:02:12.000Z</time>
      </trkpt>
      <trkpt lat="43.19849" lon="5.70752">
        <ele>60.599998474121</ele>
        <time>2016-05-05T13:02:15.000Z</time>
      </trkpt>
      <trkpt lat="43.19841" lon="5.7073">
        <ele>60.799999237061</ele>
        <time>2016-05-05T13:02:19.000Z</time>
      </trkpt>
      <trkpt lat="43.19837" lon="5.70719">
        <ele>61</ele>
        <time>2016-05-05T13:02:21.000Z</time>
      </trkpt>
      <trkpt lat="43.19817" lon="5.70667">
        <ele>62</ele>
        <time>2016-05-05T13:02:30.000Z</time>
      </trkpt>
      <trkpt lat="43.19809" lon="5.70651">
        <ele>62.200000762939</ele>
        <time>2016-05-05T13:02:33.000Z</time>
      </trkpt>
      <trkpt lat="43.19802" lon="5.70642">
        <ele>62.400001525879</ele>
        <time>2016-05-05T13:02:35.000Z</time>
      </trkpt>
      <trkpt lat="43.19793" lon="5.70635">
        <ele>62.599998474121</ele>
        <time>2016-05-05T13:02:37.000Z</time>
      </trkpt>
      <trkpt lat="43.19776" lon="5.70621">
        <ele>63.400001525879</ele>
        <time>2016-05-05T13:02:41.000Z</time>
      </trkpt>
      <trkpt lat="43.19769" lon="5.70612">
        <ele>64</ele>
        <time>2016-05-05T13:02:43.000Z</time>
      </trkpt>
      <trkpt lat="43.19761" lon="5.70594">
        <ele>65</ele>
        <time>2016-05-05T13:02:46.000Z</time>
      </trkpt>
      <trkpt lat="43.19759" lon="5.70588">
        <ele>65.400001525879</ele>
        <time>2016-05-05T13:02:47.000Z</time>
      </trkpt>
      <trkpt lat="43.19745" lon="5.70546">
        <ele>67.400001525879</ele>
        <time>2016-05-05T13:02:54.000Z</time>
      </trkpt>
      <trkpt lat="43.19741" lon="5.70534">
        <ele>67.199996948242</ele>
        <time>2016-05-05T13:02:56.000Z</time>
      </trkpt>
      <trkpt lat="43.1973" lon="5.70504">
        <ele>66.800003051758</ele>
        <time>2016-05-05T13:03:01.000Z</time>
      </trkpt>
      <trkpt lat="43.1972" lon="5.7048">
        <ele>66.599998474121</ele>
        <time>2016-05-05T13:03:05.000Z</time>
      </trkpt>
      <trkpt lat="43.19709" lon="5.70451">
        <ele>66.599998474121</ele>
        <time>2016-05-05T13:03:10.000Z</time>
      </trkpt>
      <trkpt lat="43.19702" lon="5.70435">
        <ele>66.800003051758</ele>
        <time>2016-05-05T13:03:13.000Z</time>
      </trkpt>
      <trkpt lat="43.197" lon="5.70429">
        <ele>66.800003051758</ele>
        <time>2016-05-05T13:03:14.000Z</time>
      </trkpt>
      <trkpt lat="43.19688" lon="5.70399">
        <ele>67</ele>
        <time>2016-05-05T13:03:19.000Z</time>
      </trkpt>
      <trkpt lat="43.19679" lon="5.70376">
        <ele>67.199996948242</ele>
        <time>2016-05-05T13:03:23.000Z</time>
      </trkpt>
      <trkpt lat="43.19668" lon="5.70331">
        <ele>67</ele>
        <time>2016-05-05T13:03:30.000Z</time>
      </trkpt>
      <trkpt lat="43.19666" lon="5.70316">
        <ele>67</ele>
        <time>2016-05-05T13:03:32.000Z</time>
      </trkpt>
      <trkpt lat="43.1966" lon="5.70281">
        <ele>67.400001525879</ele>
        <time>2016-05-05T13:03:36.000Z</time>
      </trkpt>
      <trkpt lat="43.19654" lon="5.70235">
        <ele>68.800003051758</ele>
        <time>2016-05-05T13:03:42.000Z</time>
      </trkpt>
      <trkpt lat="43.1965" lon="5.70202">
        <ele>69.199996948242</ele>
        <time>2016-05-05T13:03:48.000Z</time>
      </trkpt>
      <trkpt lat="43.1965" lon="5.70196">
        <ele>69.199996948242</ele>
        <time>2016-05-05T13:03:49.000Z</time>
      </trkpt>
      <trkpt lat="43.19648" lon="5.70179">
        <ele>69.599998474121</ele>
        <time>2016-05-05T13:03:52.000Z</time>
      </trkpt>
      <trkpt lat="43.19643" lon="5.70139">
        <ele>70.599998474121</ele>
        <time>2016-05-05T13:03:59.000Z</time>
      </trkpt>
      <trkpt lat="43.19641" lon="5.70126">
        <ele>70.599998474121</ele>
        <time>2016-05-05T13:04:01.000Z</time>
      </trkpt>
      <trkpt lat="43.19637" lon="5.70108">
        <ele>70.800003051758</ele>
        <time>2016-05-05T13:04:04.000Z</time>
      </trkpt>
      <trkpt lat="43.19635" lon="5.70095">
        <ele>70.800003051758</ele>
        <time>2016-05-05T13:04:06.000Z</time>
      </trkpt>
      <trkpt lat="43.19624" lon="5.70038">
        <ele>70.400001525879</ele>
        <time>2016-05-05T13:04:14.000Z</time>
      </trkpt>
      <trkpt lat="43.19617" lon="5.70008">
        <ele>70.599998474121</ele>
        <time>2016-05-05T13:04:18.000Z</time>
      </trkpt>
      <trkpt lat="43.19611" lon="5.69979">
        <ele>70.599998474121</ele>
        <time>2016-05-05T13:04:22.000Z</time>
      </trkpt>
      <trkpt lat="43.19607" lon="5.69957">
        <ele>70.400001525879</ele>
        <time>2016-05-05T13:04:25.000Z</time>
      </trkpt>
      <trkpt lat="43.19598" lon="5.69914">
        <ele>70.199996948242</ele>
        <time>2016-05-05T13:04:31.000Z</time>
      </trkpt>
      <trkpt lat="43.19595" lon="5.69901">
        <ele>70</ele>
        <time>2016-05-05T13:04:33.000Z</time>
      </trkpt>
      <trkpt lat="43.19586" lon="5.69858">
        <ele>69.400001525879</ele>
        <time>2016-05-05T13:04:39.000Z</time>
      </trkpt>
      <trkpt lat="43.19577" lon="5.69818">
        <ele>69.199996948242</ele>
        <time>2016-05-05T13:04:43.000Z</time>
      </trkpt>
      <trkpt lat="43.19575" lon="5.69807">
        <ele>69</ele>
        <time>2016-05-05T13:04:44.000Z</time>
      </trkpt>
      <trkpt lat="43.19569" lon="5.69777">
        <ele>69.199996948242</ele>
        <time>2016-05-05T13:04:47.000Z</time>
      </trkpt>
      <trkpt lat="43.19567" lon="5.6976">
        <ele>68.599998474121</ele>
        <time>2016-05-05T13:04:49.000Z</time>
      </trkpt>
      <trkpt lat="43.19559" lon="5.69714">
        <ele>67.400001525879</ele>
        <time>2016-05-05T13:04:56.000Z</time>
      </trkpt>
      <trkpt lat="43.19555" lon="5.69687">
        <ele>67.400001525879</ele>
        <time>2016-05-05T13:05:00.000Z</time>
      </trkpt>
      <trkpt lat="43.19548" lon="5.69645">
        <ele>67.599998474121</ele>
        <time>2016-05-05T13:05:06.000Z</time>
      </trkpt>
      <trkpt lat="43.19536" lon="5.69581">
        <ele>65.199996948242</ele>
        <time>2016-05-05T13:05:14.000Z</time>
      </trkpt>
      <trkpt lat="43.19533" lon="5.69564">
        <ele>64.800003051758</ele>
        <time>2016-05-05T13:05:16.000Z</time>
      </trkpt>
      <trkpt lat="43.19525" lon="5.69516">
        <ele>64.599998474121</ele>
        <time>2016-05-05T13:05:21.000Z</time>
      </trkpt>
      <trkpt lat="43.1952" lon="5.69485">
        <ele>64.599998474121</ele>
        <time>2016-05-05T13:05:24.000Z</time>
      </trkpt>
      <trkpt lat="43.19513" lon="5.69444">
        <ele>64.800003051758</ele>
        <time>2016-05-05T13:05:28.000Z</time>
      </trkpt>
      <trkpt lat="43.19511" lon="5.69434">
        <ele>64.800003051758</ele>
        <time>2016-05-05T13:05:29.000Z</time>
      </trkpt>
      <trkpt lat="43.1951" lon="5.69424">
        <ele>65</ele>
        <time>2016-05-05T13:05:30.000Z</time>
      </trkpt>
      <trkpt lat="43.195" lon="5.6937">
        <ele>65.599998474121</ele>
        <time>2016-05-05T13:05:36.000Z</time>
      </trkpt>
      <trkpt lat="43.19492" lon="5.69319">
        <ele>66.800003051758</ele>
        <time>2016-05-05T13:05:43.000Z</time>
      </trkpt>
      <trkpt lat="43.19487" lon="5.69288">
        <ele>67.199996948242</ele>
        <time>2016-05-05T13:05:48.000Z</time>
      </trkpt>
      <trkpt lat="43.19485" lon="5.6927">
        <ele>67.199996948242</ele>
        <time>2016-05-05T13:05:51.000Z</time>
      </trkpt>
      <trkpt lat="43.19483" lon="5.69254">
        <ele>67.199996948242</ele>
        <time>2016-05-05T13:05:54.000Z</time>
      </trkpt>
      <trkpt lat="43.1948" lon="5.69234">
        <ele>67.199996948242</ele>
        <time>2016-05-05T13:05:58.000Z</time>
      </trkpt>
      <trkpt lat="43.19479" lon="5.6923">
        <ele>67.199996948242</ele>
        <time>2016-05-05T13:05:59.000Z</time>
      </trkpt>
      <trkpt lat="43.19478" lon="5.69223">
        <ele>67.199996948242</ele>
        <time>2016-05-05T13:06:02.000Z</time>
      </trkpt>
      <trkpt lat="43.19478" lon="5.69222">
        <ele>67.199996948242</ele>
        <time>2016-05-05T13:06:03.000Z</time>
      </trkpt>
      <trkpt lat="43.19478" lon="5.6922">
        <ele>67.199996948242</ele>
        <time>2016-05-05T13:06:05.000Z</time>
      </trkpt>
      <trkpt lat="43.19478" lon="5.69214">
        <ele>67.199996948242</ele>
        <time>2016-05-05T13:06:08.000Z</time>
      </trkpt>
      <trkpt lat="43.19477" lon="5.69213">
        <ele>67.199996948242</ele>
        <time>2016-05-05T13:06:09.000Z</time>
      </trkpt>
      <trkpt lat="43.19475" lon="5.69208">
        <ele>67.199996948242</ele>
        <time>2016-05-05T13:07:20.000Z</time>
      </trkpt>
      <trkpt lat="43.19471" lon="5.6919">
        <ele>67.199996948242</ele>
        <time>2016-05-05T13:07:25.000Z</time>
      </trkpt>
      <trkpt lat="43.19466" lon="5.69164">
        <ele>67.599998474121</ele>
        <time>2016-05-05T13:07:29.000Z</time>
      </trkpt>
      <trkpt lat="43.19457" lon="5.69106">
        <ele>67.400001525879</ele>
        <time>2016-05-05T13:07:37.000Z</time>
      </trkpt>
      <trkpt lat="43.19454" lon="5.69078">
        <ele>67.199996948242</ele>
        <time>2016-05-05T13:07:41.000Z</time>
      </trkpt>
      <trkpt lat="43.19455" lon="5.69057">
        <ele>68.400001525879</ele>
        <time>2016-05-05T13:07:44.000Z</time>
      </trkpt>
      <trkpt lat="43.19465" lon="5.69033">
        <ele>69.599998474121</ele>
        <time>2016-05-05T13:07:48.000Z</time>
      </trkpt>
      <trkpt lat="43.19468" lon="5.69028">
        <ele>70</ele>
        <time>2016-05-05T13:07:49.000Z</time>
      </trkpt>
      <trkpt lat="43.1949" lon="5.68999">
        <ele>71.599998474121</ele>
        <time>2016-05-05T13:07:55.000Z</time>
      </trkpt>
      <trkpt lat="43.19493" lon="5.68995">
        <ele>72</ele>
        <time>2016-05-05T13:07:56.000Z</time>
      </trkpt>
      <trkpt lat="43.19514" lon="5.68958">
        <ele>72.800003051758</ele>
        <time>2016-05-05T13:08:03.000Z</time>
      </trkpt>
      <trkpt lat="43.19516" lon="5.68953">
        <ele>72.800003051758</ele>
        <time>2016-05-05T13:08:04.000Z</time>
      </trkpt>
      <trkpt lat="43.19518" lon="5.68946">
        <ele>72.800003051758</ele>
        <time>2016-05-05T13:08:05.000Z</time>
      </trkpt>
      <trkpt lat="43.19523" lon="5.68922">
        <ele>72.599998474121</ele>
        <time>2016-05-05T13:08:09.000Z</time>
      </trkpt>
      <trkpt lat="43.19526" lon="5.68899">
        <ele>72</ele>
        <time>2016-05-05T13:08:13.000Z</time>
      </trkpt>
      <trkpt lat="43.19526" lon="5.68879">
        <ele>72.400001525879</ele>
        <time>2016-05-05T13:08:16.000Z</time>
      </trkpt>
      <trkpt lat="43.19518" lon="5.68839">
        <ele>72.599998474121</ele>
        <time>2016-05-05T13:08:22.000Z</time>
      </trkpt>
      <trkpt lat="43.195" lon="5.68798">
        <ele>72.599998474121</ele>
        <time>2016-05-05T13:08:29.000Z</time>
      </trkpt>
      <trkpt lat="43.19477" lon="5.68771">
        <ele>72.199996948242</ele>
        <time>2016-05-05T13:08:35.000Z</time>
      </trkpt>
      <trkpt lat="43.1945" lon="5.68738">
        <ele>71.800003051758</ele>
        <time>2016-05-05T13:08:41.000Z</time>
      </trkpt>
      <trkpt lat="43.19434" lon="5.68718">
        <ele>71.400001525879</ele>
        <time>2016-05-05T13:08:44.000Z</time>
      </trkpt>
      <trkpt lat="43.19417" lon="5.68697">
        <ele>70.800003051758</ele>
        <time>2016-05-05T13:08:47.000Z</time>
      </trkpt>
      <trkpt lat="43.19403" lon="5.68677">
        <ele>70.199996948242</ele>
        <time>2016-05-05T13:08:50.000Z</time>
      </trkpt>
      <trkpt lat="43.19395" lon="5.68664">
        <ele>70</ele>
        <time>2016-05-05T13:08:52.000Z</time>
      </trkpt>
      <trkpt lat="43.19391" lon="5.68658">
        <ele>69.800003051758</ele>
        <time>2016-05-05T13:08:53.000Z</time>
      </trkpt>
      <trkpt lat="43.19377" lon="5.68619">
        <ele>69.599998474121</ele>
        <time>2016-05-05T13:08:59.000Z</time>
      </trkpt>
      <trkpt lat="43.19366" lon="5.68571">
        <ele>70.199996948242</ele>
        <time>2016-05-05T13:09:06.000Z</time>
      </trkpt>
      <trkpt lat="43.19356" lon="5.68521">
        <ele>71</ele>
        <time>2016-05-05T13:09:13.000Z</time>
      </trkpt>
      <trkpt lat="43.19347" lon="5.68455">
        <ele>71.199996948242</ele>
        <time>2016-05-05T13:09:22.000Z</time>
      </trkpt>
      <trkpt lat="43.19337" lon="5.6838">
        <ele>71.199996948242</ele>
        <time>2016-05-05T13:09:33.000Z</time>
      </trkpt>
      <trkpt lat="43.19335" lon="5.68361">
        <ele>72.400001525879</ele>
        <time>2016-05-05T13:09:36.000Z</time>
      </trkpt>
      <trkpt lat="43.19332" lon="5.68336">
        <ele>73.800003051758</ele>
        <time>2016-05-05T13:09:40.000Z</time>
      </trkpt>
      <trkpt lat="43.19331" lon="5.68318">
        <ele>74.800003051758</ele>
        <time>2016-05-05T13:09:43.000Z</time>
      </trkpt>
      <trkpt lat="43.1933" lon="5.68311">
        <ele>75.199996948242</ele>
        <time>2016-05-05T13:09:44.000Z</time>
      </trkpt>
      <trkpt lat="43.1933" lon="5.68298">
        <ele>76</ele>
        <time>2016-05-05T13:09:46.000Z</time>
      </trkpt>
      <trkpt lat="43.19328" lon="5.68276">
        <ele>77.400001525879</ele>
        <time>2016-05-05T13:09:49.000Z</time>
      </trkpt>
      <trkpt lat="43.19327" lon="5.68262">
        <ele>78.199996948242</ele>
        <time>2016-05-05T13:09:51.000Z</time>
      </trkpt>
      <trkpt lat="43.19326" lon="5.68255">
        <ele>78.800003051758</ele>
        <time>2016-05-05T13:09:52.000Z</time>
      </trkpt>
      <trkpt lat="43.19325" lon="5.68234">
        <ele>80.199996948242</ele>
        <time>2016-05-05T13:09:55.000Z</time>
      </trkpt>
      <trkpt lat="43.19324" lon="5.6822">
        <ele>81.199996948242</ele>
        <time>2016-05-05T13:09:57.000Z</time>
      </trkpt>
      <trkpt lat="43.19324" lon="5.682">
        <ele>82.400001525879</ele>
        <time>2016-05-05T13:10:00.000Z</time>
      </trkpt>
      <trkpt lat="43.19323" lon="5.68179">
        <ele>83.400001525879</ele>
        <time>2016-05-05T13:10:03.000Z</time>
      </trkpt>
      <trkpt lat="43.19323" lon="5.68159">
        <ele>84.400001525879</ele>
        <time>2016-05-05T13:10:06.000Z</time>
      </trkpt>
      <trkpt lat="43.19324" lon="5.68131">
        <ele>85.400001525879</ele>
        <time>2016-05-05T13:10:10.000Z</time>
      </trkpt>
      <trkpt lat="43.19324" lon="5.68119">
        <ele>85.599998474121</ele>
        <time>2016-05-05T13:10:12.000Z</time>
      </trkpt>
      <trkpt lat="43.19324" lon="5.68097">
        <ele>85.599998474121</ele>
        <time>2016-05-05T13:10:16.000Z</time>
      </trkpt>
      <trkpt lat="43.19322" lon="5.68072">
        <ele>86</ele>
        <time>2016-05-05T13:10:21.000Z</time>
      </trkpt>
      <trkpt lat="43.1932" lon="5.6805">
        <ele>86</ele>
        <time>2016-05-05T13:10:25.000Z</time>
      </trkpt>
      <trkpt lat="43.1932" lon="5.68039">
        <ele>85.400001525879</ele>
        <time>2016-05-05T13:10:27.000Z</time>
      </trkpt>
      <trkpt lat="43.19319" lon="5.68022">
        <ele>85</ele>
        <time>2016-05-05T13:10:30.000Z</time>
      </trkpt>
      <trkpt lat="43.19319" lon="5.67997">
        <ele>85.599998474121</ele>
        <time>2016-05-05T13:10:34.000Z</time>
      </trkpt>
      <trkpt lat="43.19317" lon="5.67936">
        <ele>86.199996948242</ele>
        <time>2016-05-05T13:10:43.000Z</time>
      </trkpt>
      <trkpt lat="43.19316" lon="5.67861">
        <ele>88.400001525879</ele>
        <time>2016-05-05T13:10:53.000Z</time>
      </trkpt>
      <trkpt lat="43.19315" lon="5.67807">
        <ele>88.400001525879</ele>
        <time>2016-05-05T13:11:01.000Z</time>
      </trkpt>
      <trkpt lat="43.19321" lon="5.67795">
        <ele>89</ele>
        <time>2016-05-05T13:11:05.000Z</time>
      </trkpt>
      <trkpt lat="43.19319" lon="5.67792">
        <ele>88.599998474121</ele>
        <time>2016-05-05T13:11:08.000Z</time>
      </trkpt>
      <trkpt lat="43.19318" lon="5.67793">
        <ele>88.400001525879</ele>
        <time>2016-05-05T13:11:09.000Z</time>
      </trkpt>
      <trkpt lat="43.19315" lon="5.67796">
        <ele>88.199996948242</ele>
        <time>2016-05-05T13:11:13.000Z</time>
      </trkpt>
      <trkpt lat="43.19314" lon="5.67801">
        <ele>88.199996948242</ele>
        <time>2016-05-05T13:11:21.000Z</time>
      </trkpt>
      <trkpt lat="43.19313" lon="5.67804">
        <ele>88</ele>
        <time>2016-05-05T13:11:22.000Z</time>
      </trkpt>
      <trkpt lat="43.19312" lon="5.67828">
        <ele>87.800003051758</ele>
        <time>2016-05-05T13:11:27.000Z</time>
      </trkpt>
      <trkpt lat="43.19313" lon="5.67865">
        <ele>88</ele>
        <time>2016-05-05T13:11:34.000Z</time>
      </trkpt>
      <trkpt lat="43.19314" lon="5.67876">
        <ele>88.199996948242</ele>
        <time>2016-05-05T13:11:36.000Z</time>
      </trkpt>
      <trkpt lat="43.19314" lon="5.67892">
        <ele>88</ele>
        <time>2016-05-05T13:11:39.000Z</time>
      </trkpt>
      <trkpt lat="43.19315" lon="5.67919">
        <ele>86.599998474121</ele>
        <time>2016-05-05T13:11:44.000Z</time>
      </trkpt>
      <trkpt lat="43.19315" lon="5.67925">
        <ele>86.599998474121</ele>
        <time>2016-05-05T13:11:45.000Z</time>
      </trkpt>
      <trkpt lat="43.19316" lon="5.67954">
        <ele>85.800003051758</ele>
        <time>2016-05-05T13:11:50.000Z</time>
      </trkpt>
      <trkpt lat="43.19318" lon="5.68018">
        <ele>85</ele>
        <time>2016-05-05T13:12:01.000Z</time>
      </trkpt>
      <trkpt lat="43.1932" lon="5.68066">
        <ele>86</ele>
        <time>2016-05-05T13:12:09.000Z</time>
      </trkpt>
      <trkpt lat="43.19322" lon="5.68092">
        <ele>85.800003051758</ele>
        <time>2016-05-05T13:12:15.000Z</time>
      </trkpt>
      <trkpt lat="43.19321" lon="5.68099">
        <ele>85.599998474121</ele>
        <time>2016-05-05T13:12:18.000Z</time>
      </trkpt>
      <trkpt lat="43.19317" lon="5.68103">
        <ele>85.400001525879</ele>
        <time>2016-05-05T13:12:20.000Z</time>
      </trkpt>
      <trkpt lat="43.193" lon="5.68104">
        <ele>85</ele>
        <time>2016-05-05T13:12:24.000Z</time>
      </trkpt>
      <trkpt lat="43.19264" lon="5.68108">
        <ele>84</ele>
        <time>2016-05-05T13:12:32.000Z</time>
      </trkpt>
      <trkpt lat="43.19243" lon="5.68105">
        <ele>85.599998474121</ele>
        <time>2016-05-05T13:12:38.000Z</time>
      </trkpt>
      <trkpt lat="43.19241" lon="5.68102">
        <ele>85.800003051758</ele>
        <time>2016-05-05T13:12:39.000Z</time>
      </trkpt>
      <trkpt lat="43.19238" lon="5.68087">
        <ele>86</ele>
        <time>2016-05-05T13:12:42.000Z</time>
      </trkpt>
      <trkpt lat="43.19237" lon="5.68042">
        <ele>85.199996948242</ele>
        <time>2016-05-05T13:12:48.000Z</time>
      </trkpt>
      <trkpt lat="43.19236" lon="5.68017">
        <ele>83.400001525879</ele>
        <time>2016-05-05T13:12:51.000Z</time>
      </trkpt>
      <trkpt lat="43.19234" lon="5.67983">
        <ele>82</ele>
        <time>2016-05-05T13:12:55.000Z</time>
      </trkpt>
      <trkpt lat="43.19232" lon="5.67974">
        <ele>81.599998474121</ele>
        <time>2016-05-05T13:12:56.000Z</time>
      </trkpt>
      <trkpt lat="43.19225" lon="5.67949">
        <ele>80.199996948242</ele>
        <time>2016-05-05T13:12:59.000Z</time>
      </trkpt>
      <trkpt lat="43.19222" lon="5.6794">
        <ele>79.800003051758</ele>
        <time>2016-05-05T13:13:00.000Z</time>
      </trkpt>
      <trkpt lat="43.19216" lon="5.67923">
        <ele>78.800003051758</ele>
        <time>2016-05-05T13:13:02.000Z</time>
      </trkpt>
      <trkpt lat="43.19209" lon="5.67905">
        <ele>78.800003051758</ele>
        <time>2016-05-05T13:13:04.000Z</time>
      </trkpt>
      <trkpt lat="43.19202" lon="5.67887">
        <ele>78.599998474121</ele>
        <time>2016-05-05T13:13:06.000Z</time>
      </trkpt>
      <trkpt lat="43.19198" lon="5.67878">
        <ele>78.400001525879</ele>
        <time>2016-05-05T13:13:07.000Z</time>
      </trkpt>
      <trkpt lat="43.19189" lon="5.67861">
        <ele>78</ele>
        <time>2016-05-05T13:13:09.000Z</time>
      </trkpt>
      <trkpt lat="43.19176" lon="5.67838">
        <ele>77.400001525879</ele>
        <time>2016-05-05T13:13:12.000Z</time>
      </trkpt>
      <trkpt lat="43.19153" lon="5.67795">
        <ele>77.599998474121</ele>
        <time>2016-05-05T13:13:18.000Z</time>
      </trkpt>
      <trkpt lat="43.19149" lon="5.67787">
        <ele>78</ele>
        <time>2016-05-05T13:13:19.000Z</time>
      </trkpt>
      <trkpt lat="43.19147" lon="5.67779">
        <ele>78.199996948242</ele>
        <time>2016-05-05T13:13:20.000Z</time>
      </trkpt>
      <trkpt lat="43.19144" lon="5.67762">
        <ele>78.400001525879</ele>
        <time>2016-05-05T13:13:22.000Z</time>
      </trkpt>
      <trkpt lat="43.19144" lon="5.67754">
        <ele>78.199996948242</ele>
        <time>2016-05-05T13:13:23.000Z</time>
      </trkpt>
      <trkpt lat="43.19144" lon="5.67746">
        <ele>77.800003051758</ele>
        <time>2016-05-05T13:13:24.000Z</time>
      </trkpt>
      <trkpt lat="43.19144" lon="5.6772">
        <ele>76.800003051758</ele>
        <time>2016-05-05T13:13:28.000Z</time>
      </trkpt>
      <trkpt lat="43.19142" lon="5.67702">
        <ele>76.599998474121</ele>
        <time>2016-05-05T13:13:31.000Z</time>
      </trkpt>
      <trkpt lat="43.19138" lon="5.67692">
        <ele>76.599998474121</ele>
        <time>2016-05-05T13:13:33.000Z</time>
      </trkpt>
      <trkpt lat="43.19133" lon="5.67682">
        <ele>76.800003051758</ele>
        <time>2016-05-05T13:13:35.000Z</time>
      </trkpt>
      <trkpt lat="43.19121" lon="5.67658">
        <ele>77.400001525879</ele>
        <time>2016-05-05T13:13:39.000Z</time>
      </trkpt>
      <trkpt lat="43.19096" lon="5.67627">
        <ele>77.599998474121</ele>
        <time>2016-05-05T13:13:44.000Z</time>
      </trkpt>
      <trkpt lat="43.19079" lon="5.67606">
        <ele>74.800003051758</ele>
        <time>2016-05-05T13:13:47.000Z</time>
      </trkpt>
      <trkpt lat="43.19073" lon="5.676">
        <ele>74</ele>
        <time>2016-05-05T13:13:48.000Z</time>
      </trkpt>
      <trkpt lat="43.19062" lon="5.67587">
        <ele>72.199996948242</ele>
        <time>2016-05-05T13:13:50.000Z</time>
      </trkpt>
      <trkpt lat="43.19057" lon="5.6758">
        <ele>71.400001525879</ele>
        <time>2016-05-05T13:13:51.000Z</time>
      </trkpt>
      <trkpt lat="43.19052" lon="5.67574">
        <ele>70.599998474121</ele>
        <time>2016-05-05T13:13:52.000Z</time>
      </trkpt>
      <trkpt lat="43.19037" lon="5.67558">
        <ele>68.400001525879</ele>
        <time>2016-05-05T13:13:55.000Z</time>
      </trkpt>
      <trkpt lat="43.19021" lon="5.67541">
        <ele>65.599998474121</ele>
        <time>2016-05-05T13:13:58.000Z</time>
      </trkpt>
      <trkpt lat="43.19009" lon="5.67529">
        <ele>63.400001525879</ele>
        <time>2016-05-05T13:14:00.000Z</time>
      </trkpt>
      <trkpt lat="43.18996" lon="5.67516">
        <ele>60.599998474121</ele>
        <time>2016-05-05T13:14:02.000Z</time>
      </trkpt>
      <trkpt lat="43.1899" lon="5.6751">
        <ele>59.200000762939</ele>
        <time>2016-05-05T13:14:03.000Z</time>
      </trkpt>
      <trkpt lat="43.18984" lon="5.67504">
        <ele>57.799999237061</ele>
        <time>2016-05-05T13:14:04.000Z</time>
      </trkpt>
      <trkpt lat="43.18979" lon="5.67498">
        <ele>56.599998474121</ele>
        <time>2016-05-05T13:14:05.000Z</time>
      </trkpt>
      <trkpt lat="43.18974" lon="5.67492">
        <ele>55.400001525879</ele>
        <time>2016-05-05T13:14:06.000Z</time>
      </trkpt>
      <trkpt lat="43.18969" lon="5.67487">
        <ele>54.200000762939</ele>
        <time>2016-05-05T13:14:07.000Z</time>
      </trkpt>
      <trkpt lat="43.1896" lon="5.67476">
        <ele>52</ele>
        <time>2016-05-05T13:14:09.000Z</time>
      </trkpt>
      <trkpt lat="43.18952" lon="5.67465">
        <ele>50.400001525879</ele>
        <time>2016-05-05T13:14:11.000Z</time>
      </trkpt>
      <trkpt lat="43.18949" lon="5.67459">
        <ele>50</ele>
        <time>2016-05-05T13:14:12.000Z</time>
      </trkpt>
      <trkpt lat="43.18945" lon="5.67452">
        <ele>49.599998474121</ele>
        <time>2016-05-05T13:14:13.000Z</time>
      </trkpt>
      <trkpt lat="43.18939" lon="5.6744">
        <ele>48.799999237061</ele>
        <time>2016-05-05T13:14:15.000Z</time>
      </trkpt>
      <trkpt lat="43.18937" lon="5.67433">
        <ele>48.400001525879</ele>
        <time>2016-05-05T13:14:16.000Z</time>
      </trkpt>
      <trkpt lat="43.18935" lon="5.67426">
        <ele>48</ele>
        <time>2016-05-05T13:14:17.000Z</time>
      </trkpt>
      <trkpt lat="43.18934" lon="5.67418">
        <ele>47.599998474121</ele>
        <time>2016-05-05T13:14:18.000Z</time>
      </trkpt>
      <trkpt lat="43.18934" lon="5.67411">
        <ele>47.200000762939</ele>
        <time>2016-05-05T13:14:19.000Z</time>
      </trkpt>
      <trkpt lat="43.18933" lon="5.67404">
        <ele>47</ele>
        <time>2016-05-05T13:14:20.000Z</time>
      </trkpt>
      <trkpt lat="43.18933" lon="5.67398">
        <ele>46.599998474121</ele>
        <time>2016-05-05T13:14:21.000Z</time>
      </trkpt>
      <trkpt lat="43.18934" lon="5.6739">
        <ele>46.200000762939</ele>
        <time>2016-05-05T13:14:23.000Z</time>
      </trkpt>
      <trkpt lat="43.18934" lon="5.67387">
        <ele>45.799999237061</ele>
        <time>2016-05-05T13:14:24.000Z</time>
      </trkpt>
      <trkpt lat="43.1893" lon="5.67384">
        <ele>45.799999237061</ele>
        <time>2016-05-05T13:14:26.000Z</time>
      </trkpt>
      <trkpt lat="43.18926" lon="5.67382">
        <ele>45.799999237061</ele>
        <time>2016-05-05T13:14:27.000Z</time>
      </trkpt>
      <trkpt lat="43.18922" lon="5.6738">
        <ele>46</ele>
        <time>2016-05-05T13:14:28.000Z</time>
      </trkpt>
      <trkpt lat="43.18917" lon="5.67378">
        <ele>46.599998474121</ele>
        <time>2016-05-05T13:14:29.000Z</time>
      </trkpt>
      <trkpt lat="43.18907" lon="5.67371">
        <ele>47.200000762939</ele>
        <time>2016-05-05T13:14:31.000Z</time>
      </trkpt>
      <trkpt lat="43.18892" lon="5.67358">
        <ele>47.400001525879</ele>
        <time>2016-05-05T13:14:34.000Z</time>
      </trkpt>
      <trkpt lat="43.18887" lon="5.67347">
        <ele>46.400001525879</ele>
        <time>2016-05-05T13:14:36.000Z</time>
      </trkpt>
      <trkpt lat="43.18884" lon="5.67336">
        <ele>45.599998474121</ele>
        <time>2016-05-05T13:14:38.000Z</time>
      </trkpt>
      <trkpt lat="43.18879" lon="5.67313">
        <ele>44.200000762939</ele>
        <time>2016-05-05T13:14:42.000Z</time>
      </trkpt>
      <trkpt lat="43.18878" lon="5.67306">
        <ele>43.799999237061</ele>
        <time>2016-05-05T13:14:43.000Z</time>
      </trkpt>
      <trkpt lat="43.18877" lon="5.67284">
        <ele>41</ele>
        <time>2016-05-05T13:14:46.000Z</time>
      </trkpt>
      <trkpt lat="43.18877" lon="5.6727">
        <ele>39</ele>
        <time>2016-05-05T13:14:48.000Z</time>
      </trkpt>
      <trkpt lat="43.18877" lon="5.67241">
        <ele>36</ele>
        <time>2016-05-05T13:14:52.000Z</time>
      </trkpt>
      <trkpt lat="43.1888" lon="5.67212">
        <ele>35</ele>
        <time>2016-05-05T13:14:56.000Z</time>
      </trkpt>
      <trkpt lat="43.18882" lon="5.67157">
        <ele>33.400001525879</ele>
        <time>2016-05-05T13:15:03.000Z</time>
      </trkpt>
      <trkpt lat="43.18884" lon="5.67116">
        <ele>33.200000762939</ele>
        <time>2016-05-05T13:15:07.000Z</time>
      </trkpt>
      <trkpt lat="43.18886" lon="5.67096">
        <ele>33</ele>
        <time>2016-05-05T13:15:09.000Z</time>
      </trkpt>
      <trkpt lat="43.18886" lon="5.67076">
        <ele>31.799999237061</ele>
        <time>2016-05-05T13:15:11.000Z</time>
      </trkpt>
      <trkpt lat="43.18885" lon="5.67065">
        <ele>31.200000762939</ele>
        <time>2016-05-05T13:15:12.000Z</time>
      </trkpt>
      <trkpt lat="43.18884" lon="5.67055">
        <ele>30.60000038147</ele>
        <time>2016-05-05T13:15:13.000Z</time>
      </trkpt>
      <trkpt lat="43.18883" lon="5.67044">
        <ele>30.200000762939</ele>
        <time>2016-05-05T13:15:14.000Z</time>
      </trkpt>
      <trkpt lat="43.18872" lon="5.66987">
        <ele>28</ele>
        <time>2016-05-05T13:15:19.000Z</time>
      </trkpt>
      <trkpt lat="43.18868" lon="5.66964">
        <ele>27.39999961853</ele>
        <time>2016-05-05T13:15:21.000Z</time>
      </trkpt>
      <trkpt lat="43.18865" lon="5.66942">
        <ele>26.39999961853</ele>
        <time>2016-05-05T13:15:23.000Z</time>
      </trkpt>
      <trkpt lat="43.18862" lon="5.66921">
        <ele>25.60000038147</ele>
        <time>2016-05-05T13:15:25.000Z</time>
      </trkpt>
      <trkpt lat="43.18857" lon="5.66893">
        <ele>24.60000038147</ele>
        <time>2016-05-05T13:15:28.000Z</time>
      </trkpt>
      <trkpt lat="43.18852" lon="5.66859">
        <ele>24.60000038147</ele>
        <time>2016-05-05T13:15:32.000Z</time>
      </trkpt>
      <trkpt lat="43.18848" lon="5.66835">
        <ele>24.799999237061</ele>
        <time>2016-05-05T13:15:35.000Z</time>
      </trkpt>
      <trkpt lat="43.18847" lon="5.66827">
        <ele>24.799999237061</ele>
        <time>2016-05-05T13:15:36.000Z</time>
      </trkpt>
      <trkpt lat="43.1884" lon="5.66767">
        <ele>25</ele>
        <time>2016-05-05T13:15:44.000Z</time>
      </trkpt>
      <trkpt lat="43.18839" lon="5.66737">
        <ele>25</ele>
        <time>2016-05-05T13:15:48.000Z</time>
      </trkpt>
      <trkpt lat="43.18837" lon="5.66701">
        <ele>25.39999961853</ele>
        <time>2016-05-05T13:15:53.000Z</time>
      </trkpt>
      <trkpt lat="43.18827" lon="5.66661">
        <ele>26</ele>
        <time>2016-05-05T13:15:59.000Z</time>
      </trkpt>
      <trkpt lat="43.1881" lon="5.66612">
        <ele>27</ele>
        <time>2016-05-05T13:16:07.000Z</time>
      </trkpt>
      <trkpt lat="43.18794" lon="5.66555">
        <ele>29.39999961853</ele>
        <time>2016-05-05T13:16:16.000Z</time>
      </trkpt>
      <trkpt lat="43.18775" lon="5.66497">
        <ele>29.799999237061</ele>
        <time>2016-05-05T13:16:24.000Z</time>
      </trkpt>
      <trkpt lat="43.18754" lon="5.66426">
        <ele>28.200000762939</ele>
        <time>2016-05-05T13:16:33.000Z</time>
      </trkpt>
      <trkpt lat="43.18753" lon="5.66419">
        <ele>27.799999237061</ele>
        <time>2016-05-05T13:16:34.000Z</time>
      </trkpt>
      <trkpt lat="43.18745" lon="5.664">
        <ele>26.39999961853</ele>
        <time>2016-05-05T13:16:37.000Z</time>
      </trkpt>
      <trkpt lat="43.18741" lon="5.66384">
        <ele>25.60000038147</ele>
        <time>2016-05-05T13:16:39.000Z</time>
      </trkpt>
      <trkpt lat="43.18734" lon="5.66369">
        <ele>25.200000762939</ele>
        <time>2016-05-05T13:16:41.000Z</time>
      </trkpt>
      <trkpt lat="43.18725" lon="5.66355">
        <ele>24.39999961853</ele>
        <time>2016-05-05T13:16:43.000Z</time>
      </trkpt>
      <trkpt lat="43.18715" lon="5.66338">
        <ele>23.60000038147</ele>
        <time>2016-05-05T13:16:45.000Z</time>
      </trkpt>
      <trkpt lat="43.18709" lon="5.66331">
        <ele>23</ele>
        <time>2016-05-05T13:16:46.000Z</time>
      </trkpt>
      <trkpt lat="43.18703" lon="5.66325">
        <ele>22.39999961853</ele>
        <time>2016-05-05T13:16:47.000Z</time>
      </trkpt>
      <trkpt lat="43.18669" lon="5.66288">
        <ele>19.60000038147</ele>
        <time>2016-05-05T13:16:53.000Z</time>
      </trkpt>
      <trkpt lat="43.18665" lon="5.6628">
        <ele>19.39999961853</ele>
        <time>2016-05-05T13:16:54.000Z</time>
      </trkpt>
      <trkpt lat="43.18658" lon="5.66263">
        <ele>19</ele>
        <time>2016-05-05T13:16:56.000Z</time>
      </trkpt>
      <trkpt lat="43.18647" lon="5.66237">
        <ele>18.39999961853</ele>
        <time>2016-05-05T13:16:59.000Z</time>
      </trkpt>
      <trkpt lat="43.18644" lon="5.66228">
        <ele>18.200000762939</ele>
        <time>2016-05-05T13:17:00.000Z</time>
      </trkpt>
      <trkpt lat="43.1864" lon="5.66222">
        <ele>18.200000762939</ele>
        <time>2016-05-05T13:17:01.000Z</time>
      </trkpt>
      <trkpt lat="43.18632" lon="5.66212">
        <ele>17.799999237061</ele>
        <time>2016-05-05T13:17:03.000Z</time>
      </trkpt>
      <trkpt lat="43.18617" lon="5.66202">
        <ele>17.39999961853</ele>
        <time>2016-05-05T13:17:06.000Z</time>
      </trkpt>
      <trkpt lat="43.18613" lon="5.66199">
        <ele>17.200000762939</ele>
        <time>2016-05-05T13:17:07.000Z</time>
      </trkpt>
      <trkpt lat="43.18599" lon="5.66193">
        <ele>16.799999237061</ele>
        <time>2016-05-05T13:17:10.000Z</time>
      </trkpt>
      <trkpt lat="43.18582" lon="5.66191">
        <ele>17.39999961853</ele>
        <time>2016-05-05T13:17:13.000Z</time>
      </trkpt>
      <trkpt lat="43.18576" lon="5.66191">
        <ele>17.799999237061</ele>
        <time>2016-05-05T13:17:14.000Z</time>
      </trkpt>
      <trkpt lat="43.1855" lon="5.66192">
        <ele>18.60000038147</ele>
        <time>2016-05-05T13:17:19.000Z</time>
      </trkpt>
      <trkpt lat="43.18545" lon="5.66184">
        <ele>18.799999237061</ele>
        <time>2016-05-05T13:17:21.000Z</time>
      </trkpt>
      <trkpt lat="43.18543" lon="5.6618">
        <ele>19</ele>
        <time>2016-05-05T13:17:22.000Z</time>
      </trkpt>
      <trkpt lat="43.18541" lon="5.66175">
        <ele>19.200000762939</ele>
        <time>2016-05-05T13:17:23.000Z</time>
      </trkpt>
      <trkpt lat="43.1854" lon="5.66165">
        <ele>19.60000038147</ele>
        <time>2016-05-05T13:17:25.000Z</time>
      </trkpt>
      <trkpt lat="43.18541" lon="5.66154">
        <ele>19.39999961853</ele>
        <time>2016-05-05T13:17:27.000Z</time>
      </trkpt>
      <trkpt lat="43.18543" lon="5.66149">
        <ele>19.200000762939</ele>
        <time>2016-05-05T13:17:28.000Z</time>
      </trkpt>
      <trkpt lat="43.18552" lon="5.6612">
        <ele>20</ele>
        <time>2016-05-05T13:17:33.000Z</time>
      </trkpt>
      <trkpt lat="43.18559" lon="5.66101">
        <ele>21.200000762939</ele>
        <time>2016-05-05T13:17:36.000Z</time>
      </trkpt>
      <trkpt lat="43.18572" lon="5.66062">
        <ele>21.200000762939</ele>
        <time>2016-05-05T13:17:42.000Z</time>
      </trkpt>
      <trkpt lat="43.18574" lon="5.66056">
        <ele>21.200000762939</ele>
        <time>2016-05-05T13:17:43.000Z</time>
      </trkpt>
      <trkpt lat="43.18582" lon="5.66032">
        <ele>20.39999961853</ele>
        <time>2016-05-05T13:17:47.000Z</time>
      </trkpt>
      <trkpt lat="43.18594" lon="5.65996">
        <ele>20.39999961853</ele>
        <time>2016-05-05T13:17:53.000Z</time>
      </trkpt>
      <trkpt lat="43.18603" lon="5.65973">
        <ele>21</ele>
        <time>2016-05-05T13:17:57.000Z</time>
      </trkpt>
      <trkpt lat="43.18609" lon="5.65958">
        <ele>22.200000762939</ele>
        <time>2016-05-05T13:18:01.000Z</time>
      </trkpt>
      <trkpt lat="43.18611" lon="5.65955">
        <ele>22.39999961853</ele>
        <time>2016-05-05T13:19:03.000Z</time>
      </trkpt>
      <trkpt lat="43.18612" lon="5.65953">
        <ele>22.60000038147</ele>
        <time>2016-05-05T13:19:04.000Z</time>
      </trkpt>
      <trkpt lat="43.18619" lon="5.6593">
        <ele>24.39999961853</ele>
        <time>2016-05-05T13:19:09.000Z</time>
      </trkpt>
      <trkpt lat="43.18624" lon="5.65912">
        <ele>25.60000038147</ele>
        <time>2016-05-05T13:19:12.000Z</time>
      </trkpt>
      <trkpt lat="43.18632" lon="5.65882">
        <ele>25.39999961853</ele>
        <time>2016-05-05T13:19:17.000Z</time>
      </trkpt>
      <trkpt lat="43.18638" lon="5.65864">
        <ele>26</ele>
        <time>2016-05-05T13:19:20.000Z</time>
      </trkpt>
      <trkpt lat="43.18652" lon="5.65819">
        <ele>26.39999961853</ele>
        <time>2016-05-05T13:19:27.000Z</time>
      </trkpt>
      <trkpt lat="43.18654" lon="5.65812">
        <ele>26.39999961853</ele>
        <time>2016-05-05T13:19:28.000Z</time>
      </trkpt>
      <trkpt lat="43.18666" lon="5.65774">
        <ele>25.39999961853</ele>
        <time>2016-05-05T13:19:34.000Z</time>
      </trkpt>
      <trkpt lat="43.18674" lon="5.65741">
        <ele>25.799999237061</ele>
        <time>2016-05-05T13:19:39.000Z</time>
      </trkpt>
      <trkpt lat="43.18677" lon="5.65728">
        <ele>26</ele>
        <time>2016-05-05T13:19:41.000Z</time>
      </trkpt>
      <trkpt lat="43.18684" lon="5.65687">
        <ele>26</ele>
        <time>2016-05-05T13:19:47.000Z</time>
      </trkpt>
      <trkpt lat="43.18688" lon="5.65629">
        <ele>26.39999961853</ele>
        <time>2016-05-05T13:19:55.000Z</time>
      </trkpt>
      <trkpt lat="43.18694" lon="5.65555">
        <ele>28.39999961853</ele>
        <time>2016-05-05T13:20:05.000Z</time>
      </trkpt>
      <trkpt lat="43.18694" lon="5.65547">
        <ele>28.60000038147</ele>
        <time>2016-05-05T13:20:06.000Z</time>
      </trkpt>
      <trkpt lat="43.187" lon="5.65474">
        <ele>30.60000038147</ele>
        <time>2016-05-05T13:20:16.000Z</time>
      </trkpt>
      <trkpt lat="43.18712" lon="5.65433">
        <ele>30</ele>
        <time>2016-05-05T13:20:22.000Z</time>
      </trkpt>
      <trkpt lat="43.18717" lon="5.6542">
        <ele>29.799999237061</ele>
        <time>2016-05-05T13:20:24.000Z</time>
      </trkpt>
      <trkpt lat="43.18733" lon="5.65385">
        <ele>28.799999237061</ele>
        <time>2016-05-05T13:20:29.000Z</time>
      </trkpt>
      <trkpt lat="43.18761" lon="5.65346">
        <ele>27.200000762939</ele>
        <time>2016-05-05T13:20:35.000Z</time>
      </trkpt>
      <trkpt lat="43.18791" lon="5.65312">
        <ele>29</ele>
        <time>2016-05-05T13:20:40.000Z</time>
      </trkpt>
      <trkpt lat="43.18797" lon="5.65305">
        <ele>30.60000038147</ele>
        <time>2016-05-05T13:20:41.000Z</time>
      </trkpt>
      <trkpt lat="43.18825" lon="5.65274">
        <ele>32.200000762939</ele>
        <time>2016-05-05T13:20:45.000Z</time>
      </trkpt>
      <trkpt lat="43.18847" lon="5.6525">
        <ele>31</ele>
        <time>2016-05-05T13:20:48.000Z</time>
      </trkpt>
      <trkpt lat="43.18854" lon="5.65241">
        <ele>29.200000762939</ele>
        <time>2016-05-05T13:20:49.000Z</time>
      </trkpt>
      <trkpt lat="43.18861" lon="5.65233">
        <ele>27.799999237061</ele>
        <time>2016-05-05T13:20:50.000Z</time>
      </trkpt>
      <trkpt lat="43.1889" lon="5.65196">
        <ele>26.799999237061</ele>
        <time>2016-05-05T13:20:54.000Z</time>
      </trkpt>
      <trkpt lat="43.18903" lon="5.65175">
        <ele>25</ele>
        <time>2016-05-05T13:20:56.000Z</time>
      </trkpt>
      <trkpt lat="43.18914" lon="5.65153">
        <ele>22</ele>
        <time>2016-05-05T13:20:58.000Z</time>
      </trkpt>
      <trkpt lat="43.1893" lon="5.65119">
        <ele>18</ele>
        <time>2016-05-05T13:21:01.000Z</time>
      </trkpt>
      <trkpt lat="43.18939" lon="5.65097">
        <ele>15.60000038147</ele>
        <time>2016-05-05T13:21:03.000Z</time>
      </trkpt>
      <trkpt lat="43.1895" lon="5.65063">
        <ele>12</ele>
        <time>2016-05-05T13:21:06.000Z</time>
      </trkpt>
      <trkpt lat="43.18952" lon="5.65052">
        <ele>11.199999809265</ele>
        <time>2016-05-05T13:21:07.000Z</time>
      </trkpt>
      <trkpt lat="43.18957" lon="5.65029">
        <ele>10.800000190735</ele>
        <time>2016-05-05T13:21:09.000Z</time>
      </trkpt>
      <trkpt lat="43.18963" lon="5.64987">
        <ele>10.199999809265</ele>
        <time>2016-05-05T13:21:13.000Z</time>
      </trkpt>
      <trkpt lat="43.18965" lon="5.64932">
        <ele>10.199999809265</ele>
        <time>2016-05-05T13:21:19.000Z</time>
      </trkpt>
      <trkpt lat="43.18962" lon="5.64869">
        <ele>11.199999809265</ele>
        <time>2016-05-05T13:21:27.000Z</time>
      </trkpt>
      <trkpt lat="43.18955" lon="5.64815">
        <ele>14.60000038147</ele>
        <time>2016-05-05T13:21:34.000Z</time>
      </trkpt>
      <trkpt lat="43.18949" lon="5.64762">
        <ele>15</ele>
        <time>2016-05-05T13:21:41.000Z</time>
      </trkpt>
      <trkpt lat="43.18946" lon="5.64739">
        <ele>14.800000190735</ele>
        <time>2016-05-05T13:21:44.000Z</time>
      </trkpt>
      <trkpt lat="43.18942" lon="5.64676">
        <ele>15.39999961853</ele>
        <time>2016-05-05T13:21:52.000Z</time>
      </trkpt>
      <trkpt lat="43.18945" lon="5.64596">
        <ele>15.60000038147</ele>
        <time>2016-05-05T13:22:02.000Z</time>
      </trkpt>
      <trkpt lat="43.18945" lon="5.64588">
        <ele>15.60000038147</ele>
        <time>2016-05-05T13:22:03.000Z</time>
      </trkpt>
      <trkpt lat="43.18947" lon="5.64529">
        <ele>14.800000190735</ele>
        <time>2016-05-05T13:22:10.000Z</time>
      </trkpt>
      <trkpt lat="43.18954" lon="5.64473">
        <ele>16</ele>
        <time>2016-05-05T13:22:17.000Z</time>
      </trkpt>
      <trkpt lat="43.18971" lon="5.64409">
        <ele>15</ele>
        <time>2016-05-05T13:22:24.000Z</time>
      </trkpt>
      <trkpt lat="43.18997" lon="5.64343">
        <ele>15.39999961853</ele>
        <time>2016-05-05T13:22:32.000Z</time>
      </trkpt>
      <trkpt lat="43.19009" lon="5.64312">
        <ele>15.199999809265</ele>
        <time>2016-05-05T13:22:36.000Z</time>
      </trkpt>
      <trkpt lat="43.19027" lon="5.64268">
        <ele>15.199999809265</ele>
        <time>2016-05-05T13:22:42.000Z</time>
      </trkpt>
      <trkpt lat="43.19048" lon="5.64213">
        <ele>14.60000038147</ele>
        <time>2016-05-05T13:22:50.000Z</time>
      </trkpt>
      <trkpt lat="43.19069" lon="5.64151">
        <ele>15.800000190735</ele>
        <time>2016-05-05T13:22:59.000Z</time>
      </trkpt>
      <trkpt lat="43.1908" lon="5.64097">
        <ele>15.60000038147</ele>
        <time>2016-05-05T13:23:06.000Z</time>
      </trkpt>
      <trkpt lat="43.19085" lon="5.64086">
        <ele>15.39999961853</ele>
        <time>2016-05-05T13:23:08.000Z</time>
      </trkpt>
      <trkpt lat="43.19089" lon="5.64085">
        <ele>15.60000038147</ele>
        <time>2016-05-05T13:23:09.000Z</time>
      </trkpt>
      <trkpt lat="43.19103" lon="5.64085">
        <ele>16.39999961853</ele>
        <time>2016-05-05T13:23:13.000Z</time>
      </trkpt>
      <trkpt lat="43.19107" lon="5.6408">
        <ele>16.200000762939</ele>
        <time>2016-05-05T13:23:15.000Z</time>
      </trkpt>
      <trkpt lat="43.19111" lon="5.64073">
        <ele>16</ele>
        <time>2016-05-05T13:23:17.000Z</time>
      </trkpt>
      <trkpt lat="43.19114" lon="5.6406">
        <ele>15.800000190735</ele>
        <time>2016-05-05T13:23:20.000Z</time>
      </trkpt>
      <trkpt lat="43.19117" lon="5.64051">
        <ele>15.800000190735</ele>
        <time>2016-05-05T13:23:22.000Z</time>
      </trkpt>
      <trkpt lat="43.19125" lon="5.64015">
        <ele>16.60000038147</ele>
        <time>2016-05-05T13:23:28.000Z</time>
      </trkpt>
      <trkpt lat="43.19128" lon="5.64009">
        <ele>16.799999237061</ele>
        <time>2016-05-05T13:23:29.000Z</time>
      </trkpt>
      <trkpt lat="43.1914" lon="5.63981">
        <ele>18.200000762939</ele>
        <time>2016-05-05T13:23:34.000Z</time>
      </trkpt>
      <trkpt lat="43.19149" lon="5.63961">
        <ele>19.200000762939</ele>
        <time>2016-05-05T13:23:38.000Z</time>
      </trkpt>
      <trkpt lat="43.19155" lon="5.63939">
        <ele>19.799999237061</ele>
        <time>2016-05-05T13:23:42.000Z</time>
      </trkpt>
      <trkpt lat="43.19158" lon="5.63919">
        <ele>20</ele>
        <time>2016-05-05T13:23:45.000Z</time>
      </trkpt>
      <trkpt lat="43.19161" lon="5.6389">
        <ele>20.39999961853</ele>
        <time>2016-05-05T13:23:49.000Z</time>
      </trkpt>
      <trkpt lat="43.19162" lon="5.63883">
        <ele>20.39999961853</ele>
        <time>2016-05-05T13:23:50.000Z</time>
      </trkpt>
      <trkpt lat="43.19163" lon="5.63869">
        <ele>20.60000038147</ele>
        <time>2016-05-05T13:23:52.000Z</time>
      </trkpt>
      <trkpt lat="43.19164" lon="5.63847">
        <ele>21.799999237061</ele>
        <time>2016-05-05T13:23:55.000Z</time>
      </trkpt>
      <trkpt lat="43.19166" lon="5.6384">
        <ele>22.39999961853</ele>
        <time>2016-05-05T13:23:56.000Z</time>
      </trkpt>
      <trkpt lat="43.19173" lon="5.63819">
        <ele>24.39999961853</ele>
        <time>2016-05-05T13:23:59.000Z</time>
      </trkpt>
      <trkpt lat="43.19181" lon="5.63802">
        <ele>26.200000762939</ele>
        <time>2016-05-05T13:24:02.000Z</time>
      </trkpt>
      <trkpt lat="43.19183" lon="5.63795">
        <ele>26.39999961853</ele>
        <time>2016-05-05T13:24:03.000Z</time>
      </trkpt>
      <trkpt lat="43.19193" lon="5.63771">
        <ele>27</ele>
        <time>2016-05-05T13:24:07.000Z</time>
      </trkpt>
      <trkpt lat="43.19198" lon="5.63758">
        <ele>27.39999961853</ele>
        <time>2016-05-05T13:24:09.000Z</time>
      </trkpt>
      <trkpt lat="43.19201" lon="5.63751">
        <ele>27.60000038147</ele>
        <time>2016-05-05T13:24:10.000Z</time>
      </trkpt>
      <trkpt lat="43.19206" lon="5.63738">
        <ele>28.200000762939</ele>
        <time>2016-05-05T13:24:12.000Z</time>
      </trkpt>
      <trkpt lat="43.19218" lon="5.63704">
        <ele>29.60000038147</ele>
        <time>2016-05-05T13:24:17.000Z</time>
      </trkpt>
      <trkpt lat="43.19221" lon="5.63697">
        <ele>29.799999237061</ele>
        <time>2016-05-05T13:24:18.000Z</time>
      </trkpt>
      <trkpt lat="43.19228" lon="5.63676">
        <ele>30.39999961853</ele>
        <time>2016-05-05T13:24:21.000Z</time>
      </trkpt>
      <trkpt lat="43.19234" lon="5.63645">
        <ele>31.60000038147</ele>
        <time>2016-05-05T13:24:25.000Z</time>
      </trkpt>
      <trkpt lat="43.19235" lon="5.63637">
        <ele>31.799999237061</ele>
        <time>2016-05-05T13:24:26.000Z</time>
      </trkpt>
      <trkpt lat="43.1924" lon="5.63615">
        <ele>33.400001525879</ele>
        <time>2016-05-05T13:24:29.000Z</time>
      </trkpt>
      <trkpt lat="43.19248" lon="5.63586">
        <ele>34</ele>
        <time>2016-05-05T13:24:33.000Z</time>
      </trkpt>
      <trkpt lat="43.1925" lon="5.63579">
        <ele>34.200000762939</ele>
        <time>2016-05-05T13:24:34.000Z</time>
      </trkpt>
      <trkpt lat="43.19254" lon="5.63566">
        <ele>34.400001525879</ele>
        <time>2016-05-05T13:24:36.000Z</time>
      </trkpt>
      <trkpt lat="43.19258" lon="5.63553">
        <ele>34.799999237061</ele>
        <time>2016-05-05T13:24:38.000Z</time>
      </trkpt>
      <trkpt lat="43.19263" lon="5.63534">
        <ele>35.599998474121</ele>
        <time>2016-05-05T13:24:41.000Z</time>
      </trkpt>
      <trkpt lat="43.19265" lon="5.63528">
        <ele>36</ele>
        <time>2016-05-05T13:24:42.000Z</time>
      </trkpt>
      <trkpt lat="43.19268" lon="5.63522">
        <ele>36.400001525879</ele>
        <time>2016-05-05T13:24:43.000Z</time>
      </trkpt>
      <trkpt lat="43.19276" lon="5.63505">
        <ele>37.799999237061</ele>
        <time>2016-05-05T13:24:46.000Z</time>
      </trkpt>
      <trkpt lat="43.1928" lon="5.63499">
        <ele>38.200000762939</ele>
        <time>2016-05-05T13:24:47.000Z</time>
      </trkpt>
      <trkpt lat="43.19291" lon="5.63482">
        <ele>39</ele>
        <time>2016-05-05T13:24:50.000Z</time>
      </trkpt>
      <trkpt lat="43.19303" lon="5.63467">
        <ele>39.599998474121</ele>
        <time>2016-05-05T13:24:53.000Z</time>
      </trkpt>
      <trkpt lat="43.19323" lon="5.63452">
        <ele>40.799999237061</ele>
        <time>2016-05-05T13:24:57.000Z</time>
      </trkpt>
      <trkpt lat="43.19328" lon="5.63452">
        <ele>41.200000762939</ele>
        <time>2016-05-05T13:24:58.000Z</time>
      </trkpt>
      <trkpt lat="43.19344" lon="5.63453">
        <ele>41</ele>
        <time>2016-05-05T13:25:01.000Z</time>
      </trkpt>
      <trkpt lat="43.19355" lon="5.63454">
        <ele>41.799999237061</ele>
        <time>2016-05-05T13:25:03.000Z</time>
      </trkpt>
      <trkpt lat="43.19388" lon="5.63461">
        <ele>44.200000762939</ele>
        <time>2016-05-05T13:25:09.000Z</time>
      </trkpt>
      <trkpt lat="43.19399" lon="5.63464">
        <ele>45</ele>
        <time>2016-05-05T13:25:11.000Z</time>
      </trkpt>
      <trkpt lat="43.19433" lon="5.6347">
        <ele>47.400001525879</ele>
        <time>2016-05-05T13:25:17.000Z</time>
      </trkpt>
      <trkpt lat="43.19465" lon="5.63467">
        <ele>49.400001525879</ele>
        <time>2016-05-05T13:25:23.000Z</time>
      </trkpt>
      <trkpt lat="43.1947" lon="5.63463">
        <ele>49.400001525879</ele>
        <time>2016-05-05T13:25:24.000Z</time>
      </trkpt>
      <trkpt lat="43.19485" lon="5.63447">
        <ele>49.200000762939</ele>
        <time>2016-05-05T13:25:27.000Z</time>
      </trkpt>
      <trkpt lat="43.1949" lon="5.63442">
        <ele>49</ele>
        <time>2016-05-05T13:25:28.000Z</time>
      </trkpt>
      <trkpt lat="43.19504" lon="5.63425">
        <ele>47.799999237061</ele>
        <time>2016-05-05T13:25:31.000Z</time>
      </trkpt>
      <trkpt lat="43.19518" lon="5.63412">
        <ele>47.400001525879</ele>
        <time>2016-05-05T13:25:34.000Z</time>
      </trkpt>
      <trkpt lat="43.19528" lon="5.63404">
        <ele>47.400001525879</ele>
        <time>2016-05-05T13:25:36.000Z</time>
      </trkpt>
      <trkpt lat="43.19561" lon="5.63385">
        <ele>49.400001525879</ele>
        <time>2016-05-05T13:25:42.000Z</time>
      </trkpt>
      <trkpt lat="43.19572" lon="5.63379">
        <ele>50.200000762939</ele>
        <time>2016-05-05T13:25:44.000Z</time>
      </trkpt>
      <trkpt lat="43.19602" lon="5.6336">
        <ele>50.200000762939</ele>
        <time>2016-05-05T13:25:50.000Z</time>
      </trkpt>
      <trkpt lat="43.19612" lon="5.63355">
        <ele>50.200000762939</ele>
        <time>2016-05-05T13:25:52.000Z</time>
      </trkpt>
      <trkpt lat="43.19632" lon="5.63344">
        <ele>50.200000762939</ele>
        <time>2016-05-05T13:25:56.000Z</time>
      </trkpt>
      <trkpt lat="43.19642" lon="5.63341">
        <ele>50.400001525879</ele>
        <time>2016-05-05T13:25:58.000Z</time>
      </trkpt>
      <trkpt lat="43.19653" lon="5.6334">
        <ele>50.799999237061</ele>
        <time>2016-05-05T13:26:00.000Z</time>
      </trkpt>
      <trkpt lat="43.1968" lon="5.63342">
        <ele>52.400001525879</ele>
        <time>2016-05-05T13:26:05.000Z</time>
      </trkpt>
      <trkpt lat="43.19691" lon="5.63343">
        <ele>53.799999237061</ele>
        <time>2016-05-05T13:26:07.000Z</time>
      </trkpt>
      <trkpt lat="43.19707" lon="5.63343">
        <ele>55.400001525879</ele>
        <time>2016-05-05T13:26:10.000Z</time>
      </trkpt>
      <trkpt lat="43.19728" lon="5.63342">
        <ele>57</ele>
        <time>2016-05-05T13:26:14.000Z</time>
      </trkpt>
      <trkpt lat="43.19749" lon="5.63335">
        <ele>56.599998474121</ele>
        <time>2016-05-05T13:26:18.000Z</time>
      </trkpt>
      <trkpt lat="43.19759" lon="5.63329">
        <ele>55.599998474121</ele>
        <time>2016-05-05T13:26:20.000Z</time>
      </trkpt>
      <trkpt lat="43.19788" lon="5.63309">
        <ele>54.400001525879</ele>
        <time>2016-05-05T13:26:26.000Z</time>
      </trkpt>
      <trkpt lat="43.19792" lon="5.63306">
        <ele>54.400001525879</ele>
        <time>2016-05-05T13:26:27.000Z</time>
      </trkpt>
      <trkpt lat="43.19806" lon="5.63295">
        <ele>54.799999237061</ele>
        <time>2016-05-05T13:26:32.000Z</time>
      </trkpt>
      <trkpt lat="43.19807" lon="5.63294">
        <ele>55</ele>
        <time>2016-05-05T13:26:33.000Z</time>
      </trkpt>
      <trkpt lat="43.19816" lon="5.6329">
        <ele>56</ele>
        <time>2016-05-05T13:28:10.000Z</time>
      </trkpt>
      <trkpt lat="43.1982" lon="5.63291">
        <ele>56.400001525879</ele>
        <time>2016-05-05T13:28:12.000Z</time>
      </trkpt>
      <trkpt lat="43.19825" lon="5.63303">
        <ele>57.799999237061</ele>
        <time>2016-05-05T13:28:15.000Z</time>
      </trkpt>
      <trkpt lat="43.19834" lon="5.63316">
        <ele>61.400001525879</ele>
        <time>2016-05-05T13:28:18.000Z</time>
      </trkpt>
      <trkpt lat="43.19837" lon="5.6332">
        <ele>62.599998474121</ele>
        <time>2016-05-05T13:28:19.000Z</time>
      </trkpt>
      <trkpt lat="43.19844" lon="5.63327">
        <ele>65</ele>
        <time>2016-05-05T13:28:21.000Z</time>
      </trkpt>
      <trkpt lat="43.19854" lon="5.63338">
        <ele>67.199996948242</ele>
        <time>2016-05-05T13:28:24.000Z</time>
      </trkpt>
      <trkpt lat="43.19867" lon="5.63342">
        <ele>67.800003051758</ele>
        <time>2016-05-05T13:28:27.000Z</time>
      </trkpt>
      <trkpt lat="43.19877" lon="5.6334">
        <ele>67.199996948242</ele>
        <time>2016-05-05T13:28:29.000Z</time>
      </trkpt>
      <trkpt lat="43.19886" lon="5.63336">
        <ele>66.800003051758</ele>
        <time>2016-05-05T13:28:31.000Z</time>
      </trkpt>
      <trkpt lat="43.19891" lon="5.63334">
        <ele>66.800003051758</ele>
        <time>2016-05-05T13:28:32.000Z</time>
      </trkpt>
      <trkpt lat="43.19905" lon="5.63327">
        <ele>66.400001525879</ele>
        <time>2016-05-05T13:28:35.000Z</time>
      </trkpt>
      <trkpt lat="43.19924" lon="5.6332">
        <ele>66.400001525879</ele>
        <time>2016-05-05T13:28:39.000Z</time>
      </trkpt>
      <trkpt lat="43.19929" lon="5.63319">
        <ele>66.400001525879</ele>
        <time>2016-05-05T13:28:40.000Z</time>
      </trkpt>
      <trkpt lat="43.19947" lon="5.63313">
        <ele>65</ele>
        <time>2016-05-05T13:28:44.000Z</time>
      </trkpt>
      <trkpt lat="43.19956" lon="5.63313">
        <ele>65</ele>
        <time>2016-05-05T13:28:46.000Z</time>
      </trkpt>
      <trkpt lat="43.1998" lon="5.6331">
        <ele>64.800003051758</ele>
        <time>2016-05-05T13:28:51.000Z</time>
      </trkpt>
      <trkpt lat="43.19988" lon="5.63311">
        <ele>64.800003051758</ele>
        <time>2016-05-05T13:28:53.000Z</time>
      </trkpt>
      <trkpt lat="43.2" lon="5.63313">
        <ele>65</ele>
        <time>2016-05-05T13:28:56.000Z</time>
      </trkpt>
      <trkpt lat="43.20017" lon="5.63315">
        <ele>65.599998474121</ele>
        <time>2016-05-05T13:29:00.000Z</time>
      </trkpt>
      <trkpt lat="43.20021" lon="5.63316">
        <ele>66</ele>
        <time>2016-05-05T13:29:01.000Z</time>
      </trkpt>
      <trkpt lat="43.20034" lon="5.63318">
        <ele>66.800003051758</ele>
        <time>2016-05-05T13:29:04.000Z</time>
      </trkpt>
      <trkpt lat="43.20043" lon="5.6332">
        <ele>67.599998474121</ele>
        <time>2016-05-05T13:29:06.000Z</time>
      </trkpt>
      <trkpt lat="43.20047" lon="5.63321">
        <ele>68</ele>
        <time>2016-05-05T13:29:07.000Z</time>
      </trkpt>
      <trkpt lat="43.20059" lon="5.63325">
        <ele>69</ele>
        <time>2016-05-05T13:29:10.000Z</time>
      </trkpt>
      <trkpt lat="43.2007" lon="5.6333">
        <ele>70.199996948242</ele>
        <time>2016-05-05T13:29:13.000Z</time>
      </trkpt>
      <trkpt lat="43.20081" lon="5.63335">
        <ele>71.400001525879</ele>
        <time>2016-05-05T13:29:16.000Z</time>
      </trkpt>
      <trkpt lat="43.20093" lon="5.63337">
        <ele>72.199996948242</ele>
        <time>2016-05-05T13:29:19.000Z</time>
      </trkpt>
      <trkpt lat="43.20097" lon="5.63337">
        <ele>72.400001525879</ele>
        <time>2016-05-05T13:29:20.000Z</time>
      </trkpt>
      <trkpt lat="43.20105" lon="5.63335">
        <ele>72.800003051758</ele>
        <time>2016-05-05T13:29:22.000Z</time>
      </trkpt>
      <trkpt lat="43.20118" lon="5.63329">
        <ele>73.199996948242</ele>
        <time>2016-05-05T13:29:25.000Z</time>
      </trkpt>
      <trkpt lat="43.20122" lon="5.63327">
        <ele>73.400001525879</ele>
        <time>2016-05-05T13:29:26.000Z</time>
      </trkpt>
      <trkpt lat="43.20131" lon="5.63322">
        <ele>74.199996948242</ele>
        <time>2016-05-05T13:29:28.000Z</time>
      </trkpt>
      <trkpt lat="43.20158" lon="5.63308">
        <ele>76.800003051758</ele>
        <time>2016-05-05T13:29:34.000Z</time>
      </trkpt>
      <trkpt lat="43.20162" lon="5.63305">
        <ele>77.199996948242</ele>
        <time>2016-05-05T13:29:35.000Z</time>
      </trkpt>
      <trkpt lat="43.20184" lon="5.63294">
        <ele>78.599998474121</ele>
        <time>2016-05-05T13:29:40.000Z</time>
      </trkpt>
      <trkpt lat="43.20202" lon="5.63285">
        <ele>79.199996948242</ele>
        <time>2016-05-05T13:29:44.000Z</time>
      </trkpt>
      <trkpt lat="43.20214" lon="5.63277">
        <ele>79.400001525879</ele>
        <time>2016-05-05T13:29:47.000Z</time>
      </trkpt>
      <trkpt lat="43.2023" lon="5.63267">
        <ele>79.800003051758</ele>
        <time>2016-05-05T13:29:51.000Z</time>
      </trkpt>
      <trkpt lat="43.20234" lon="5.63265">
        <ele>79.800003051758</ele>
        <time>2016-05-05T13:29:52.000Z</time>
      </trkpt>
      <trkpt lat="43.20243" lon="5.6326">
        <ele>80</ele>
        <time>2016-05-05T13:29:54.000Z</time>
      </trkpt>
      <trkpt lat="43.20247" lon="5.63258">
        <ele>80.199996948242</ele>
        <time>2016-05-05T13:29:55.000Z</time>
      </trkpt>
      <trkpt lat="43.20256" lon="5.63256">
        <ele>80.599998474121</ele>
        <time>2016-05-05T13:29:57.000Z</time>
      </trkpt>
      <trkpt lat="43.2026" lon="5.63257">
        <ele>81</ele>
        <time>2016-05-05T13:29:58.000Z</time>
      </trkpt>
      <trkpt lat="43.20268" lon="5.63264">
        <ele>82.199996948242</ele>
        <time>2016-05-05T13:30:00.000Z</time>
      </trkpt>
      <trkpt lat="43.20272" lon="5.63268">
        <ele>83</ele>
        <time>2016-05-05T13:30:01.000Z</time>
      </trkpt>
      <trkpt lat="43.20275" lon="5.63273">
        <ele>83.599998474121</ele>
        <time>2016-05-05T13:30:02.000Z</time>
      </trkpt>
      <trkpt lat="43.20277" lon="5.63278">
        <ele>84.199996948242</ele>
        <time>2016-05-05T13:30:03.000Z</time>
      </trkpt>
      <trkpt lat="43.20283" lon="5.63287">
        <ele>85.400001525879</ele>
        <time>2016-05-05T13:30:05.000Z</time>
      </trkpt>
      <trkpt lat="43.20286" lon="5.63291">
        <ele>86.199996948242</ele>
        <time>2016-05-05T13:30:06.000Z</time>
      </trkpt>
      <trkpt lat="43.20293" lon="5.63299">
        <ele>87.400001525879</ele>
        <time>2016-05-05T13:30:08.000Z</time>
      </trkpt>
      <trkpt lat="43.20296" lon="5.63303">
        <ele>88</ele>
        <time>2016-05-05T13:30:09.000Z</time>
      </trkpt>
      <trkpt lat="43.20299" lon="5.63307">
        <ele>88.800003051758</ele>
        <time>2016-05-05T13:30:10.000Z</time>
      </trkpt>
      <trkpt lat="43.20311" lon="5.63314">
        <ele>90.800003051758</ele>
        <time>2016-05-05T13:30:13.000Z</time>
      </trkpt>
      <trkpt lat="43.20331" lon="5.63306">
        <ele>91.400001525879</ele>
        <time>2016-05-05T13:30:18.000Z</time>
      </trkpt>
      <trkpt lat="43.20335" lon="5.63304">
        <ele>91.400001525879</ele>
        <time>2016-05-05T13:30:19.000Z</time>
      </trkpt>
      <trkpt lat="43.20348" lon="5.63295">
        <ele>91.199996948242</ele>
        <time>2016-05-05T13:30:22.000Z</time>
      </trkpt>
      <trkpt lat="43.20362" lon="5.63288">
        <ele>91.199996948242</ele>
        <time>2016-05-05T13:30:25.000Z</time>
      </trkpt>
      <trkpt lat="43.20367" lon="5.63286">
        <ele>91.400001525879</ele>
        <time>2016-05-05T13:30:26.000Z</time>
      </trkpt>
      <trkpt lat="43.20389" lon="5.63281">
        <ele>92.599998474121</ele>
        <time>2016-05-05T13:30:31.000Z</time>
      </trkpt>
      <trkpt lat="43.20393" lon="5.63281">
        <ele>93</ele>
        <time>2016-05-05T13:30:32.000Z</time>
      </trkpt>
      <trkpt lat="43.20409" lon="5.63277">
        <ele>93.599998474121</ele>
        <time>2016-05-05T13:30:36.000Z</time>
      </trkpt>
      <trkpt lat="43.20419" lon="5.63274">
        <ele>93.199996948242</ele>
        <time>2016-05-05T13:30:38.000Z</time>
      </trkpt>
      <trkpt lat="43.20448" lon="5.63263">
        <ele>92.599998474121</ele>
        <time>2016-05-05T13:30:43.000Z</time>
      </trkpt>
      <trkpt lat="43.20454" lon="5.6326">
        <ele>92.400001525879</ele>
        <time>2016-05-05T13:30:44.000Z</time>
      </trkpt>
      <trkpt lat="43.20466" lon="5.63255">
        <ele>92.199996948242</ele>
        <time>2016-05-05T13:30:46.000Z</time>
      </trkpt>
      <trkpt lat="43.2049" lon="5.63246">
        <ele>89.800003051758</ele>
        <time>2016-05-05T13:30:49.000Z</time>
      </trkpt>
      <trkpt lat="43.20499" lon="5.63242">
        <ele>89</ele>
        <time>2016-05-05T13:30:50.000Z</time>
      </trkpt>
      <trkpt lat="43.20526" lon="5.63231">
        <ele>85</ele>
        <time>2016-05-05T13:30:53.000Z</time>
      </trkpt>
      <trkpt lat="43.20536" lon="5.63227">
        <ele>83.400001525879</ele>
        <time>2016-05-05T13:30:54.000Z</time>
      </trkpt>
      <trkpt lat="43.20545" lon="5.63223">
        <ele>81.800003051758</ele>
        <time>2016-05-05T13:30:55.000Z</time>
      </trkpt>
      <trkpt lat="43.20564" lon="5.63215">
        <ele>78.800003051758</ele>
        <time>2016-05-05T13:30:57.000Z</time>
      </trkpt>
      <trkpt lat="43.20573" lon="5.6321">
        <ele>77.599998474121</ele>
        <time>2016-05-05T13:30:58.000Z</time>
      </trkpt>
      <trkpt lat="43.20582" lon="5.63206">
        <ele>76.400001525879</ele>
        <time>2016-05-05T13:30:59.000Z</time>
      </trkpt>
      <trkpt lat="43.20591" lon="5.632">
        <ele>75.400001525879</ele>
        <time>2016-05-05T13:31:00.000Z</time>
      </trkpt>
      <trkpt lat="43.206" lon="5.63195">
        <ele>74.400001525879</ele>
        <time>2016-05-05T13:31:01.000Z</time>
      </trkpt>
      <trkpt lat="43.20609" lon="5.6319">
        <ele>73.199996948242</ele>
        <time>2016-05-05T13:31:02.000Z</time>
      </trkpt>
      <trkpt lat="43.20618" lon="5.63185">
        <ele>72</ele>
        <time>2016-05-05T13:31:03.000Z</time>
      </trkpt>
      <trkpt lat="43.20638" lon="5.63175">
        <ele>69.800003051758</ele>
        <time>2016-05-05T13:31:05.000Z</time>
      </trkpt>
      <trkpt lat="43.20657" lon="5.63166">
        <ele>68.800003051758</ele>
        <time>2016-05-05T13:31:07.000Z</time>
      </trkpt>
      <trkpt lat="43.20667" lon="5.63162">
        <ele>68.599998474121</ele>
        <time>2016-05-05T13:31:08.000Z</time>
      </trkpt>
      <trkpt lat="43.20676" lon="5.63158">
        <ele>68.199996948242</ele>
        <time>2016-05-05T13:31:09.000Z</time>
      </trkpt>
      <trkpt lat="43.20692" lon="5.63147">
        <ele>66.400001525879</ele>
        <time>2016-05-05T13:31:11.000Z</time>
      </trkpt>
      <trkpt lat="43.20707" lon="5.63137">
        <ele>66</ele>
        <time>2016-05-05T13:31:13.000Z</time>
      </trkpt>
      <trkpt lat="43.20727" lon="5.63123">
        <ele>65</ele>
        <time>2016-05-05T13:31:16.000Z</time>
      </trkpt>
      <trkpt lat="43.20739" lon="5.63115">
        <ele>64.199996948242</ele>
        <time>2016-05-05T13:31:18.000Z</time>
      </trkpt>
      <trkpt lat="43.20765" lon="5.63096">
        <ele>66.800003051758</ele>
        <time>2016-05-05T13:31:23.000Z</time>
      </trkpt>
      <trkpt lat="43.20775" lon="5.63087">
        <ele>67.599998474121</ele>
        <time>2016-05-05T13:31:25.000Z</time>
      </trkpt>
      <trkpt lat="43.20812" lon="5.63047">
        <ele>68</ele>
        <time>2016-05-05T13:31:34.000Z</time>
      </trkpt>
      <trkpt lat="43.20844" lon="5.63011">
        <ele>67.400001525879</ele>
        <time>2016-05-05T13:31:42.000Z</time>
      </trkpt>
      <trkpt lat="43.20874" lon="5.62974">
        <ele>66.800003051758</ele>
        <time>2016-05-05T13:31:50.000Z</time>
      </trkpt>
      <trkpt lat="43.20902" lon="5.62933">
        <ele>65.199996948242</ele>
        <time>2016-05-05T13:31:58.000Z</time>
      </trkpt>
      <trkpt lat="43.20924" lon="5.62896">
        <ele>65.800003051758</ele>
        <time>2016-05-05T13:32:05.000Z</time>
      </trkpt>
      <trkpt lat="43.20932" lon="5.62881">
        <ele>66</ele>
        <time>2016-05-05T13:32:08.000Z</time>
      </trkpt>
      <trkpt lat="43.20939" lon="5.6287">
        <ele>66</ele>
        <time>2016-05-05T13:32:11.000Z</time>
      </trkpt>
      <trkpt lat="43.20943" lon="5.62869">
        <ele>66</ele>
        <time>2016-05-05T13:32:12.000Z</time>
      </trkpt>
      <trkpt lat="43.20955" lon="5.62865">
        <ele>66</ele>
        <time>2016-05-05T13:32:15.000Z</time>
      </trkpt>
      <trkpt lat="43.20965" lon="5.62869">
        <ele>66</ele>
        <time>2016-05-05T13:32:17.000Z</time>
      </trkpt>
      <trkpt lat="43.21" lon="5.62885">
        <ele>66</ele>
        <time>2016-05-05T13:32:24.000Z</time>
      </trkpt>
      <trkpt lat="43.21047" lon="5.62891">
        <ele>64.800003051758</ele>
        <time>2016-05-05T13:32:33.000Z</time>
      </trkpt>
      <trkpt lat="43.21099" lon="5.6289">
        <ele>64</ele>
        <time>2016-05-05T13:32:43.000Z</time>
      </trkpt>
      <trkpt lat="43.21109" lon="5.62891">
        <ele>64.800003051758</ele>
        <time>2016-05-05T13:32:45.000Z</time>
      </trkpt>
      <trkpt lat="43.2114" lon="5.62897">
        <ele>67.199996948242</ele>
        <time>2016-05-05T13:32:51.000Z</time>
      </trkpt>
      <trkpt lat="43.2115" lon="5.62901">
        <ele>67.800003051758</ele>
        <time>2016-05-05T13:32:53.000Z</time>
      </trkpt>
      <trkpt lat="43.2116" lon="5.62905">
        <ele>68.400001525879</ele>
        <time>2016-05-05T13:32:55.000Z</time>
      </trkpt>
      <trkpt lat="43.21199" lon="5.62925">
        <ele>69.599998474121</ele>
        <time>2016-05-05T13:33:03.000Z</time>
      </trkpt>
      <trkpt lat="43.21205" lon="5.62929">
        <ele>69.800003051758</ele>
        <time>2016-05-05T13:33:06.000Z</time>
      </trkpt>
      <trkpt lat="43.21211" lon="5.62932">
        <ele>69.800003051758</ele>
        <time>2016-05-05T13:36:20.000Z</time>
      </trkpt>
      <trkpt lat="43.21215" lon="5.62934">
        <ele>70</ele>
        <time>2016-05-05T13:36:22.000Z</time>
      </trkpt>
      <trkpt lat="43.21234" lon="5.62943">
        <ele>70.599998474121</ele>
        <time>2016-05-05T13:36:27.000Z</time>
      </trkpt>
      <trkpt lat="43.21259" lon="5.62955">
        <ele>71</ele>
        <time>2016-05-05T13:36:33.000Z</time>
      </trkpt>
      <trkpt lat="43.21267" lon="5.62959">
        <ele>71</ele>
        <time>2016-05-05T13:36:35.000Z</time>
      </trkpt>
      <trkpt lat="43.21279" lon="5.62965">
        <ele>71</ele>
        <time>2016-05-05T13:36:38.000Z</time>
      </trkpt>
      <trkpt lat="43.21302" lon="5.62977">
        <ele>71.599998474121</ele>
        <time>2016-05-05T13:36:43.000Z</time>
      </trkpt>
      <trkpt lat="43.21307" lon="5.62981">
        <ele>71.800003051758</ele>
        <time>2016-05-05T13:36:44.000Z</time>
      </trkpt>
      <trkpt lat="43.21328" lon="5.63009">
        <ele>73.400001525879</ele>
        <time>2016-05-05T13:36:50.000Z</time>
      </trkpt>
      <trkpt lat="43.21359" lon="5.63053">
        <ele>75</ele>
        <time>2016-05-05T13:36:59.000Z</time>
      </trkpt>
      <trkpt lat="43.21381" lon="5.63084">
        <ele>76.800003051758</ele>
        <time>2016-05-05T13:37:06.000Z</time>
      </trkpt>
      <trkpt lat="43.21384" lon="5.63088">
        <ele>77.199996948242</ele>
        <time>2016-05-05T13:37:07.000Z</time>
      </trkpt>
      <trkpt lat="43.21393" lon="5.63101">
        <ele>78</ele>
        <time>2016-05-05T13:37:10.000Z</time>
      </trkpt>
      <trkpt lat="43.21404" lon="5.63118">
        <ele>79.199996948242</ele>
        <time>2016-05-05T13:37:14.000Z</time>
      </trkpt>
      <trkpt lat="43.21422" lon="5.63143">
        <ele>80.599998474121</ele>
        <time>2016-05-05T13:37:20.000Z</time>
      </trkpt>
      <trkpt lat="43.21435" lon="5.6316">
        <ele>81.599998474121</ele>
        <time>2016-05-05T13:37:24.000Z</time>
      </trkpt>
      <trkpt lat="43.21446" lon="5.63176">
        <ele>82.800003051758</ele>
        <time>2016-05-05T13:37:28.000Z</time>
      </trkpt>
      <trkpt lat="43.21461" lon="5.63198">
        <ele>84.599998474121</ele>
        <time>2016-05-05T13:37:33.000Z</time>
      </trkpt>
      <trkpt lat="43.21469" lon="5.6321">
        <ele>85.400001525879</ele>
        <time>2016-05-05T13:37:36.000Z</time>
      </trkpt>
      <trkpt lat="43.21478" lon="5.63222">
        <ele>86.400001525879</ele>
        <time>2016-05-05T13:37:39.000Z</time>
      </trkpt>
      <trkpt lat="43.21487" lon="5.63233">
        <ele>87.199996948242</ele>
        <time>2016-05-05T13:37:42.000Z</time>
      </trkpt>
      <trkpt lat="43.21491" lon="5.63236">
        <ele>87.599998474121</ele>
        <time>2016-05-05T13:37:43.000Z</time>
      </trkpt>
      <trkpt lat="43.21494" lon="5.63239">
        <ele>87.800003051758</ele>
        <time>2016-05-05T13:37:44.000Z</time>
      </trkpt>
      <trkpt lat="43.21512" lon="5.63251">
        <ele>89</ele>
        <time>2016-05-05T13:37:49.000Z</time>
      </trkpt>
      <trkpt lat="43.21524" lon="5.63257">
        <ele>89.800003051758</ele>
        <time>2016-05-05T13:37:52.000Z</time>
      </trkpt>
      <trkpt lat="43.21527" lon="5.6326">
        <ele>90.199996948242</ele>
        <time>2016-05-05T13:37:53.000Z</time>
      </trkpt>
      <trkpt lat="43.21538" lon="5.63267">
        <ele>91.199996948242</ele>
        <time>2016-05-05T13:37:56.000Z</time>
      </trkpt>
      <trkpt lat="43.21553" lon="5.63277">
        <ele>92.400001525879</ele>
        <time>2016-05-05T13:38:00.000Z</time>
      </trkpt>
      <trkpt lat="43.2156" lon="5.63282">
        <ele>93</ele>
        <time>2016-05-05T13:38:02.000Z</time>
      </trkpt>
      <trkpt lat="43.21563" lon="5.63284">
        <ele>93.400001525879</ele>
        <time>2016-05-05T13:38:03.000Z</time>
      </trkpt>
      <trkpt lat="43.21577" lon="5.63297">
        <ele>94.800003051758</ele>
        <time>2016-05-05T13:38:07.000Z</time>
      </trkpt>
      <trkpt lat="43.21583" lon="5.63305">
        <ele>95.599998474121</ele>
        <time>2016-05-05T13:38:09.000Z</time>
      </trkpt>
      <trkpt lat="43.21586" lon="5.63309">
        <ele>96</ele>
        <time>2016-05-05T13:38:10.000Z</time>
      </trkpt>
      <trkpt lat="43.21596" lon="5.63327">
        <ele>97.800003051758</ele>
        <time>2016-05-05T13:38:14.000Z</time>
      </trkpt>
      <trkpt lat="43.21602" lon="5.6334">
        <ele>98.800003051758</ele>
        <time>2016-05-05T13:38:17.000Z</time>
      </trkpt>
      <trkpt lat="43.21605" lon="5.63344">
        <ele>99.199996948242</ele>
        <time>2016-05-05T13:38:18.000Z</time>
      </trkpt>
      <trkpt lat="43.21614" lon="5.63352">
        <ele>99.800003051758</ele>
        <time>2016-05-05T13:38:21.000Z</time>
      </trkpt>
      <trkpt lat="43.21616" lon="5.63356">
        <ele>100.19999694824</ele>
        <time>2016-05-05T13:38:22.000Z</time>
      </trkpt>
      <trkpt lat="43.21627" lon="5.63374">
        <ele>101.59999847412</ele>
        <time>2016-05-05T13:38:26.000Z</time>
      </trkpt>
      <trkpt lat="43.21629" lon="5.63378">
        <ele>101.80000305176</ele>
        <time>2016-05-05T13:38:27.000Z</time>
      </trkpt>
      <trkpt lat="43.21634" lon="5.63387">
        <ele>102.59999847412</ele>
        <time>2016-05-05T13:38:29.000Z</time>
      </trkpt>
      <trkpt lat="43.21641" lon="5.634">
        <ele>103.59999847412</ele>
        <time>2016-05-05T13:38:32.000Z</time>
      </trkpt>
      <trkpt lat="43.21651" lon="5.63417">
        <ele>105</ele>
        <time>2016-05-05T13:38:36.000Z</time>
      </trkpt>
      <trkpt lat="43.21654" lon="5.63421">
        <ele>105.19999694824</ele>
        <time>2016-05-05T13:38:37.000Z</time>
      </trkpt>
      <trkpt lat="43.21659" lon="5.6343">
        <ele>106</ele>
        <time>2016-05-05T13:38:39.000Z</time>
      </trkpt>
      <trkpt lat="43.21668" lon="5.63448">
        <ele>107.40000152588</ele>
        <time>2016-05-05T13:38:43.000Z</time>
      </trkpt>
      <trkpt lat="43.21675" lon="5.63462">
        <ele>108.40000152588</ele>
        <time>2016-05-05T13:38:46.000Z</time>
      </trkpt>
      <trkpt lat="43.21683" lon="5.6348">
        <ele>110.19999694824</ele>
        <time>2016-05-05T13:38:50.000Z</time>
      </trkpt>
      <trkpt lat="43.21691" lon="5.63493">
        <ele>111.59999847412</ele>
        <time>2016-05-05T13:38:53.000Z</time>
      </trkpt>
      <trkpt lat="43.21698" lon="5.63498">
        <ele>112.40000152588</ele>
        <time>2016-05-05T13:38:55.000Z</time>
      </trkpt>
      <trkpt lat="43.21705" lon="5.63502">
        <ele>113</ele>
        <time>2016-05-05T13:38:57.000Z</time>
      </trkpt>
      <trkpt lat="43.21716" lon="5.63503">
        <ele>113.59999847412</ele>
        <time>2016-05-05T13:39:00.000Z</time>
      </trkpt>
      <trkpt lat="43.2172" lon="5.63502">
        <ele>113.59999847412</ele>
        <time>2016-05-05T13:39:01.000Z</time>
      </trkpt>
      <trkpt lat="43.21732" lon="5.63501">
        <ele>113.80000305176</ele>
        <time>2016-05-05T13:39:04.000Z</time>
      </trkpt>
      <trkpt lat="43.21752" lon="5.63499">
        <ele>114</ele>
        <time>2016-05-05T13:39:09.000Z</time>
      </trkpt>
      <trkpt lat="43.21767" lon="5.63502">
        <ele>114.59999847412</ele>
        <time>2016-05-05T13:39:13.000Z</time>
      </trkpt>
      <trkpt lat="43.21774" lon="5.63506">
        <ele>115</ele>
        <time>2016-05-05T13:39:15.000Z</time>
      </trkpt>
      <trkpt lat="43.2178" lon="5.63512">
        <ele>115.59999847412</ele>
        <time>2016-05-05T13:39:17.000Z</time>
      </trkpt>
      <trkpt lat="43.2179" lon="5.63523">
        <ele>116.80000305176</ele>
        <time>2016-05-05T13:39:20.000Z</time>
      </trkpt>
      <trkpt lat="43.21799" lon="5.63536">
        <ele>118.19999694824</ele>
        <time>2016-05-05T13:39:23.000Z</time>
      </trkpt>
      <trkpt lat="43.21808" lon="5.63548">
        <ele>119.59999847412</ele>
        <time>2016-05-05T13:39:26.000Z</time>
      </trkpt>
      <trkpt lat="43.21816" lon="5.6356">
        <ele>120.59999847412</ele>
        <time>2016-05-05T13:39:29.000Z</time>
      </trkpt>
      <trkpt lat="43.21819" lon="5.63565">
        <ele>121</ele>
        <time>2016-05-05T13:39:30.000Z</time>
      </trkpt>
      <trkpt lat="43.21821" lon="5.6357">
        <ele>121.40000152588</ele>
        <time>2016-05-05T13:39:31.000Z</time>
      </trkpt>
      <trkpt lat="43.21822" lon="5.63575">
        <ele>122</ele>
        <time>2016-05-05T13:39:32.000Z</time>
      </trkpt>
      <trkpt lat="43.21825" lon="5.63592">
        <ele>123.40000152588</ele>
        <time>2016-05-05T13:39:35.000Z</time>
      </trkpt>
      <trkpt lat="43.21825" lon="5.63609">
        <ele>124.80000305176</ele>
        <time>2016-05-05T13:39:38.000Z</time>
      </trkpt>
      <trkpt lat="43.21826" lon="5.63626">
        <ele>126</ele>
        <time>2016-05-05T13:39:41.000Z</time>
      </trkpt>
      <trkpt lat="43.21826" lon="5.63638">
        <ele>126.80000305176</ele>
        <time>2016-05-05T13:39:43.000Z</time>
      </trkpt>
      <trkpt lat="43.21827" lon="5.63649">
        <ele>127.59999847412</ele>
        <time>2016-05-05T13:39:45.000Z</time>
      </trkpt>
      <trkpt lat="43.21828" lon="5.63679">
        <ele>129.39999389648</ele>
        <time>2016-05-05T13:39:50.000Z</time>
      </trkpt>
      <trkpt lat="43.21828" lon="5.63702">
        <ele>130.80000305176</ele>
        <time>2016-05-05T13:39:54.000Z</time>
      </trkpt>
      <trkpt lat="43.21828" lon="5.63708">
        <ele>131.19999694824</ele>
        <time>2016-05-05T13:39:55.000Z</time>
      </trkpt>
      <trkpt lat="43.21826" lon="5.63724">
        <ele>132.60000610352</ele>
        <time>2016-05-05T13:39:58.000Z</time>
      </trkpt>
      <trkpt lat="43.2182" lon="5.63745">
        <ele>133.80000305176</ele>
        <time>2016-05-05T13:40:02.000Z</time>
      </trkpt>
      <trkpt lat="43.21818" lon="5.6375">
        <ele>134.19999694824</ele>
        <time>2016-05-05T13:40:03.000Z</time>
      </trkpt>
      <trkpt lat="43.21812" lon="5.63772">
        <ele>135.60000610352</ele>
        <time>2016-05-05T13:40:07.000Z</time>
      </trkpt>
      <trkpt lat="43.21807" lon="5.63788">
        <ele>137.19999694824</ele>
        <time>2016-05-05T13:40:10.000Z</time>
      </trkpt>
      <trkpt lat="43.21804" lon="5.63799">
        <ele>138.19999694824</ele>
        <time>2016-05-05T13:40:12.000Z</time>
      </trkpt>
      <trkpt lat="43.21802" lon="5.63809">
        <ele>139</ele>
        <time>2016-05-05T13:40:14.000Z</time>
      </trkpt>
      <trkpt lat="43.218" lon="5.6382">
        <ele>139.60000610352</ele>
        <time>2016-05-05T13:40:16.000Z</time>
      </trkpt>
      <trkpt lat="43.218" lon="5.63825">
        <ele>140</ele>
        <time>2016-05-05T13:40:17.000Z</time>
      </trkpt>
      <trkpt lat="43.218" lon="5.63831">
        <ele>140.39999389648</ele>
        <time>2016-05-05T13:40:18.000Z</time>
      </trkpt>
      <trkpt lat="43.21801" lon="5.63841">
        <ele>141</ele>
        <time>2016-05-05T13:40:20.000Z</time>
      </trkpt>
      <trkpt lat="43.21807" lon="5.63855">
        <ele>141.80000305176</ele>
        <time>2016-05-05T13:40:23.000Z</time>
      </trkpt>
      <trkpt lat="43.21819" lon="5.63871">
        <ele>142.60000610352</ele>
        <time>2016-05-05T13:40:27.000Z</time>
      </trkpt>
      <trkpt lat="43.21825" lon="5.6388">
        <ele>142.80000305176</ele>
        <time>2016-05-05T13:40:29.000Z</time>
      </trkpt>
      <trkpt lat="43.21832" lon="5.63888">
        <ele>143.39999389648</ele>
        <time>2016-05-05T13:40:31.000Z</time>
      </trkpt>
      <trkpt lat="43.21842" lon="5.63908">
        <ele>145.39999389648</ele>
        <time>2016-05-05T13:40:35.000Z</time>
      </trkpt>
      <trkpt lat="43.21844" lon="5.63913">
        <ele>146</ele>
        <time>2016-05-05T13:40:36.000Z</time>
      </trkpt>
      <trkpt lat="43.21849" lon="5.63923">
        <ele>147.39999389648</ele>
        <time>2016-05-05T13:40:38.000Z</time>
      </trkpt>
      <trkpt lat="43.21858" lon="5.63943">
        <ele>149.80000305176</ele>
        <time>2016-05-05T13:40:42.000Z</time>
      </trkpt>
      <trkpt lat="43.21863" lon="5.63958">
        <ele>151.80000305176</ele>
        <time>2016-05-05T13:40:45.000Z</time>
      </trkpt>
      <trkpt lat="43.21865" lon="5.63963">
        <ele>152.39999389648</ele>
        <time>2016-05-05T13:40:46.000Z</time>
      </trkpt>
      <trkpt lat="43.21872" lon="5.63976">
        <ele>153.80000305176</ele>
        <time>2016-05-05T13:40:49.000Z</time>
      </trkpt>
      <trkpt lat="43.21881" lon="5.63987">
        <ele>155</ele>
        <time>2016-05-05T13:40:52.000Z</time>
      </trkpt>
      <trkpt lat="43.21884" lon="5.63991">
        <ele>155.19999694824</ele>
        <time>2016-05-05T13:40:53.000Z</time>
      </trkpt>
      <trkpt lat="43.21894" lon="5.63998">
        <ele>155.80000305176</ele>
        <time>2016-05-05T13:40:56.000Z</time>
      </trkpt>
      <trkpt lat="43.21902" lon="5.64002">
        <ele>156</ele>
        <time>2016-05-05T13:40:58.000Z</time>
      </trkpt>
      <trkpt lat="43.2191" lon="5.64004">
        <ele>155.80000305176</ele>
        <time>2016-05-05T13:41:00.000Z</time>
      </trkpt>
      <trkpt lat="43.21917" lon="5.64007">
        <ele>156</ele>
        <time>2016-05-05T13:41:02.000Z</time>
      </trkpt>
      <trkpt lat="43.21929" lon="5.64012">
        <ele>156.19999694824</ele>
        <time>2016-05-05T13:41:05.000Z</time>
      </trkpt>
      <trkpt lat="43.21936" lon="5.64018">
        <ele>156.60000610352</ele>
        <time>2016-05-05T13:41:07.000Z</time>
      </trkpt>
      <trkpt lat="43.2194" lon="5.64022">
        <ele>157</ele>
        <time>2016-05-05T13:41:08.000Z</time>
      </trkpt>
      <trkpt lat="43.21946" lon="5.64032">
        <ele>157.80000305176</ele>
        <time>2016-05-05T13:41:10.000Z</time>
      </trkpt>
      <trkpt lat="43.21948" lon="5.64037">
        <ele>158.39999389648</ele>
        <time>2016-05-05T13:41:11.000Z</time>
      </trkpt>
      <trkpt lat="43.21951" lon="5.64043">
        <ele>159</ele>
        <time>2016-05-05T13:41:12.000Z</time>
      </trkpt>
      <trkpt lat="43.21955" lon="5.64054">
        <ele>160.19999694824</ele>
        <time>2016-05-05T13:41:14.000Z</time>
      </trkpt>
      <trkpt lat="43.21955" lon="5.6406">
        <ele>160.80000305176</ele>
        <time>2016-05-05T13:41:15.000Z</time>
      </trkpt>
      <trkpt lat="43.21957" lon="5.64072">
        <ele>161.60000610352</ele>
        <time>2016-05-05T13:41:17.000Z</time>
      </trkpt>
      <trkpt lat="43.2196" lon="5.64083">
        <ele>162.39999389648</ele>
        <time>2016-05-05T13:41:19.000Z</time>
      </trkpt>
      <trkpt lat="43.21964" lon="5.64093">
        <ele>163.19999694824</ele>
        <time>2016-05-05T13:41:21.000Z</time>
      </trkpt>
      <trkpt lat="43.21968" lon="5.64103">
        <ele>163.80000305176</ele>
        <time>2016-05-05T13:41:23.000Z</time>
      </trkpt>
      <trkpt lat="43.2197" lon="5.64109">
        <ele>164.19999694824</ele>
        <time>2016-05-05T13:41:24.000Z</time>
      </trkpt>
      <trkpt lat="43.21974" lon="5.64118">
        <ele>165</ele>
        <time>2016-05-05T13:41:26.000Z</time>
      </trkpt>
      <trkpt lat="43.2198" lon="5.64133">
        <ele>166</ele>
        <time>2016-05-05T13:41:29.000Z</time>
      </trkpt>
      <trkpt lat="43.21984" lon="5.64143">
        <ele>166.80000305176</ele>
        <time>2016-05-05T13:41:31.000Z</time>
      </trkpt>
      <trkpt lat="43.21987" lon="5.64148">
        <ele>167</ele>
        <time>2016-05-05T13:41:32.000Z</time>
      </trkpt>
      <trkpt lat="43.21994" lon="5.64162">
        <ele>168.19999694824</ele>
        <time>2016-05-05T13:41:35.000Z</time>
      </trkpt>
      <trkpt lat="43.22003" lon="5.64175">
        <ele>169</ele>
        <time>2016-05-05T13:41:38.000Z</time>
      </trkpt>
      <trkpt lat="43.22014" lon="5.64191">
        <ele>170.19999694824</ele>
        <time>2016-05-05T13:41:42.000Z</time>
      </trkpt>
      <trkpt lat="43.22026" lon="5.64207">
        <ele>171.19999694824</ele>
        <time>2016-05-05T13:41:46.000Z</time>
      </trkpt>
      <trkpt lat="43.22029" lon="5.64211">
        <ele>171.39999389648</ele>
        <time>2016-05-05T13:41:47.000Z</time>
      </trkpt>
      <trkpt lat="43.22035" lon="5.64219">
        <ele>171.80000305176</ele>
        <time>2016-05-05T13:41:49.000Z</time>
      </trkpt>
      <trkpt lat="43.22041" lon="5.64227">
        <ele>172.19999694824</ele>
        <time>2016-05-05T13:41:51.000Z</time>
      </trkpt>
      <trkpt lat="43.22051" lon="5.64244">
        <ele>173</ele>
        <time>2016-05-05T13:41:55.000Z</time>
      </trkpt>
      <trkpt lat="43.22055" lon="5.64254">
        <ele>173.39999389648</ele>
        <time>2016-05-05T13:41:57.000Z</time>
      </trkpt>
      <trkpt lat="43.22057" lon="5.6426">
        <ele>173.80000305176</ele>
        <time>2016-05-05T13:41:58.000Z</time>
      </trkpt>
      <trkpt lat="43.22062" lon="5.64281">
        <ele>175.39999389648</ele>
        <time>2016-05-05T13:42:02.000Z</time>
      </trkpt>
      <trkpt lat="43.22062" lon="5.64287">
        <ele>175.80000305176</ele>
        <time>2016-05-05T13:42:03.000Z</time>
      </trkpt>
      <trkpt lat="43.22064" lon="5.64298">
        <ele>176.80000305176</ele>
        <time>2016-05-05T13:42:05.000Z</time>
      </trkpt>
      <trkpt lat="43.22066" lon="5.64315">
        <ele>178.19999694824</ele>
        <time>2016-05-05T13:42:08.000Z</time>
      </trkpt>
      <trkpt lat="43.22068" lon="5.64332">
        <ele>179.39999389648</ele>
        <time>2016-05-05T13:42:11.000Z</time>
      </trkpt>
      <trkpt lat="43.22069" lon="5.64343">
        <ele>180.39999389648</ele>
        <time>2016-05-05T13:42:13.000Z</time>
      </trkpt>
      <trkpt lat="43.2207" lon="5.64349">
        <ele>180.80000305176</ele>
        <time>2016-05-05T13:42:14.000Z</time>
      </trkpt>
      <trkpt lat="43.22072" lon="5.64372">
        <ele>182.80000305176</ele>
        <time>2016-05-05T13:42:18.000Z</time>
      </trkpt>
      <trkpt lat="43.22075" lon="5.64389">
        <ele>184.39999389648</ele>
        <time>2016-05-05T13:42:21.000Z</time>
      </trkpt>
      <trkpt lat="43.22076" lon="5.64395">
        <ele>184.80000305176</ele>
        <time>2016-05-05T13:42:22.000Z</time>
      </trkpt>
      <trkpt lat="43.22079" lon="5.64405">
        <ele>185.80000305176</ele>
        <time>2016-05-05T13:42:24.000Z</time>
      </trkpt>
      <trkpt lat="43.22087" lon="5.64425">
        <ele>187</ele>
        <time>2016-05-05T13:42:28.000Z</time>
      </trkpt>
      <trkpt lat="43.2209" lon="5.6443">
        <ele>187.19999694824</ele>
        <time>2016-05-05T13:42:29.000Z</time>
      </trkpt>
      <trkpt lat="43.22095" lon="5.64439">
        <ele>187.80000305176</ele>
        <time>2016-05-05T13:42:31.000Z</time>
      </trkpt>
      <trkpt lat="43.22103" lon="5.64451">
        <ele>188.60000610352</ele>
        <time>2016-05-05T13:42:34.000Z</time>
      </trkpt>
      <trkpt lat="43.22113" lon="5.64465">
        <ele>189.19999694824</ele>
        <time>2016-05-05T13:42:37.000Z</time>
      </trkpt>
      <trkpt lat="43.22116" lon="5.64469">
        <ele>189.60000610352</ele>
        <time>2016-05-05T13:42:38.000Z</time>
      </trkpt>
      <trkpt lat="43.22131" lon="5.64496">
        <ele>191</ele>
        <time>2016-05-05T13:42:44.000Z</time>
      </trkpt>
      <trkpt lat="43.22136" lon="5.64505">
        <ele>191.60000610352</ele>
        <time>2016-05-05T13:42:46.000Z</time>
      </trkpt>
      <trkpt lat="43.22144" lon="5.64519">
        <ele>192.39999389648</ele>
        <time>2016-05-05T13:42:49.000Z</time>
      </trkpt>
      <trkpt lat="43.2215" lon="5.64533">
        <ele>193.80000305176</ele>
        <time>2016-05-05T13:42:52.000Z</time>
      </trkpt>
      <trkpt lat="43.22154" lon="5.64543">
        <ele>194.60000610352</ele>
        <time>2016-05-05T13:42:54.000Z</time>
      </trkpt>
      <trkpt lat="43.22158" lon="5.64553">
        <ele>195.80000305176</ele>
        <time>2016-05-05T13:42:56.000Z</time>
      </trkpt>
      <trkpt lat="43.22166" lon="5.64572">
        <ele>196.60000610352</ele>
        <time>2016-05-05T13:43:00.000Z</time>
      </trkpt>
      <trkpt lat="43.2217" lon="5.64582">
        <ele>197</ele>
        <time>2016-05-05T13:43:02.000Z</time>
      </trkpt>
      <trkpt lat="43.22172" lon="5.64587">
        <ele>197.19999694824</ele>
        <time>2016-05-05T13:43:03.000Z</time>
      </trkpt>
      <trkpt lat="43.22178" lon="5.64602">
        <ele>197.80000305176</ele>
        <time>2016-05-05T13:43:06.000Z</time>
      </trkpt>
      <trkpt lat="43.22186" lon="5.64623">
        <ele>199</ele>
        <time>2016-05-05T13:43:10.000Z</time>
      </trkpt>
      <trkpt lat="43.22187" lon="5.64628">
        <ele>199.39999389648</ele>
        <time>2016-05-05T13:43:11.000Z</time>
      </trkpt>
      <trkpt lat="43.22191" lon="5.64644">
        <ele>200.80000305176</ele>
        <time>2016-05-05T13:43:14.000Z</time>
      </trkpt>
      <trkpt lat="43.22196" lon="5.64666">
        <ele>203</ele>
        <time>2016-05-05T13:43:18.000Z</time>
      </trkpt>
      <trkpt lat="43.22199" lon="5.64683">
        <ele>204.60000610352</ele>
        <time>2016-05-05T13:43:21.000Z</time>
      </trkpt>
      <trkpt lat="43.22202" lon="5.64699">
        <ele>206.39999389648</ele>
        <time>2016-05-05T13:43:24.000Z</time>
      </trkpt>
      <trkpt lat="43.22205" lon="5.64716">
        <ele>208</ele>
        <time>2016-05-05T13:43:27.000Z</time>
      </trkpt>
      <trkpt lat="43.22207" lon="5.64721">
        <ele>208.60000610352</ele>
        <time>2016-05-05T13:43:28.000Z</time>
      </trkpt>
      <trkpt lat="43.2221" lon="5.64738">
        <ele>210.19999694824</ele>
        <time>2016-05-05T13:43:31.000Z</time>
      </trkpt>
      <trkpt lat="43.22212" lon="5.64754">
        <ele>212</ele>
        <time>2016-05-05T13:43:34.000Z</time>
      </trkpt>
      <trkpt lat="43.22214" lon="5.64759">
        <ele>212.39999389648</ele>
        <time>2016-05-05T13:43:35.000Z</time>
      </trkpt>
      <trkpt lat="43.22217" lon="5.64769">
        <ele>213.39999389648</ele>
        <time>2016-05-05T13:43:37.000Z</time>
      </trkpt>
      <trkpt lat="43.2222" lon="5.64774">
        <ele>213.60000610352</ele>
        <time>2016-05-05T13:43:38.000Z</time>
      </trkpt>
      <trkpt lat="43.22224" lon="5.64784">
        <ele>214.39999389648</ele>
        <time>2016-05-05T13:43:40.000Z</time>
      </trkpt>
      <trkpt lat="43.22226" lon="5.64789">
        <ele>214.80000305176</ele>
        <time>2016-05-05T13:43:41.000Z</time>
      </trkpt>
      <trkpt lat="43.2223" lon="5.64798">
        <ele>215.60000610352</ele>
        <time>2016-05-05T13:43:43.000Z</time>
      </trkpt>
      <trkpt lat="43.22239" lon="5.64817">
        <ele>216.80000305176</ele>
        <time>2016-05-05T13:43:47.000Z</time>
      </trkpt>
      <trkpt lat="43.22244" lon="5.64826">
        <ele>217.19999694824</ele>
        <time>2016-05-05T13:43:49.000Z</time>
      </trkpt>
      <trkpt lat="43.22249" lon="5.64835">
        <ele>217.80000305176</ele>
        <time>2016-05-05T13:43:51.000Z</time>
      </trkpt>
      <trkpt lat="43.22256" lon="5.64848">
        <ele>218.60000610352</ele>
        <time>2016-05-05T13:43:54.000Z</time>
      </trkpt>
      <trkpt lat="43.22265" lon="5.64864">
        <ele>219.39999389648</ele>
        <time>2016-05-05T13:43:58.000Z</time>
      </trkpt>
      <trkpt lat="43.22267" lon="5.64868">
        <ele>219.80000305176</ele>
        <time>2016-05-05T13:43:59.000Z</time>
      </trkpt>
      <trkpt lat="43.22273" lon="5.64876">
        <ele>220.19999694824</ele>
        <time>2016-05-05T13:44:01.000Z</time>
      </trkpt>
      <trkpt lat="43.22292" lon="5.64893">
        <ele>221.19999694824</ele>
        <time>2016-05-05T13:44:07.000Z</time>
      </trkpt>
      <trkpt lat="43.22315" lon="5.64912">
        <ele>222.60000610352</ele>
        <time>2016-05-05T13:44:14.000Z</time>
      </trkpt>
      <trkpt lat="43.22334" lon="5.64933">
        <ele>224.80000305176</ele>
        <time>2016-05-05T13:44:20.000Z</time>
      </trkpt>
      <trkpt lat="43.22337" lon="5.64937">
        <ele>225.19999694824</ele>
        <time>2016-05-05T13:44:21.000Z</time>
      </trkpt>
      <trkpt lat="43.22353" lon="5.64954">
        <ele>226.80000305176</ele>
        <time>2016-05-05T13:44:26.000Z</time>
      </trkpt>
      <trkpt lat="43.22359" lon="5.6496">
        <ele>227.60000610352</ele>
        <time>2016-05-05T13:44:28.000Z</time>
      </trkpt>
      <trkpt lat="43.22369" lon="5.64971">
        <ele>228.60000610352</ele>
        <time>2016-05-05T13:44:31.000Z</time>
      </trkpt>
      <trkpt lat="43.22383" lon="5.64987">
        <ele>229</ele>
        <time>2016-05-05T13:44:35.000Z</time>
      </trkpt>
      <trkpt lat="43.22389" lon="5.64995">
        <ele>229.19999694824</ele>
        <time>2016-05-05T13:44:37.000Z</time>
      </trkpt>
      <trkpt lat="43.22396" lon="5.65002">
        <ele>229.60000610352</ele>
        <time>2016-05-05T13:44:39.000Z</time>
      </trkpt>
      <trkpt lat="43.22412" lon="5.65021">
        <ele>230.19999694824</ele>
        <time>2016-05-05T13:44:44.000Z</time>
      </trkpt>
      <trkpt lat="43.22423" lon="5.65035">
        <ele>230.80000305176</ele>
        <time>2016-05-05T13:44:48.000Z</time>
      </trkpt>
      <trkpt lat="43.22426" lon="5.65039">
        <ele>230.80000305176</ele>
        <time>2016-05-05T13:44:49.000Z</time>
      </trkpt>
      <trkpt lat="43.22432" lon="5.65047">
        <ele>231.39999389648</ele>
        <time>2016-05-05T13:44:51.000Z</time>
      </trkpt>
      <trkpt lat="43.22436" lon="5.65057">
        <ele>232.39999389648</ele>
        <time>2016-05-05T13:44:53.000Z</time>
      </trkpt>
      <trkpt lat="43.22438" lon="5.65062">
        <ele>233</ele>
        <time>2016-05-05T13:44:54.000Z</time>
      </trkpt>
      <trkpt lat="43.22443" lon="5.65078">
        <ele>234.80000305176</ele>
        <time>2016-05-05T13:44:57.000Z</time>
      </trkpt>
      <trkpt lat="43.22448" lon="5.65098">
        <ele>237</ele>
        <time>2016-05-05T13:45:01.000Z</time>
      </trkpt>
      <trkpt lat="43.22452" lon="5.65113">
        <ele>238.60000610352</ele>
        <time>2016-05-05T13:45:04.000Z</time>
      </trkpt>
      <trkpt lat="43.22454" lon="5.65117">
        <ele>239.19999694824</ele>
        <time>2016-05-05T13:45:05.000Z</time>
      </trkpt>
      <trkpt lat="43.22462" lon="5.6513">
        <ele>240.60000610352</ele>
        <time>2016-05-05T13:45:08.000Z</time>
      </trkpt>
      <trkpt lat="43.22467" lon="5.65138">
        <ele>241.39999389648</ele>
        <time>2016-05-05T13:45:10.000Z</time>
      </trkpt>
      <trkpt lat="43.22475" lon="5.65149">
        <ele>242.39999389648</ele>
        <time>2016-05-05T13:45:13.000Z</time>
      </trkpt>
      <trkpt lat="43.22484" lon="5.65156">
        <ele>242.80000305176</ele>
        <time>2016-05-05T13:45:16.000Z</time>
      </trkpt>
      <trkpt lat="43.22493" lon="5.6516">
        <ele>243</ele>
        <time>2016-05-05T13:45:18.000Z</time>
      </trkpt>
      <trkpt lat="43.22497" lon="5.65161">
        <ele>243</ele>
        <time>2016-05-05T13:45:19.000Z</time>
      </trkpt>
      <trkpt lat="43.22511" lon="5.65163">
        <ele>243</ele>
        <time>2016-05-05T13:45:22.000Z</time>
      </trkpt>
      <trkpt lat="43.22515" lon="5.65164">
        <ele>243.19999694824</ele>
        <time>2016-05-05T13:45:23.000Z</time>
      </trkpt>
      <trkpt lat="43.22518" lon="5.65166">
        <ele>243.60000610352</ele>
        <time>2016-05-05T13:45:24.000Z</time>
      </trkpt>
      <trkpt lat="43.22525" lon="5.65173">
        <ele>244.80000305176</ele>
        <time>2016-05-05T13:45:26.000Z</time>
      </trkpt>
      <trkpt lat="43.22528" lon="5.65177">
        <ele>245.39999389648</ele>
        <time>2016-05-05T13:45:27.000Z</time>
      </trkpt>
      <trkpt lat="43.22533" lon="5.65186">
        <ele>246.60000610352</ele>
        <time>2016-05-05T13:45:29.000Z</time>
      </trkpt>
      <trkpt lat="43.22538" lon="5.65195">
        <ele>248</ele>
        <time>2016-05-05T13:45:31.000Z</time>
      </trkpt>
      <trkpt lat="43.22544" lon="5.65204">
        <ele>249.19999694824</ele>
        <time>2016-05-05T13:45:33.000Z</time>
      </trkpt>
      <trkpt lat="43.22549" lon="5.65213">
        <ele>250.60000610352</ele>
        <time>2016-05-05T13:45:35.000Z</time>
      </trkpt>
      <trkpt lat="43.22554" lon="5.65222">
        <ele>251.80000305176</ele>
        <time>2016-05-05T13:45:37.000Z</time>
      </trkpt>
      <trkpt lat="43.22559" lon="5.6523">
        <ele>253.19999694824</ele>
        <time>2016-05-05T13:45:39.000Z</time>
      </trkpt>
      <trkpt lat="43.22564" lon="5.65239">
        <ele>254.39999389648</ele>
        <time>2016-05-05T13:45:41.000Z</time>
      </trkpt>
      <trkpt lat="43.22567" lon="5.65244">
        <ele>255.19999694824</ele>
        <time>2016-05-05T13:45:42.000Z</time>
      </trkpt>
      <trkpt lat="43.2257" lon="5.65248">
        <ele>256</ele>
        <time>2016-05-05T13:45:43.000Z</time>
      </trkpt>
      <trkpt lat="43.22576" lon="5.65257">
        <ele>257.39999389648</ele>
        <time>2016-05-05T13:45:45.000Z</time>
      </trkpt>
      <trkpt lat="43.22581" lon="5.65264">
        <ele>258.60000610352</ele>
        <time>2016-05-05T13:45:47.000Z</time>
      </trkpt>
      <trkpt lat="43.22586" lon="5.6527">
        <ele>259.60000610352</ele>
        <time>2016-05-05T13:45:49.000Z</time>
      </trkpt>
      <trkpt lat="43.22592" lon="5.65277">
        <ele>260.79998779297</ele>
        <time>2016-05-05T13:45:51.000Z</time>
      </trkpt>
      <trkpt lat="43.22599" lon="5.65286">
        <ele>262</ele>
        <time>2016-05-05T13:45:53.000Z</time>
      </trkpt>
      <trkpt lat="43.22602" lon="5.6529">
        <ele>262.39999389648</ele>
        <time>2016-05-05T13:45:54.000Z</time>
      </trkpt>
      <trkpt lat="43.22606" lon="5.65294">
        <ele>262.79998779297</ele>
        <time>2016-05-05T13:45:55.000Z</time>
      </trkpt>
      <trkpt lat="43.22617" lon="5.65304">
        <ele>263.79998779297</ele>
        <time>2016-05-05T13:45:58.000Z</time>
      </trkpt>
      <trkpt lat="43.22631" lon="5.65313">
        <ele>265</ele>
        <time>2016-05-05T13:46:01.000Z</time>
      </trkpt>
      <trkpt lat="43.22641" lon="5.65319">
        <ele>265.79998779297</ele>
        <time>2016-05-05T13:46:03.000Z</time>
      </trkpt>
      <trkpt lat="43.22649" lon="5.65325">
        <ele>266.60000610352</ele>
        <time>2016-05-05T13:46:05.000Z</time>
      </trkpt>
      <trkpt lat="43.22657" lon="5.6533">
        <ele>267.60000610352</ele>
        <time>2016-05-05T13:46:07.000Z</time>
      </trkpt>
      <trkpt lat="43.22664" lon="5.65336">
        <ele>268.39999389648</ele>
        <time>2016-05-05T13:46:09.000Z</time>
      </trkpt>
      <trkpt lat="43.22668" lon="5.6534">
        <ele>269</ele>
        <time>2016-05-05T13:46:10.000Z</time>
      </trkpt>
      <trkpt lat="43.22672" lon="5.65343">
        <ele>269.39999389648</ele>
        <time>2016-05-05T13:46:11.000Z</time>
      </trkpt>
      <trkpt lat="43.22683" lon="5.65355">
        <ele>271.39999389648</ele>
        <time>2016-05-05T13:46:14.000Z</time>
      </trkpt>
      <trkpt lat="43.2269" lon="5.65363">
        <ele>272.60000610352</ele>
        <time>2016-05-05T13:46:16.000Z</time>
      </trkpt>
      <trkpt lat="43.22696" lon="5.6537">
        <ele>273.79998779297</ele>
        <time>2016-05-05T13:46:18.000Z</time>
      </trkpt>
      <trkpt lat="43.22706" lon="5.65382">
        <ele>275.60000610352</ele>
        <time>2016-05-05T13:46:21.000Z</time>
      </trkpt>
      <trkpt lat="43.22717" lon="5.65392">
        <ele>277.20001220703</ele>
        <time>2016-05-05T13:46:24.000Z</time>
      </trkpt>
      <trkpt lat="43.22724" lon="5.654">
        <ele>278</ele>
        <time>2016-05-05T13:46:26.000Z</time>
      </trkpt>
      <trkpt lat="43.22727" lon="5.65404">
        <ele>278.60000610352</ele>
        <time>2016-05-05T13:46:27.000Z</time>
      </trkpt>
      <trkpt lat="43.22736" lon="5.65415">
        <ele>280.20001220703</ele>
        <time>2016-05-05T13:46:30.000Z</time>
      </trkpt>
      <trkpt lat="43.22747" lon="5.65428">
        <ele>281.79998779297</ele>
        <time>2016-05-05T13:46:33.000Z</time>
      </trkpt>
      <trkpt lat="43.2275" lon="5.65433">
        <ele>282.60000610352</ele>
        <time>2016-05-05T13:46:34.000Z</time>
      </trkpt>
      <trkpt lat="43.22757" lon="5.65443">
        <ele>284</ele>
        <time>2016-05-05T13:46:36.000Z</time>
      </trkpt>
      <trkpt lat="43.22764" lon="5.65459">
        <ele>286.39999389648</ele>
        <time>2016-05-05T13:46:39.000Z</time>
      </trkpt>
      <trkpt lat="43.22768" lon="5.6547">
        <ele>287.79998779297</ele>
        <time>2016-05-05T13:46:41.000Z</time>
      </trkpt>
      <trkpt lat="43.22771" lon="5.65481">
        <ele>289</ele>
        <time>2016-05-05T13:46:43.000Z</time>
      </trkpt>
      <trkpt lat="43.22775" lon="5.65491">
        <ele>290.39999389648</ele>
        <time>2016-05-05T13:46:45.000Z</time>
      </trkpt>
      <trkpt lat="43.22778" lon="5.65497">
        <ele>291</ele>
        <time>2016-05-05T13:46:46.000Z</time>
      </trkpt>
      <trkpt lat="43.22781" lon="5.65501">
        <ele>291.39999389648</ele>
        <time>2016-05-05T13:46:47.000Z</time>
      </trkpt>
      <trkpt lat="43.22784" lon="5.65505">
        <ele>291.79998779297</ele>
        <time>2016-05-05T13:46:48.000Z</time>
      </trkpt>
      <trkpt lat="43.2279" lon="5.65513">
        <ele>292.39999389648</ele>
        <time>2016-05-05T13:46:50.000Z</time>
      </trkpt>
      <trkpt lat="43.22799" lon="5.65523">
        <ele>293.20001220703</ele>
        <time>2016-05-05T13:46:53.000Z</time>
      </trkpt>
      <trkpt lat="43.22806" lon="5.65529">
        <ele>293.60000610352</ele>
        <time>2016-05-05T13:46:55.000Z</time>
      </trkpt>
      <trkpt lat="43.22812" lon="5.65537">
        <ele>294.20001220703</ele>
        <time>2016-05-05T13:46:57.000Z</time>
      </trkpt>
      <trkpt lat="43.22814" lon="5.65542">
        <ele>294.79998779297</ele>
        <time>2016-05-05T13:46:58.000Z</time>
      </trkpt>
      <trkpt lat="43.22816" lon="5.65547">
        <ele>295.60000610352</ele>
        <time>2016-05-05T13:46:59.000Z</time>
      </trkpt>
      <trkpt lat="43.22818" lon="5.65554">
        <ele>296.60000610352</ele>
        <time>2016-05-05T13:47:00.000Z</time>
      </trkpt>
      <trkpt lat="43.22819" lon="5.6556">
        <ele>297.39999389648</ele>
        <time>2016-05-05T13:47:01.000Z</time>
      </trkpt>
      <trkpt lat="43.2282" lon="5.65567">
        <ele>298.20001220703</ele>
        <time>2016-05-05T13:47:02.000Z</time>
      </trkpt>
      <trkpt lat="43.22821" lon="5.65573">
        <ele>299.20001220703</ele>
        <time>2016-05-05T13:47:03.000Z</time>
      </trkpt>
      <trkpt lat="43.22826" lon="5.6559">
        <ele>301.20001220703</ele>
        <time>2016-05-05T13:47:06.000Z</time>
      </trkpt>
      <trkpt lat="43.22832" lon="5.65607">
        <ele>303</ele>
        <time>2016-05-05T13:47:09.000Z</time>
      </trkpt>
      <trkpt lat="43.22841" lon="5.65633">
        <ele>306.39999389648</ele>
        <time>2016-05-05T13:47:14.000Z</time>
      </trkpt>
      <trkpt lat="43.22843" lon="5.65638">
        <ele>307.20001220703</ele>
        <time>2016-05-05T13:47:15.000Z</time>
      </trkpt>
      <trkpt lat="43.22851" lon="5.65653">
        <ele>309</ele>
        <time>2016-05-05T13:47:18.000Z</time>
      </trkpt>
      <trkpt lat="43.2286" lon="5.65665">
        <ele>309.79998779297</ele>
        <time>2016-05-05T13:47:21.000Z</time>
      </trkpt>
      <trkpt lat="43.22866" lon="5.65673">
        <ele>310.79998779297</ele>
        <time>2016-05-05T13:47:23.000Z</time>
      </trkpt>
      <trkpt lat="43.2287" lon="5.65682">
        <ele>312</ele>
        <time>2016-05-05T13:47:25.000Z</time>
      </trkpt>
      <trkpt lat="43.22874" lon="5.65691">
        <ele>313.39999389648</ele>
        <time>2016-05-05T13:47:27.000Z</time>
      </trkpt>
      <trkpt lat="43.22878" lon="5.65701">
        <ele>314.79998779297</ele>
        <time>2016-05-05T13:47:29.000Z</time>
      </trkpt>
      <trkpt lat="43.22884" lon="5.65712">
        <ele>316.39999389648</ele>
        <time>2016-05-05T13:47:31.000Z</time>
      </trkpt>
      <trkpt lat="43.22889" lon="5.65723">
        <ele>317.60000610352</ele>
        <time>2016-05-05T13:47:33.000Z</time>
      </trkpt>
      <trkpt lat="43.22892" lon="5.65728">
        <ele>317.79998779297</ele>
        <time>2016-05-05T13:47:34.000Z</time>
      </trkpt>
      <trkpt lat="43.22901" lon="5.65741">
        <ele>318.20001220703</ele>
        <time>2016-05-05T13:47:37.000Z</time>
      </trkpt>
      <trkpt lat="43.2291" lon="5.65757">
        <ele>318.79998779297</ele>
        <time>2016-05-05T13:47:40.000Z</time>
      </trkpt>
      <trkpt lat="43.22917" lon="5.65772">
        <ele>319.60000610352</ele>
        <time>2016-05-05T13:47:43.000Z</time>
      </trkpt>
      <trkpt lat="43.22929" lon="5.6579">
        <ele>320</ele>
        <time>2016-05-05T13:47:47.000Z</time>
      </trkpt>
      <trkpt lat="43.22933" lon="5.65794">
        <ele>320.60000610352</ele>
        <time>2016-05-05T13:47:48.000Z</time>
      </trkpt>
      <trkpt lat="43.22944" lon="5.65804">
        <ele>322</ele>
        <time>2016-05-05T13:47:51.000Z</time>
      </trkpt>
      <trkpt lat="43.2295" lon="5.65821">
        <ele>323.20001220703</ele>
        <time>2016-05-05T13:47:54.000Z</time>
      </trkpt>
      <trkpt lat="43.22952" lon="5.65834">
        <ele>324.79998779297</ele>
        <time>2016-05-05T13:47:56.000Z</time>
      </trkpt>
      <trkpt lat="43.22955" lon="5.65848">
        <ele>326.39999389648</ele>
        <time>2016-05-05T13:47:58.000Z</time>
      </trkpt>
      <trkpt lat="43.22958" lon="5.65858">
        <ele>327.60000610352</ele>
        <time>2016-05-05T13:48:00.000Z</time>
      </trkpt>
      <trkpt lat="43.22962" lon="5.65861">
        <ele>327.60000610352</ele>
        <time>2016-05-05T13:48:01.000Z</time>
      </trkpt>
      <trkpt lat="43.22971" lon="5.6586">
        <ele>327</ele>
        <time>2016-05-05T13:48:03.000Z</time>
      </trkpt>
      <trkpt lat="43.2298" lon="5.65847">
        <ele>325</ele>
        <time>2016-05-05T13:48:06.000Z</time>
      </trkpt>
      <trkpt lat="43.22986" lon="5.65838">
        <ele>324.20001220703</ele>
        <time>2016-05-05T13:48:08.000Z</time>
      </trkpt>
      <trkpt lat="43.22996" lon="5.6583">
        <ele>323.39999389648</ele>
        <time>2016-05-05T13:48:11.000Z</time>
      </trkpt>
      <trkpt lat="43.23002" lon="5.65838">
        <ele>324.20001220703</ele>
        <time>2016-05-05T13:48:14.000Z</time>
      </trkpt>
      <trkpt lat="43.23004" lon="5.65842">
        <ele>324.39999389648</ele>
        <time>2016-05-05T13:48:15.000Z</time>
      </trkpt>
      <trkpt lat="43.23015" lon="5.65848">
        <ele>325.20001220703</ele>
        <time>2016-05-05T13:48:18.000Z</time>
      </trkpt>
      <trkpt lat="43.23028" lon="5.65841">
        <ele>325.79998779297</ele>
        <time>2016-05-05T13:48:21.000Z</time>
      </trkpt>
      <trkpt lat="43.23047" lon="5.65825">
        <ele>326.79998779297</ele>
        <time>2016-05-05T13:48:26.000Z</time>
      </trkpt>
      <trkpt lat="43.23062" lon="5.65831">
        <ele>329.20001220703</ele>
        <time>2016-05-05T13:48:30.000Z</time>
      </trkpt>
      <trkpt lat="43.23065" lon="5.65835">
        <ele>329.79998779297</ele>
        <time>2016-05-05T13:48:31.000Z</time>
      </trkpt>
      <trkpt lat="43.23071" lon="5.65844">
        <ele>330.79998779297</ele>
        <time>2016-05-05T13:48:33.000Z</time>
      </trkpt>
      <trkpt lat="43.23076" lon="5.65853">
        <ele>332</ele>
        <time>2016-05-05T13:48:35.000Z</time>
      </trkpt>
      <trkpt lat="43.23086" lon="5.65861">
        <ele>333.79998779297</ele>
        <time>2016-05-05T13:48:38.000Z</time>
      </trkpt>
      <trkpt lat="43.2309" lon="5.65862">
        <ele>334.20001220703</ele>
        <time>2016-05-05T13:48:39.000Z</time>
      </trkpt>
      <trkpt lat="43.23097" lon="5.65858">
        <ele>335.20001220703</ele>
        <time>2016-05-05T13:48:41.000Z</time>
      </trkpt>
      <trkpt lat="43.23099" lon="5.65854">
        <ele>335.39999389648</ele>
        <time>2016-05-05T13:48:42.000Z</time>
      </trkpt>
      <trkpt lat="43.23105" lon="5.65837">
        <ele>335.60000610352</ele>
        <time>2016-05-05T13:48:45.000Z</time>
      </trkpt>
      <trkpt lat="43.23106" lon="5.6583">
        <ele>335.39999389648</ele>
        <time>2016-05-05T13:48:46.000Z</time>
      </trkpt>
      <trkpt lat="43.23106" lon="5.65818">
        <ele>335</ele>
        <time>2016-05-05T13:48:48.000Z</time>
      </trkpt>
      <trkpt lat="43.23106" lon="5.65812">
        <ele>334.79998779297</ele>
        <time>2016-05-05T13:48:49.000Z</time>
      </trkpt>
      <trkpt lat="43.23105" lon="5.65783">
        <ele>333.60000610352</ele>
        <time>2016-05-05T13:48:54.000Z</time>
      </trkpt>
      <trkpt lat="43.23104" lon="5.65753">
        <ele>332.39999389648</ele>
        <time>2016-05-05T13:48:59.000Z</time>
      </trkpt>
      <trkpt lat="43.23104" lon="5.65741">
        <ele>332</ele>
        <time>2016-05-05T13:49:01.000Z</time>
      </trkpt>
      <trkpt lat="43.23105" lon="5.65735">
        <ele>331.79998779297</ele>
        <time>2016-05-05T13:49:02.000Z</time>
      </trkpt>
      <trkpt lat="43.23109" lon="5.65719">
        <ele>331</ele>
        <time>2016-05-05T13:49:05.000Z</time>
      </trkpt>
      <trkpt lat="43.23115" lon="5.6571">
        <ele>330.60000610352</ele>
        <time>2016-05-05T13:49:07.000Z</time>
      </trkpt>
      <trkpt lat="43.23125" lon="5.65701">
        <ele>330.60000610352</ele>
        <time>2016-05-05T13:49:10.000Z</time>
      </trkpt>
      <trkpt lat="43.2313" lon="5.65699">
        <ele>330.79998779297</ele>
        <time>2016-05-05T13:49:11.000Z</time>
      </trkpt>
      <trkpt lat="43.23134" lon="5.65698">
        <ele>331</ele>
        <time>2016-05-05T13:49:12.000Z</time>
      </trkpt>
      <trkpt lat="43.23147" lon="5.65699">
        <ele>332</ele>
        <time>2016-05-05T13:49:15.000Z</time>
      </trkpt>
      <trkpt lat="43.23152" lon="5.65701">
        <ele>332.39999389648</ele>
        <time>2016-05-05T13:49:16.000Z</time>
      </trkpt>
      <trkpt lat="43.23167" lon="5.65715">
        <ele>334.79998779297</ele>
        <time>2016-05-05T13:49:20.000Z</time>
      </trkpt>
      <trkpt lat="43.2317" lon="5.6572">
        <ele>335.39999389648</ele>
        <time>2016-05-05T13:49:21.000Z</time>
      </trkpt>
      <trkpt lat="43.23178" lon="5.65735">
        <ele>337.60000610352</ele>
        <time>2016-05-05T13:49:24.000Z</time>
      </trkpt>
      <trkpt lat="43.23179" lon="5.65741">
        <ele>338.39999389648</ele>
        <time>2016-05-05T13:49:25.000Z</time>
      </trkpt>
      <trkpt lat="43.23181" lon="5.65747">
        <ele>339</ele>
        <time>2016-05-05T13:49:26.000Z</time>
      </trkpt>
      <trkpt lat="43.23183" lon="5.65758">
        <ele>340.20001220703</ele>
        <time>2016-05-05T13:49:28.000Z</time>
      </trkpt>
      <trkpt lat="43.2319" lon="5.6578">
        <ele>342.39999389648</ele>
        <time>2016-05-05T13:49:33.000Z</time>
      </trkpt>
      <trkpt lat="43.23194" lon="5.65791">
        <ele>343.60000610352</ele>
        <time>2016-05-05T13:49:35.000Z</time>
      </trkpt>
      <trkpt lat="43.23199" lon="5.65806">
        <ele>345</ele>
        <time>2016-05-05T13:49:38.000Z</time>
      </trkpt>
      <trkpt lat="43.23204" lon="5.65822">
        <ele>345.79998779297</ele>
        <time>2016-05-05T13:49:41.000Z</time>
      </trkpt>
      <trkpt lat="43.23207" lon="5.65832">
        <ele>346.39999389648</ele>
        <time>2016-05-05T13:49:43.000Z</time>
      </trkpt>
      <trkpt lat="43.23213" lon="5.6586">
        <ele>347.39999389648</ele>
        <time>2016-05-05T13:49:48.000Z</time>
      </trkpt>
      <trkpt lat="43.23214" lon="5.65871">
        <ele>347.79998779297</ele>
        <time>2016-05-05T13:49:50.000Z</time>
      </trkpt>
      <trkpt lat="43.23212" lon="5.65882">
        <ele>348.20001220703</ele>
        <time>2016-05-05T13:49:52.000Z</time>
      </trkpt>
      <trkpt lat="43.23208" lon="5.65897">
        <ele>348.79998779297</ele>
        <time>2016-05-05T13:49:55.000Z</time>
      </trkpt>
      <trkpt lat="43.23199" lon="5.65916">
        <ele>349.20001220703</ele>
        <time>2016-05-05T13:49:59.000Z</time>
      </trkpt>
      <trkpt lat="43.23194" lon="5.65926">
        <ele>349.39999389648</ele>
        <time>2016-05-05T13:50:01.000Z</time>
      </trkpt>
      <trkpt lat="43.23182" lon="5.6595">
        <ele>349.60000610352</ele>
        <time>2016-05-05T13:50:06.000Z</time>
      </trkpt>
      <trkpt lat="43.23175" lon="5.65965">
        <ele>349.39999389648</ele>
        <time>2016-05-05T13:50:09.000Z</time>
      </trkpt>
      <trkpt lat="43.23169" lon="5.6598">
        <ele>349.79998779297</ele>
        <time>2016-05-05T13:50:12.000Z</time>
      </trkpt>
      <trkpt lat="43.23167" lon="5.65985">
        <ele>350.20001220703</ele>
        <time>2016-05-05T13:50:13.000Z</time>
      </trkpt>
      <trkpt lat="43.23167" lon="5.65997">
        <ele>350.79998779297</ele>
        <time>2016-05-05T13:50:15.000Z</time>
      </trkpt>
      <trkpt lat="43.23168" lon="5.66003">
        <ele>351.20001220703</ele>
        <time>2016-05-05T13:50:16.000Z</time>
      </trkpt>
      <trkpt lat="43.23175" lon="5.66016">
        <ele>352.39999389648</ele>
        <time>2016-05-05T13:50:19.000Z</time>
      </trkpt>
      <trkpt lat="43.23177" lon="5.66019">
        <ele>352.79998779297</ele>
        <time>2016-05-05T13:50:20.000Z</time>
      </trkpt>
      <trkpt lat="43.23188" lon="5.66029">
        <ele>353.79998779297</ele>
        <time>2016-05-05T13:50:23.000Z</time>
      </trkpt>
      <trkpt lat="43.23196" lon="5.66035">
        <ele>354.39999389648</ele>
        <time>2016-05-05T13:50:25.000Z</time>
      </trkpt>
      <trkpt lat="43.232" lon="5.66038">
        <ele>354.60000610352</ele>
        <time>2016-05-05T13:50:26.000Z</time>
      </trkpt>
      <trkpt lat="43.23215" lon="5.66052">
        <ele>355.79998779297</ele>
        <time>2016-05-05T13:50:30.000Z</time>
      </trkpt>
      <trkpt lat="43.23218" lon="5.66056">
        <ele>356.20001220703</ele>
        <time>2016-05-05T13:50:31.000Z</time>
      </trkpt>
      <trkpt lat="43.23223" lon="5.66066">
        <ele>356.79998779297</ele>
        <time>2016-05-05T13:50:33.000Z</time>
      </trkpt>
      <trkpt lat="43.23227" lon="5.66077">
        <ele>357.39999389648</ele>
        <time>2016-05-05T13:50:35.000Z</time>
      </trkpt>
      <trkpt lat="43.23232" lon="5.66088">
        <ele>358</ele>
        <time>2016-05-05T13:50:37.000Z</time>
      </trkpt>
      <trkpt lat="43.23238" lon="5.66104">
        <ele>358.79998779297</ele>
        <time>2016-05-05T13:50:40.000Z</time>
      </trkpt>
      <trkpt lat="43.2325" lon="5.66136">
        <ele>361</ele>
        <time>2016-05-05T13:50:46.000Z</time>
      </trkpt>
      <trkpt lat="43.23252" lon="5.66141">
        <ele>361.39999389648</ele>
        <time>2016-05-05T13:50:47.000Z</time>
      </trkpt>
      <trkpt lat="43.23261" lon="5.66169">
        <ele>363</ele>
        <time>2016-05-05T13:50:52.000Z</time>
      </trkpt>
      <trkpt lat="43.23265" lon="5.66182">
        <ele>363.60000610352</ele>
        <time>2016-05-05T13:50:54.000Z</time>
      </trkpt>
      <trkpt lat="43.23266" lon="5.66188">
        <ele>364</ele>
        <time>2016-05-05T13:50:55.000Z</time>
      </trkpt>
      <trkpt lat="43.23267" lon="5.66193">
        <ele>364.39999389648</ele>
        <time>2016-05-05T13:50:56.000Z</time>
      </trkpt>
      <trkpt lat="43.23268" lon="5.66217">
        <ele>365.60000610352</ele>
        <time>2016-05-05T13:51:00.000Z</time>
      </trkpt>
      <trkpt lat="43.23268" lon="5.66223">
        <ele>366.20001220703</ele>
        <time>2016-05-05T13:51:01.000Z</time>
      </trkpt>
      <trkpt lat="43.23269" lon="5.6624">
        <ele>367.79998779297</ele>
        <time>2016-05-05T13:51:04.000Z</time>
      </trkpt>
      <trkpt lat="43.23276" lon="5.66255">
        <ele>369</ele>
        <time>2016-05-05T13:51:07.000Z</time>
      </trkpt>
      <trkpt lat="43.23284" lon="5.6626">
        <ele>369.39999389648</ele>
        <time>2016-05-05T13:51:09.000Z</time>
      </trkpt>
      <trkpt lat="43.23288" lon="5.66261">
        <ele>369.39999389648</ele>
        <time>2016-05-05T13:51:10.000Z</time>
      </trkpt>
      <trkpt lat="43.23301" lon="5.66261">
        <ele>369.60000610352</ele>
        <time>2016-05-05T13:51:13.000Z</time>
      </trkpt>
      <trkpt lat="43.23313" lon="5.66259">
        <ele>369</ele>
        <time>2016-05-05T13:51:16.000Z</time>
      </trkpt>
      <trkpt lat="43.23328" lon="5.66266">
        <ele>369.39999389648</ele>
        <time>2016-05-05T13:51:20.000Z</time>
      </trkpt>
      <trkpt lat="43.23331" lon="5.66271">
        <ele>369.79998779297</ele>
        <time>2016-05-05T13:51:21.000Z</time>
      </trkpt>
      <trkpt lat="43.23341" lon="5.66293">
        <ele>372</ele>
        <time>2016-05-05T13:51:25.000Z</time>
      </trkpt>
      <trkpt lat="43.23347" lon="5.66309">
        <ele>373.39999389648</ele>
        <time>2016-05-05T13:51:28.000Z</time>
      </trkpt>
      <trkpt lat="43.23356" lon="5.66331">
        <ele>374.79998779297</ele>
        <time>2016-05-05T13:51:32.000Z</time>
      </trkpt>
      <trkpt lat="43.23362" lon="5.66349">
        <ele>375.79998779297</ele>
        <time>2016-05-05T13:51:35.000Z</time>
      </trkpt>
      <trkpt lat="43.23365" lon="5.6636">
        <ele>376.60000610352</ele>
        <time>2016-05-05T13:51:37.000Z</time>
      </trkpt>
      <trkpt lat="43.23368" lon="5.66377">
        <ele>377.79998779297</ele>
        <time>2016-05-05T13:51:40.000Z</time>
      </trkpt>
      <trkpt lat="43.23369" lon="5.66383">
        <ele>378.39999389648</ele>
        <time>2016-05-05T13:51:41.000Z</time>
      </trkpt>
      <trkpt lat="43.23369" lon="5.66389">
        <ele>378.79998779297</ele>
        <time>2016-05-05T13:51:42.000Z</time>
      </trkpt>
      <trkpt lat="43.23364" lon="5.66414">
        <ele>380.79998779297</ele>
        <time>2016-05-05T13:51:46.000Z</time>
      </trkpt>
      <trkpt lat="43.23362" lon="5.6642">
        <ele>381.20001220703</ele>
        <time>2016-05-05T13:51:47.000Z</time>
      </trkpt>
      <trkpt lat="43.23358" lon="5.66439">
        <ele>382.60000610352</ele>
        <time>2016-05-05T13:51:50.000Z</time>
      </trkpt>
      <trkpt lat="43.23352" lon="5.66472">
        <ele>384.79998779297</ele>
        <time>2016-05-05T13:51:55.000Z</time>
      </trkpt>
      <trkpt lat="43.23351" lon="5.66479">
        <ele>385</ele>
        <time>2016-05-05T13:51:56.000Z</time>
      </trkpt>
      <trkpt lat="43.2335" lon="5.66512">
        <ele>385.39999389648</ele>
        <time>2016-05-05T13:52:01.000Z</time>
      </trkpt>
      <trkpt lat="43.23349" lon="5.66525">
        <ele>385.60000610352</ele>
        <time>2016-05-05T13:52:03.000Z</time>
      </trkpt>
      <trkpt lat="43.23352" lon="5.66574">
        <ele>386.60000610352</ele>
        <time>2016-05-05T13:52:10.000Z</time>
      </trkpt>
      <trkpt lat="43.23354" lon="5.6658">
        <ele>386.79998779297</ele>
        <time>2016-05-05T13:52:11.000Z</time>
      </trkpt>
      <trkpt lat="43.23359" lon="5.66591">
        <ele>387</ele>
        <time>2016-05-05T13:52:13.000Z</time>
      </trkpt>
      <trkpt lat="43.23365" lon="5.66601">
        <ele>386.79998779297</ele>
        <time>2016-05-05T13:52:15.000Z</time>
      </trkpt>
      <trkpt lat="43.23369" lon="5.66605">
        <ele>386.79998779297</ele>
        <time>2016-05-05T13:52:16.000Z</time>
      </trkpt>
      <trkpt lat="43.23379" lon="5.6662">
        <ele>386.79998779297</ele>
        <time>2016-05-05T13:52:19.000Z</time>
      </trkpt>
      <trkpt lat="43.23383" lon="5.66625">
        <ele>386.79998779297</ele>
        <time>2016-05-05T13:52:20.000Z</time>
      </trkpt>
      <trkpt lat="43.23389" lon="5.66636">
        <ele>386.79998779297</ele>
        <time>2016-05-05T13:52:22.000Z</time>
      </trkpt>
      <trkpt lat="43.234" lon="5.66665">
        <ele>388.20001220703</ele>
        <time>2016-05-05T13:52:27.000Z</time>
      </trkpt>
      <trkpt lat="43.23401" lon="5.66671">
        <ele>388.39999389648</ele>
        <time>2016-05-05T13:52:28.000Z</time>
      </trkpt>
      <trkpt lat="43.23403" lon="5.66677">
        <ele>388.79998779297</ele>
        <time>2016-05-05T13:52:29.000Z</time>
      </trkpt>
      <trkpt lat="43.23404" lon="5.66696">
        <ele>390.20001220703</ele>
        <time>2016-05-05T13:52:32.000Z</time>
      </trkpt>
      <trkpt lat="43.23403" lon="5.66703">
        <ele>391.20001220703</ele>
        <time>2016-05-05T13:52:33.000Z</time>
      </trkpt>
      <trkpt lat="43.23403" lon="5.66709">
        <ele>392.20001220703</ele>
        <time>2016-05-05T13:52:34.000Z</time>
      </trkpt>
      <trkpt lat="43.234" lon="5.66729">
        <ele>394.39999389648</ele>
        <time>2016-05-05T13:52:37.000Z</time>
      </trkpt>
      <trkpt lat="43.23401" lon="5.66742">
        <ele>395.20001220703</ele>
        <time>2016-05-05T13:52:39.000Z</time>
      </trkpt>
      <trkpt lat="43.23403" lon="5.66749">
        <ele>395.60000610352</ele>
        <time>2016-05-05T13:52:40.000Z</time>
      </trkpt>
      <trkpt lat="43.23405" lon="5.66754">
        <ele>395.79998779297</ele>
        <time>2016-05-05T13:52:41.000Z</time>
      </trkpt>
      <trkpt lat="43.2341" lon="5.66772">
        <ele>396.39999389648</ele>
        <time>2016-05-05T13:52:44.000Z</time>
      </trkpt>
      <trkpt lat="43.23413" lon="5.66784">
        <ele>396.79998779297</ele>
        <time>2016-05-05T13:52:46.000Z</time>
      </trkpt>
      <trkpt lat="43.23416" lon="5.66797">
        <ele>397.20001220703</ele>
        <time>2016-05-05T13:52:48.000Z</time>
      </trkpt>
      <trkpt lat="43.23419" lon="5.66823">
        <ele>398</ele>
        <time>2016-05-05T13:52:52.000Z</time>
      </trkpt>
      <trkpt lat="43.2342" lon="5.66835">
        <ele>398.39999389648</ele>
        <time>2016-05-05T13:52:54.000Z</time>
      </trkpt>
      <trkpt lat="43.2342" lon="5.66861">
        <ele>399.20001220703</ele>
        <time>2016-05-05T13:52:58.000Z</time>
      </trkpt>
      <trkpt lat="43.23419" lon="5.66867">
        <ele>399.60000610352</ele>
        <time>2016-05-05T13:52:59.000Z</time>
      </trkpt>
      <trkpt lat="43.23418" lon="5.66873">
        <ele>400</ele>
        <time>2016-05-05T13:53:00.000Z</time>
      </trkpt>
      <trkpt lat="43.23415" lon="5.66898">
        <ele>400.60000610352</ele>
        <time>2016-05-05T13:53:04.000Z</time>
      </trkpt>
      <trkpt lat="43.2341" lon="5.66929">
        <ele>400.79998779297</ele>
        <time>2016-05-05T13:53:09.000Z</time>
      </trkpt>
      <trkpt lat="43.23409" lon="5.66934">
        <ele>400.79998779297</ele>
        <time>2016-05-05T13:53:10.000Z</time>
      </trkpt>
      <trkpt lat="43.23408" lon="5.66946">
        <ele>400.79998779297</ele>
        <time>2016-05-05T13:53:12.000Z</time>
      </trkpt>
      <trkpt lat="43.23407" lon="5.66976">
        <ele>400.20001220703</ele>
        <time>2016-05-05T13:53:17.000Z</time>
      </trkpt>
      <trkpt lat="43.23409" lon="5.66988">
        <ele>400</ele>
        <time>2016-05-05T13:53:19.000Z</time>
      </trkpt>
      <trkpt lat="43.23413" lon="5.67014">
        <ele>399.39999389648</ele>
        <time>2016-05-05T13:53:23.000Z</time>
      </trkpt>
      <trkpt lat="43.2342" lon="5.67053">
        <ele>398.79998779297</ele>
        <time>2016-05-05T13:53:29.000Z</time>
      </trkpt>
      <trkpt lat="43.23423" lon="5.67065">
        <ele>398.39999389648</ele>
        <time>2016-05-05T13:53:31.000Z</time>
      </trkpt>
      <trkpt lat="43.23429" lon="5.67096">
        <ele>397.39999389648</ele>
        <time>2016-05-05T13:53:36.000Z</time>
      </trkpt>
      <trkpt lat="43.23433" lon="5.6712">
        <ele>397.39999389648</ele>
        <time>2016-05-05T13:53:40.000Z</time>
      </trkpt>
      <trkpt lat="43.23436" lon="5.67137">
        <ele>397.39999389648</ele>
        <time>2016-05-05T13:53:43.000Z</time>
      </trkpt>
      <trkpt lat="43.23444" lon="5.67173">
        <ele>398.39999389648</ele>
        <time>2016-05-05T13:53:49.000Z</time>
      </trkpt>
      <trkpt lat="43.23446" lon="5.67179">
        <ele>398.60000610352</ele>
        <time>2016-05-05T13:53:50.000Z</time>
      </trkpt>
      <trkpt lat="43.23451" lon="5.6719">
        <ele>399</ele>
        <time>2016-05-05T13:53:52.000Z</time>
      </trkpt>
      <trkpt lat="43.23463" lon="5.67209">
        <ele>399.60000610352</ele>
        <time>2016-05-05T13:53:56.000Z</time>
      </trkpt>
      <trkpt lat="43.23472" lon="5.67225">
        <ele>400</ele>
        <time>2016-05-05T13:53:59.000Z</time>
      </trkpt>
      <trkpt lat="43.23475" lon="5.67231">
        <ele>400.20001220703</ele>
        <time>2016-05-05T13:54:00.000Z</time>
      </trkpt>
      <trkpt lat="43.23494" lon="5.67269">
        <ele>400.60000610352</ele>
        <time>2016-05-05T13:54:07.000Z</time>
      </trkpt>
      <trkpt lat="43.23497" lon="5.67274">
        <ele>400.60000610352</ele>
        <time>2016-05-05T13:54:08.000Z</time>
      </trkpt>
      <trkpt lat="43.23501" lon="5.67287">
        <ele>400.79998779297</ele>
        <time>2016-05-05T13:54:10.000Z</time>
      </trkpt>
      <trkpt lat="43.23504" lon="5.67305">
        <ele>401.20001220703</ele>
        <time>2016-05-05T13:54:13.000Z</time>
      </trkpt>
      <trkpt lat="43.23511" lon="5.67343">
        <ele>401.60000610352</ele>
        <time>2016-05-05T13:54:19.000Z</time>
      </trkpt>
      <trkpt lat="43.23512" lon="5.6735">
        <ele>401.60000610352</ele>
        <time>2016-05-05T13:54:20.000Z</time>
      </trkpt>
      <trkpt lat="43.2352" lon="5.67395">
        <ele>402</ele>
        <time>2016-05-05T13:54:27.000Z</time>
      </trkpt>
      <trkpt lat="43.23529" lon="5.67445">
        <ele>401</ele>
        <time>2016-05-05T13:54:35.000Z</time>
      </trkpt>
      <trkpt lat="43.23534" lon="5.67471">
        <ele>400.60000610352</ele>
        <time>2016-05-05T13:54:39.000Z</time>
      </trkpt>
      <trkpt lat="43.2354" lon="5.67503">
        <ele>402.60000610352</ele>
        <time>2016-05-05T13:54:44.000Z</time>
      </trkpt>
      <trkpt lat="43.23553" lon="5.67575">
        <ele>406.20001220703</ele>
        <time>2016-05-05T13:54:55.000Z</time>
      </trkpt>
      <trkpt lat="43.23558" lon="5.67601">
        <ele>406</ele>
        <time>2016-05-05T13:54:59.000Z</time>
      </trkpt>
      <trkpt lat="43.23563" lon="5.67641">
        <ele>405.79998779297</ele>
        <time>2016-05-05T13:55:05.000Z</time>
      </trkpt>
      <trkpt lat="43.23565" lon="5.67661">
        <ele>406.39999389648</ele>
        <time>2016-05-05T13:55:08.000Z</time>
      </trkpt>
      <trkpt lat="43.23566" lon="5.67688">
        <ele>407</ele>
        <time>2016-05-05T13:55:12.000Z</time>
      </trkpt>
      <trkpt lat="43.23566" lon="5.67757">
        <ele>406.60000610352</ele>
        <time>2016-05-05T13:55:22.000Z</time>
      </trkpt>
      <trkpt lat="43.23567" lon="5.67798">
        <ele>406.60000610352</ele>
        <time>2016-05-05T13:55:28.000Z</time>
      </trkpt>
      <trkpt lat="43.2357" lon="5.67817">
        <ele>406.60000610352</ele>
        <time>2016-05-05T13:55:31.000Z</time>
      </trkpt>
      <trkpt lat="43.23582" lon="5.67863">
        <ele>406.39999389648</ele>
        <time>2016-05-05T13:55:38.000Z</time>
      </trkpt>
      <trkpt lat="43.23602" lon="5.67927">
        <ele>405.20001220703</ele>
        <time>2016-05-05T13:55:47.000Z</time>
      </trkpt>
      <trkpt lat="43.2362" lon="5.67976">
        <ele>404.39999389648</ele>
        <time>2016-05-05T13:55:54.000Z</time>
      </trkpt>
      <trkpt lat="43.23632" lon="5.68003">
        <ele>404</ele>
        <time>2016-05-05T13:55:58.000Z</time>
      </trkpt>
      <trkpt lat="43.23646" lon="5.6803">
        <ele>403.79998779297</ele>
        <time>2016-05-05T13:56:02.000Z</time>
      </trkpt>
      <trkpt lat="43.23677" lon="5.68094">
        <ele>404</ele>
        <time>2016-05-05T13:56:12.000Z</time>
      </trkpt>
      <trkpt lat="43.23707" lon="5.68157">
        <ele>405.79998779297</ele>
        <time>2016-05-05T13:56:22.000Z</time>
      </trkpt>
      <trkpt lat="43.23712" lon="5.68169">
        <ele>406</ele>
        <time>2016-05-05T13:56:24.000Z</time>
      </trkpt>
      <trkpt lat="43.23723" lon="5.68194">
        <ele>406.60000610352</ele>
        <time>2016-05-05T13:56:28.000Z</time>
      </trkpt>
      <trkpt lat="43.23728" lon="5.68206">
        <ele>406.79998779297</ele>
        <time>2016-05-05T13:56:30.000Z</time>
      </trkpt>
      <trkpt lat="43.23746" lon="5.68257">
        <ele>407.39999389648</ele>
        <time>2016-05-05T13:56:38.000Z</time>
      </trkpt>
      <trkpt lat="43.23758" lon="5.68305">
        <ele>407.60000610352</ele>
        <time>2016-05-05T13:56:45.000Z</time>
      </trkpt>
      <trkpt lat="43.23774" lon="5.68366">
        <ele>409</ele>
        <time>2016-05-05T13:56:54.000Z</time>
      </trkpt>
      <trkpt lat="43.23785" lon="5.68407">
        <ele>409.60000610352</ele>
        <time>2016-05-05T13:57:00.000Z</time>
      </trkpt>
      <trkpt lat="43.23792" lon="5.68435">
        <ele>410.60000610352</ele>
        <time>2016-05-05T13:57:04.000Z</time>
      </trkpt>
      <trkpt lat="43.23804" lon="5.68483">
        <ele>411.79998779297</ele>
        <time>2016-05-05T13:57:11.000Z</time>
      </trkpt>
      <trkpt lat="43.23811" lon="5.68504">
        <ele>412</ele>
        <time>2016-05-05T13:57:14.000Z</time>
      </trkpt>
      <trkpt lat="43.23824" lon="5.68553">
        <ele>412</ele>
        <time>2016-05-05T13:57:21.000Z</time>
      </trkpt>
      <trkpt lat="43.23826" lon="5.6856">
        <ele>412.20001220703</ele>
        <time>2016-05-05T13:57:22.000Z</time>
      </trkpt>
      <trkpt lat="43.23838" lon="5.68609">
        <ele>414</ele>
        <time>2016-05-05T13:57:29.000Z</time>
      </trkpt>
      <trkpt lat="43.23841" lon="5.68622">
        <ele>414.39999389648</ele>
        <time>2016-05-05T13:57:31.000Z</time>
      </trkpt>
      <trkpt lat="43.23848" lon="5.68647">
        <ele>415.20001220703</ele>
        <time>2016-05-05T13:57:36.000Z</time>
      </trkpt>
      <trkpt lat="43.23851" lon="5.68656">
        <ele>415.20001220703</ele>
        <time>2016-05-05T13:57:39.000Z</time>
      </trkpt>
      <trkpt lat="43.23852" lon="5.68661">
        <ele>415.39999389648</ele>
        <time>2016-05-05T13:57:41.000Z</time>
      </trkpt>
      <trkpt lat="43.2386" lon="5.68676">
        <ele>415.60000610352</ele>
        <time>2016-05-05T13:57:47.000Z</time>
      </trkpt>
      <trkpt lat="43.23872" lon="5.68695">
        <ele>416.20001220703</ele>
        <time>2016-05-05T13:57:53.000Z</time>
      </trkpt>
      <trkpt lat="43.23877" lon="5.68701">
        <ele>416.60000610352</ele>
        <time>2016-05-05T13:58:58.000Z</time>
      </trkpt>
      <trkpt lat="43.23881" lon="5.68705">
        <ele>416.60000610352</ele>
        <time>2016-05-05T13:59:00.000Z</time>
      </trkpt>
      <trkpt lat="43.23894" lon="5.68723">
        <ele>417.39999389648</ele>
        <time>2016-05-05T13:59:05.000Z</time>
      </trkpt>
      <trkpt lat="43.23907" lon="5.68739">
        <ele>417.79998779297</ele>
        <time>2016-05-05T13:59:09.000Z</time>
      </trkpt>
      <trkpt lat="43.23924" lon="5.6876">
        <ele>418.20001220703</ele>
        <time>2016-05-05T13:59:14.000Z</time>
      </trkpt>
      <trkpt lat="43.23928" lon="5.68764">
        <ele>418.39999389648</ele>
        <time>2016-05-05T13:59:15.000Z</time>
      </trkpt>
      <trkpt lat="43.2395" lon="5.68791">
        <ele>418.39999389648</ele>
        <time>2016-05-05T13:59:21.000Z</time>
      </trkpt>
      <trkpt lat="43.23957" lon="5.68801">
        <ele>418.39999389648</ele>
        <time>2016-05-05T13:59:23.000Z</time>
      </trkpt>
      <trkpt lat="43.23978" lon="5.68842">
        <ele>418.60000610352</ele>
        <time>2016-05-05T13:59:30.000Z</time>
      </trkpt>
      <trkpt lat="43.23986" lon="5.68867">
        <ele>418.79998779297</ele>
        <time>2016-05-05T13:59:34.000Z</time>
      </trkpt>
      <trkpt lat="43.2399" lon="5.68887">
        <ele>419</ele>
        <time>2016-05-05T13:59:37.000Z</time>
      </trkpt>
      <trkpt lat="43.24002" lon="5.68955">
        <ele>419.79998779297</ele>
        <time>2016-05-05T13:59:47.000Z</time>
      </trkpt>
      <trkpt lat="43.24007" lon="5.68982">
        <ele>420.20001220703</ele>
        <time>2016-05-05T13:59:51.000Z</time>
      </trkpt>
      <trkpt lat="43.24012" lon="5.69009">
        <ele>421</ele>
        <time>2016-05-05T13:59:55.000Z</time>
      </trkpt>
      <trkpt lat="43.24016" lon="5.69028">
        <ele>421.60000610352</ele>
        <time>2016-05-05T13:59:58.000Z</time>
      </trkpt>
      <trkpt lat="43.24023" lon="5.6906">
        <ele>422.39999389648</ele>
        <time>2016-05-05T14:00:03.000Z</time>
      </trkpt>
      <trkpt lat="43.24028" lon="5.69092">
        <ele>422.79998779297</ele>
        <time>2016-05-05T14:00:08.000Z</time>
      </trkpt>
      <trkpt lat="43.24033" lon="5.69118">
        <ele>423.20001220703</ele>
        <time>2016-05-05T14:00:12.000Z</time>
      </trkpt>
      <trkpt lat="43.24038" lon="5.6915">
        <ele>423.60000610352</ele>
        <time>2016-05-05T14:00:17.000Z</time>
      </trkpt>
      <trkpt lat="43.24042" lon="5.6917">
        <ele>423.79998779297</ele>
        <time>2016-05-05T14:00:20.000Z</time>
      </trkpt>
      <trkpt lat="43.24049" lon="5.69209">
        <ele>424.79998779297</ele>
        <time>2016-05-05T14:00:26.000Z</time>
      </trkpt>
      <trkpt lat="43.24056" lon="5.69242">
        <ele>425.60000610352</ele>
        <time>2016-05-05T14:00:31.000Z</time>
      </trkpt>
      <trkpt lat="43.24072" lon="5.69302">
        <ele>426.20001220703</ele>
        <time>2016-05-05T14:00:40.000Z</time>
      </trkpt>
      <trkpt lat="43.24074" lon="5.69309">
        <ele>426.20001220703</ele>
        <time>2016-05-05T14:00:41.000Z</time>
      </trkpt>
      <trkpt lat="43.24091" lon="5.69352">
        <ele>426.20001220703</ele>
        <time>2016-05-05T14:00:48.000Z</time>
      </trkpt>
      <trkpt lat="43.24107" lon="5.69397">
        <ele>426.39999389648</ele>
        <time>2016-05-05T14:00:55.000Z</time>
      </trkpt>
      <trkpt lat="43.24113" lon="5.69417">
        <ele>426.79998779297</ele>
        <time>2016-05-05T14:00:58.000Z</time>
      </trkpt>
      <trkpt lat="43.24117" lon="5.6946">
        <ele>427.39999389648</ele>
        <time>2016-05-05T14:01:04.000Z</time>
      </trkpt>
      <trkpt lat="43.24114" lon="5.6953">
        <ele>425.79998779297</ele>
        <time>2016-05-05T14:01:13.000Z</time>
      </trkpt>
      <trkpt lat="43.24111" lon="5.69606">
        <ele>423.60000610352</ele>
        <time>2016-05-05T14:01:22.000Z</time>
      </trkpt>
      <trkpt lat="43.2411" lon="5.69623">
        <ele>423.20001220703</ele>
        <time>2016-05-05T14:01:24.000Z</time>
      </trkpt>
      <trkpt lat="43.2411" lon="5.69631">
        <ele>423</ele>
        <time>2016-05-05T14:01:25.000Z</time>
      </trkpt>
      <trkpt lat="43.24109" lon="5.69656">
        <ele>422.20001220703</ele>
        <time>2016-05-05T14:01:28.000Z</time>
      </trkpt>
      <trkpt lat="43.24107" lon="5.69689">
        <ele>421</ele>
        <time>2016-05-05T14:01:32.000Z</time>
      </trkpt>
      <trkpt lat="43.24106" lon="5.69713">
        <ele>420.20001220703</ele>
        <time>2016-05-05T14:01:35.000Z</time>
      </trkpt>
      <trkpt lat="43.24106" lon="5.69721">
        <ele>420</ele>
        <time>2016-05-05T14:01:36.000Z</time>
      </trkpt>
      <trkpt lat="43.24105" lon="5.69752">
        <ele>419.60000610352</ele>
        <time>2016-05-05T14:01:40.000Z</time>
      </trkpt>
      <trkpt lat="43.24104" lon="5.69776">
        <ele>419.20001220703</ele>
        <time>2016-05-05T14:01:43.000Z</time>
      </trkpt>
      <trkpt lat="43.24105" lon="5.69839">
        <ele>418.60000610352</ele>
        <time>2016-05-05T14:01:51.000Z</time>
      </trkpt>
      <trkpt lat="43.24106" lon="5.69847">
        <ele>418.60000610352</ele>
        <time>2016-05-05T14:01:52.000Z</time>
      </trkpt>
      <trkpt lat="43.24119" lon="5.6991">
        <ele>417.60000610352</ele>
        <time>2016-05-05T14:02:00.000Z</time>
      </trkpt>
      <trkpt lat="43.2413" lon="5.69964">
        <ele>415.39999389648</ele>
        <time>2016-05-05T14:02:07.000Z</time>
      </trkpt>
      <trkpt lat="43.24133" lon="5.6998">
        <ele>415.39999389648</ele>
        <time>2016-05-05T14:02:09.000Z</time>
      </trkpt>
      <trkpt lat="43.24149" lon="5.70057">
        <ele>416.39999389648</ele>
        <time>2016-05-05T14:02:19.000Z</time>
      </trkpt>
      <trkpt lat="43.24156" lon="5.70103">
        <ele>416.20001220703</ele>
        <time>2016-05-05T14:02:25.000Z</time>
      </trkpt>
      <trkpt lat="43.24157" lon="5.70158">
        <ele>416</ele>
        <time>2016-05-05T14:02:32.000Z</time>
      </trkpt>
      <trkpt lat="43.24157" lon="5.70166">
        <ele>416</ele>
        <time>2016-05-05T14:02:33.000Z</time>
      </trkpt>
      <trkpt lat="43.24157" lon="5.7022">
        <ele>415.60000610352</ele>
        <time>2016-05-05T14:02:39.000Z</time>
      </trkpt>
      <trkpt lat="43.24157" lon="5.70238">
        <ele>415.60000610352</ele>
        <time>2016-05-05T14:02:41.000Z</time>
      </trkpt>
      <trkpt lat="43.24157" lon="5.70266">
        <ele>415.60000610352</ele>
        <time>2016-05-05T14:02:44.000Z</time>
      </trkpt>
      <trkpt lat="43.24157" lon="5.7031">
        <ele>415.39999389648</ele>
        <time>2016-05-05T14:02:49.000Z</time>
      </trkpt>
      <trkpt lat="43.24157" lon="5.70319">
        <ele>415.60000610352</ele>
        <time>2016-05-05T14:02:50.000Z</time>
      </trkpt>
      <trkpt lat="43.24158" lon="5.70365">
        <ele>416.79998779297</ele>
        <time>2016-05-05T14:02:56.000Z</time>
      </trkpt>
      <trkpt lat="43.24159" lon="5.70379">
        <ele>416.60000610352</ele>
        <time>2016-05-05T14:02:58.000Z</time>
      </trkpt>
      <trkpt lat="43.2416" lon="5.70445">
        <ele>418</ele>
        <time>2016-05-05T14:03:07.000Z</time>
      </trkpt>
      <trkpt lat="43.24161" lon="5.7048">
        <ele>418</ele>
        <time>2016-05-05T14:03:12.000Z</time>
      </trkpt>
      <trkpt lat="43.24159" lon="5.70508">
        <ele>418.20001220703</ele>
        <time>2016-05-05T14:03:16.000Z</time>
      </trkpt>
      <trkpt lat="43.24156" lon="5.70535">
        <ele>418.39999389648</ele>
        <time>2016-05-05T14:03:20.000Z</time>
      </trkpt>
      <trkpt lat="43.24155" lon="5.70571">
        <ele>419</ele>
        <time>2016-05-05T14:03:25.000Z</time>
      </trkpt>
      <trkpt lat="43.24157" lon="5.70601">
        <ele>419.60000610352</ele>
        <time>2016-05-05T14:03:29.000Z</time>
      </trkpt>
      <trkpt lat="43.24159" lon="5.70616">
        <ele>419.79998779297</ele>
        <time>2016-05-05T14:03:31.000Z</time>
      </trkpt>
      <trkpt lat="43.24161" lon="5.70623">
        <ele>420</ele>
        <time>2016-05-05T14:03:32.000Z</time>
      </trkpt>
      <trkpt lat="43.24165" lon="5.70637">
        <ele>420.39999389648</ele>
        <time>2016-05-05T14:03:34.000Z</time>
      </trkpt>
      <trkpt lat="43.24171" lon="5.70657">
        <ele>421</ele>
        <time>2016-05-05T14:03:37.000Z</time>
      </trkpt>
      <trkpt lat="43.24178" lon="5.70677">
        <ele>421.39999389648</ele>
        <time>2016-05-05T14:03:40.000Z</time>
      </trkpt>
      <trkpt lat="43.24189" lon="5.70725">
        <ele>422.39999389648</ele>
        <time>2016-05-05T14:03:47.000Z</time>
      </trkpt>
      <trkpt lat="43.2419" lon="5.70732">
        <ele>422.60000610352</ele>
        <time>2016-05-05T14:03:48.000Z</time>
      </trkpt>
      <trkpt lat="43.24197" lon="5.70766">
        <ele>422.79998779297</ele>
        <time>2016-05-05T14:03:53.000Z</time>
      </trkpt>
      <trkpt lat="43.24202" lon="5.70795">
        <ele>423.20001220703</ele>
        <time>2016-05-05T14:03:57.000Z</time>
      </trkpt>
      <trkpt lat="43.24209" lon="5.70861">
        <ele>425.60000610352</ele>
        <time>2016-05-05T14:04:06.000Z</time>
      </trkpt>
      <trkpt lat="43.24214" lon="5.70914">
        <ele>427.60000610352</ele>
        <time>2016-05-05T14:04:14.000Z</time>
      </trkpt>
      <trkpt lat="43.24218" lon="5.70926">
        <ele>428.20001220703</ele>
        <time>2016-05-05T14:04:16.000Z</time>
      </trkpt>
      <trkpt lat="43.24224" lon="5.70943">
        <ele>429</ele>
        <time>2016-05-05T14:04:19.000Z</time>
      </trkpt>
      <trkpt lat="43.24229" lon="5.70953">
        <ele>429.39999389648</ele>
        <time>2016-05-05T14:04:21.000Z</time>
      </trkpt>
      <trkpt lat="43.24234" lon="5.70964">
        <ele>429.79998779297</ele>
        <time>2016-05-05T14:04:23.000Z</time>
      </trkpt>
      <trkpt lat="43.24244" lon="5.70985">
        <ele>430.79998779297</ele>
        <time>2016-05-05T14:04:27.000Z</time>
      </trkpt>
      <trkpt lat="43.24251" lon="5.71002">
        <ele>431.60000610352</ele>
        <time>2016-05-05T14:04:30.000Z</time>
      </trkpt>
      <trkpt lat="43.24255" lon="5.71014">
        <ele>432</ele>
        <time>2016-05-05T14:04:32.000Z</time>
      </trkpt>
      <trkpt lat="43.24265" lon="5.71052">
        <ele>433.20001220703</ele>
        <time>2016-05-05T14:04:38.000Z</time>
      </trkpt>
      <trkpt lat="43.24267" lon="5.71059">
        <ele>433.20001220703</ele>
        <time>2016-05-05T14:04:39.000Z</time>
      </trkpt>
      <trkpt lat="43.24273" lon="5.71107">
        <ele>434.60000610352</ele>
        <time>2016-05-05T14:04:46.000Z</time>
      </trkpt>
      <trkpt lat="43.24272" lon="5.71163">
        <ele>435.60000610352</ele>
        <time>2016-05-05T14:04:53.000Z</time>
      </trkpt>
      <trkpt lat="43.24269" lon="5.71224">
        <ele>436.20001220703</ele>
        <time>2016-05-05T14:05:01.000Z</time>
      </trkpt>
      <trkpt lat="43.24266" lon="5.71296">
        <ele>437</ele>
        <time>2016-05-05T14:05:11.000Z</time>
      </trkpt>
      <trkpt lat="43.24268" lon="5.71318">
        <ele>437</ele>
        <time>2016-05-05T14:05:14.000Z</time>
      </trkpt>
      <trkpt lat="43.24274" lon="5.71361">
        <ele>436.20001220703</ele>
        <time>2016-05-05T14:05:20.000Z</time>
      </trkpt>
      <trkpt lat="43.24287" lon="5.71415">
        <ele>436.39999389648</ele>
        <time>2016-05-05T14:05:28.000Z</time>
      </trkpt>
      <trkpt lat="43.24295" lon="5.71442">
        <ele>437</ele>
        <time>2016-05-05T14:05:32.000Z</time>
      </trkpt>
      <trkpt lat="43.24306" lon="5.71472">
        <ele>437.60000610352</ele>
        <time>2016-05-05T14:05:37.000Z</time>
      </trkpt>
      <trkpt lat="43.24326" lon="5.71527">
        <ele>440.20001220703</ele>
        <time>2016-05-05T14:05:46.000Z</time>
      </trkpt>
      <trkpt lat="43.24332" lon="5.71539">
        <ele>440.79998779297</ele>
        <time>2016-05-05T14:05:48.000Z</time>
      </trkpt>
      <trkpt lat="43.24346" lon="5.71575">
        <ele>442.20001220703</ele>
        <time>2016-05-05T14:05:54.000Z</time>
      </trkpt>
      <trkpt lat="43.24348" lon="5.71581">
        <ele>442.39999389648</ele>
        <time>2016-05-05T14:05:55.000Z</time>
      </trkpt>
      <trkpt lat="43.24357" lon="5.71598">
        <ele>443</ele>
        <time>2016-05-05T14:05:58.000Z</time>
      </trkpt>
      <trkpt lat="43.24366" lon="5.7162">
        <ele>443.60000610352</ele>
        <time>2016-05-05T14:06:02.000Z</time>
      </trkpt>
      <trkpt lat="43.24371" lon="5.71631">
        <ele>443.79998779297</ele>
        <time>2016-05-05T14:06:04.000Z</time>
      </trkpt>
      <trkpt lat="43.24373" lon="5.71637">
        <ele>444</ele>
        <time>2016-05-05T14:06:05.000Z</time>
      </trkpt>
      <trkpt lat="43.24384" lon="5.71678">
        <ele>443</ele>
        <time>2016-05-05T14:06:11.000Z</time>
      </trkpt>
      <trkpt lat="43.24391" lon="5.71736">
        <ele>441</ele>
        <time>2016-05-05T14:06:19.000Z</time>
      </trkpt>
      <trkpt lat="43.24399" lon="5.718">
        <ele>439.39999389648</ele>
        <time>2016-05-05T14:06:28.000Z</time>
      </trkpt>
      <trkpt lat="43.24408" lon="5.71871">
        <ele>439.39999389648</ele>
        <time>2016-05-05T14:06:38.000Z</time>
      </trkpt>
      <trkpt lat="43.24419" lon="5.71918">
        <ele>438</ele>
        <time>2016-05-05T14:06:45.000Z</time>
      </trkpt>
      <trkpt lat="43.24439" lon="5.71947">
        <ele>437.60000610352</ele>
        <time>2016-05-05T14:06:50.000Z</time>
      </trkpt>
      <trkpt lat="43.24448" lon="5.71957">
        <ele>437.60000610352</ele>
        <time>2016-05-05T14:06:52.000Z</time>
      </trkpt>
      <trkpt lat="43.24466" lon="5.71978">
        <ele>437.39999389648</ele>
        <time>2016-05-05T14:06:56.000Z</time>
      </trkpt>
      <trkpt lat="43.24485" lon="5.71999">
        <ele>437</ele>
        <time>2016-05-05T14:07:00.000Z</time>
      </trkpt>
      <trkpt lat="43.24494" lon="5.72009">
        <ele>436.79998779297</ele>
        <time>2016-05-05T14:07:02.000Z</time>
      </trkpt>
      <trkpt lat="43.24517" lon="5.72034">
        <ele>436.60000610352</ele>
        <time>2016-05-05T14:07:07.000Z</time>
      </trkpt>
      <trkpt lat="43.24526" lon="5.72045">
        <ele>436.60000610352</ele>
        <time>2016-05-05T14:07:09.000Z</time>
      </trkpt>
      <trkpt lat="43.24548" lon="5.72073">
        <ele>437.60000610352</ele>
        <time>2016-05-05T14:07:14.000Z</time>
      </trkpt>
      <trkpt lat="43.24556" lon="5.72087">
        <ele>437.79998779297</ele>
        <time>2016-05-05T14:07:16.000Z</time>
      </trkpt>
      <trkpt lat="43.24568" lon="5.72121">
        <ele>438.39999389648</ele>
        <time>2016-05-05T14:07:21.000Z</time>
      </trkpt>
      <trkpt lat="43.24585" lon="5.72163">
        <ele>438.79998779297</ele>
        <time>2016-05-05T14:07:28.000Z</time>
      </trkpt>
      <trkpt lat="43.24588" lon="5.72168">
        <ele>438.79998779297</ele>
        <time>2016-05-05T14:07:29.000Z</time>
      </trkpt>
      <trkpt lat="43.24596" lon="5.72177">
        <ele>439</ele>
        <time>2016-05-05T14:07:31.000Z</time>
      </trkpt>
      <trkpt lat="43.24614" lon="5.72193">
        <ele>439.20001220703</ele>
        <time>2016-05-05T14:07:35.000Z</time>
      </trkpt>
      <trkpt lat="43.24629" lon="5.72202">
        <ele>439.60000610352</ele>
        <time>2016-05-05T14:07:38.000Z</time>
      </trkpt>
      <trkpt lat="43.24647" lon="5.72208">
        <ele>440.20001220703</ele>
        <time>2016-05-05T14:07:41.000Z</time>
      </trkpt>
      <trkpt lat="43.24658" lon="5.72215">
        <ele>440.39999389648</ele>
        <time>2016-05-05T14:07:43.000Z</time>
      </trkpt>
      <trkpt lat="43.2467" lon="5.72228">
        <ele>440.39999389648</ele>
        <time>2016-05-05T14:07:46.000Z</time>
      </trkpt>
      <trkpt lat="43.24678" lon="5.72255">
        <ele>439.79998779297</ele>
        <time>2016-05-05T14:07:50.000Z</time>
      </trkpt>
      <trkpt lat="43.2468" lon="5.72262">
        <ele>439.60000610352</ele>
        <time>2016-05-05T14:07:51.000Z</time>
      </trkpt>
      <trkpt lat="43.24684" lon="5.72291">
        <ele>438.79998779297</ele>
        <time>2016-05-05T14:07:55.000Z</time>
      </trkpt>
      <trkpt lat="43.24685" lon="5.72306">
        <ele>438.39999389648</ele>
        <time>2016-05-05T14:07:57.000Z</time>
      </trkpt>
      <trkpt lat="43.24694" lon="5.72381">
        <ele>435.60000610352</ele>
        <time>2016-05-05T14:08:07.000Z</time>
      </trkpt>
      <trkpt lat="43.24695" lon="5.72388">
        <ele>435.39999389648</ele>
        <time>2016-05-05T14:08:08.000Z</time>
      </trkpt>
      <trkpt lat="43.24697" lon="5.72402">
        <ele>435</ele>
        <time>2016-05-05T14:08:10.000Z</time>
      </trkpt>
      <trkpt lat="43.24707" lon="5.72458">
        <ele>434.79998779297</ele>
        <time>2016-05-05T14:08:18.000Z</time>
      </trkpt>
      <trkpt lat="43.24724" lon="5.72519">
        <ele>434.60000610352</ele>
        <time>2016-05-05T14:08:27.000Z</time>
      </trkpt>
      <trkpt lat="43.24733" lon="5.7254">
        <ele>434.60000610352</ele>
        <time>2016-05-05T14:08:30.000Z</time>
      </trkpt>
      <trkpt lat="43.2475" lon="5.72573">
        <ele>434.60000610352</ele>
        <time>2016-05-05T14:08:35.000Z</time>
      </trkpt>
      <trkpt lat="43.24753" lon="5.7258">
        <ele>434.60000610352</ele>
        <time>2016-05-05T14:08:36.000Z</time>
      </trkpt>
      <trkpt lat="43.24774" lon="5.72621">
        <ele>434</ele>
        <time>2016-05-05T14:08:42.000Z</time>
      </trkpt>
      <trkpt lat="43.24785" lon="5.72642">
        <ele>433.79998779297</ele>
        <time>2016-05-05T14:08:45.000Z</time>
      </trkpt>
      <trkpt lat="43.24791" lon="5.72655">
        <ele>433.79998779297</ele>
        <time>2016-05-05T14:08:47.000Z</time>
      </trkpt>
      <trkpt lat="43.24814" lon="5.72699">
        <ele>434.20001220703</ele>
        <time>2016-05-05T14:08:54.000Z</time>
      </trkpt>
      <trkpt lat="43.24829" lon="5.72724">
        <ele>434.39999389648</ele>
        <time>2016-05-05T14:08:58.000Z</time>
      </trkpt>
      <trkpt lat="43.24848" lon="5.72761">
        <ele>434</ele>
        <time>2016-05-05T14:09:04.000Z</time>
      </trkpt>
      <trkpt lat="43.24877" lon="5.7281">
        <ele>433</ele>
        <time>2016-05-05T14:09:12.000Z</time>
      </trkpt>
      <trkpt lat="43.24912" lon="5.72857">
        <ele>433</ele>
        <time>2016-05-05T14:09:21.000Z</time>
      </trkpt>
      <trkpt lat="43.24922" lon="5.72864">
        <ele>433</ele>
        <time>2016-05-05T14:09:23.000Z</time>
      </trkpt>
      <trkpt lat="43.24944" lon="5.72876">
        <ele>433.39999389648</ele>
        <time>2016-05-05T14:09:27.000Z</time>
      </trkpt>
      <trkpt lat="43.24961" lon="5.7288">
        <ele>433.79998779297</ele>
        <time>2016-05-05T14:09:30.000Z</time>
      </trkpt>
      <trkpt lat="43.24967" lon="5.7288">
        <ele>434</ele>
        <time>2016-05-05T14:09:31.000Z</time>
      </trkpt>
      <trkpt lat="43.24973" lon="5.72879">
        <ele>434</ele>
        <time>2016-05-05T14:09:32.000Z</time>
      </trkpt>
      <trkpt lat="43.24998" lon="5.72885">
        <ele>434.60000610352</ele>
        <time>2016-05-05T14:09:36.000Z</time>
      </trkpt>
      <trkpt lat="43.25003" lon="5.7289">
        <ele>434.79998779297</ele>
        <time>2016-05-05T14:09:37.000Z</time>
      </trkpt>
      <trkpt lat="43.25007" lon="5.72896">
        <ele>434.79998779297</ele>
        <time>2016-05-05T14:09:38.000Z</time>
      </trkpt>
      <trkpt lat="43.25012" lon="5.7291">
        <ele>434.79998779297</ele>
        <time>2016-05-05T14:09:40.000Z</time>
      </trkpt>
      <trkpt lat="43.25016" lon="5.7294">
        <ele>434.39999389648</ele>
        <time>2016-05-05T14:09:44.000Z</time>
      </trkpt>
      <trkpt lat="43.25017" lon="5.72948">
        <ele>434.39999389648</ele>
        <time>2016-05-05T14:09:45.000Z</time>
      </trkpt>
      <trkpt lat="43.25029" lon="5.72999">
        <ele>433.20001220703</ele>
        <time>2016-05-05T14:09:52.000Z</time>
      </trkpt>
      <trkpt lat="43.2504" lon="5.7304">
        <ele>431.79998779297</ele>
        <time>2016-05-05T14:09:57.000Z</time>
      </trkpt>
      <trkpt lat="43.25054" lon="5.73107">
        <ele>428.79998779297</ele>
        <time>2016-05-05T14:10:04.000Z</time>
      </trkpt>
      <trkpt lat="43.25055" lon="5.73117">
        <ele>428.20001220703</ele>
        <time>2016-05-05T14:10:05.000Z</time>
      </trkpt>
      <trkpt lat="43.25054" lon="5.73147">
        <ele>427.20001220703</ele>
        <time>2016-05-05T14:10:08.000Z</time>
      </trkpt>
      <trkpt lat="43.25053" lon="5.73156">
        <ele>427.39999389648</ele>
        <time>2016-05-05T14:10:09.000Z</time>
      </trkpt>
      <trkpt lat="43.2505" lon="5.73174">
        <ele>427.79998779297</ele>
        <time>2016-05-05T14:10:11.000Z</time>
      </trkpt>
      <trkpt lat="43.25045" lon="5.73217">
        <ele>426.39999389648</ele>
        <time>2016-05-05T14:10:16.000Z</time>
      </trkpt>
      <trkpt lat="43.25046" lon="5.73235">
        <ele>426.20001220703</ele>
        <time>2016-05-05T14:10:18.000Z</time>
      </trkpt>
      <trkpt lat="43.2505" lon="5.73272">
        <ele>426</ele>
        <time>2016-05-05T14:10:22.000Z</time>
      </trkpt>
      <trkpt lat="43.25059" lon="5.73308">
        <ele>426.20001220703</ele>
        <time>2016-05-05T14:10:26.000Z</time>
      </trkpt>
      <trkpt lat="43.25066" lon="5.73325">
        <ele>426.39999389648</ele>
        <time>2016-05-05T14:10:28.000Z</time>
      </trkpt>
      <trkpt lat="43.2507" lon="5.73333">
        <ele>426.39999389648</ele>
        <time>2016-05-05T14:10:29.000Z</time>
      </trkpt>
      <trkpt lat="43.25086" lon="5.73363">
        <ele>426.79998779297</ele>
        <time>2016-05-05T14:10:33.000Z</time>
      </trkpt>
      <trkpt lat="43.25104" lon="5.73392">
        <ele>426.79998779297</ele>
        <time>2016-05-05T14:10:37.000Z</time>
      </trkpt>
      <trkpt lat="43.25125" lon="5.73416">
        <ele>426</ele>
        <time>2016-05-05T14:10:41.000Z</time>
      </trkpt>
      <trkpt lat="43.25158" lon="5.73445">
        <ele>425</ele>
        <time>2016-05-05T14:10:47.000Z</time>
      </trkpt>
      <trkpt lat="43.2518" lon="5.73468">
        <ele>424.20001220703</ele>
        <time>2016-05-05T14:10:51.000Z</time>
      </trkpt>
      <trkpt lat="43.25185" lon="5.73477">
        <ele>424</ele>
        <time>2016-05-05T14:10:52.000Z</time>
      </trkpt>
      <trkpt lat="43.25193" lon="5.73508">
        <ele>423.79998779297</ele>
        <time>2016-05-05T14:10:55.000Z</time>
      </trkpt>
      <trkpt lat="43.25195" lon="5.73519">
        <ele>423.79998779297</ele>
        <time>2016-05-05T14:10:56.000Z</time>
      </trkpt>
      <trkpt lat="43.25207" lon="5.73581">
        <ele>423.39999389648</ele>
        <time>2016-05-05T14:11:02.000Z</time>
      </trkpt>
      <trkpt lat="43.25214" lon="5.73619">
        <ele>423</ele>
        <time>2016-05-05T14:11:06.000Z</time>
      </trkpt>
      <trkpt lat="43.25219" lon="5.73648">
        <ele>422.60000610352</ele>
        <time>2016-05-05T14:11:09.000Z</time>
      </trkpt>
      <trkpt lat="43.25221" lon="5.73657">
        <ele>422.20001220703</ele>
        <time>2016-05-05T14:11:10.000Z</time>
      </trkpt>
      <trkpt lat="43.25228" lon="5.73689">
        <ele>421.39999389648</ele>
        <time>2016-05-05T14:11:13.000Z</time>
      </trkpt>
      <trkpt lat="43.25234" lon="5.73721">
        <ele>420.60000610352</ele>
        <time>2016-05-05T14:11:16.000Z</time>
      </trkpt>
      <trkpt lat="43.25239" lon="5.73742">
        <ele>420.20001220703</ele>
        <time>2016-05-05T14:11:18.000Z</time>
      </trkpt>
      <trkpt lat="43.25251" lon="5.73781">
        <ele>419.39999389648</ele>
        <time>2016-05-05T14:11:22.000Z</time>
      </trkpt>
      <trkpt lat="43.25272" lon="5.73848">
        <ele>418.39999389648</ele>
        <time>2016-05-05T14:11:29.000Z</time>
      </trkpt>
      <trkpt lat="43.25278" lon="5.73867">
        <ele>418</ele>
        <time>2016-05-05T14:11:31.000Z</time>
      </trkpt>
      <trkpt lat="43.25303" lon="5.73941">
        <ele>416.60000610352</ele>
        <time>2016-05-05T14:11:39.000Z</time>
      </trkpt>
      <trkpt lat="43.25306" lon="5.7395">
        <ele>416.20001220703</ele>
        <time>2016-05-05T14:11:40.000Z</time>
      </trkpt>
      <trkpt lat="43.25331" lon="5.74025">
        <ele>415.20001220703</ele>
        <time>2016-05-05T14:11:48.000Z</time>
      </trkpt>
      <trkpt lat="43.25334" lon="5.74034">
        <ele>415</ele>
        <time>2016-05-05T14:11:49.000Z</time>
      </trkpt>
      <trkpt lat="43.25356" lon="5.74106">
        <ele>415.20001220703</ele>
        <time>2016-05-05T14:11:57.000Z</time>
      </trkpt>
      <trkpt lat="43.25373" lon="5.74165">
        <ele>414.39999389648</ele>
        <time>2016-05-05T14:12:04.000Z</time>
      </trkpt>
      <trkpt lat="43.25387" lon="5.74237">
        <ele>413.60000610352</ele>
        <time>2016-05-05T14:12:12.000Z</time>
      </trkpt>
      <trkpt lat="43.25388" lon="5.74246">
        <ele>413.39999389648</ele>
        <time>2016-05-05T14:12:13.000Z</time>
      </trkpt>
      <trkpt lat="43.25398" lon="5.74314">
        <ele>412.20001220703</ele>
        <time>2016-05-05T14:12:20.000Z</time>
      </trkpt>
      <trkpt lat="43.254" lon="5.74323">
        <ele>412</ele>
        <time>2016-05-05T14:12:21.000Z</time>
      </trkpt>
      <trkpt lat="43.25407" lon="5.74352">
        <ele>411.79998779297</ele>
        <time>2016-05-05T14:12:24.000Z</time>
      </trkpt>
      <trkpt lat="43.25414" lon="5.74389">
        <ele>411.20001220703</ele>
        <time>2016-05-05T14:12:28.000Z</time>
      </trkpt>
      <trkpt lat="43.25419" lon="5.74406">
        <ele>410.79998779297</ele>
        <time>2016-05-05T14:12:30.000Z</time>
      </trkpt>
      <trkpt lat="43.25432" lon="5.74452">
        <ele>410.20001220703</ele>
        <time>2016-05-05T14:12:35.000Z</time>
      </trkpt>
      <trkpt lat="43.25441" lon="5.74479">
        <ele>409.79998779297</ele>
        <time>2016-05-05T14:12:38.000Z</time>
      </trkpt>
      <trkpt lat="43.25459" lon="5.74522">
        <ele>409.20001220703</ele>
        <time>2016-05-05T14:12:43.000Z</time>
      </trkpt>
      <trkpt lat="43.25463" lon="5.74531">
        <ele>409.20001220703</ele>
        <time>2016-05-05T14:12:44.000Z</time>
      </trkpt>
      <trkpt lat="43.25482" lon="5.74573">
        <ele>409</ele>
        <time>2016-05-05T14:12:49.000Z</time>
      </trkpt>
      <trkpt lat="43.25493" lon="5.74598">
        <ele>409</ele>
        <time>2016-05-05T14:12:52.000Z</time>
      </trkpt>
      <trkpt lat="43.25521" lon="5.7466">
        <ele>408.20001220703</ele>
        <time>2016-05-05T14:13:00.000Z</time>
      </trkpt>
      <trkpt lat="43.25552" lon="5.74731">
        <ele>406</ele>
        <time>2016-05-05T14:13:09.000Z</time>
      </trkpt>
      <trkpt lat="43.25555" lon="5.74739">
        <ele>406</ele>
        <time>2016-05-05T14:13:10.000Z</time>
      </trkpt>
      <trkpt lat="43.25563" lon="5.74772">
        <ele>405.79998779297</ele>
        <time>2016-05-05T14:13:14.000Z</time>
      </trkpt>
      <trkpt lat="43.25578" lon="5.74829">
        <ele>405.39999389648</ele>
        <time>2016-05-05T14:13:21.000Z</time>
      </trkpt>
      <trkpt lat="43.25596" lon="5.74874">
        <ele>405</ele>
        <time>2016-05-05T14:13:27.000Z</time>
      </trkpt>
      <trkpt lat="43.25602" lon="5.74888">
        <ele>404.79998779297</ele>
        <time>2016-05-05T14:13:29.000Z</time>
      </trkpt>
      <trkpt lat="43.25617" lon="5.74926">
        <ele>404</ele>
        <time>2016-05-05T14:13:35.000Z</time>
      </trkpt>
      <trkpt lat="43.2562" lon="5.74932">
        <ele>404</ele>
        <time>2016-05-05T14:13:36.000Z</time>
      </trkpt>
      <trkpt lat="43.25635" lon="5.74964">
        <ele>403.20001220703</ele>
        <time>2016-05-05T14:13:43.000Z</time>
      </trkpt>
      <trkpt lat="43.25637" lon="5.74967">
        <ele>403</ele>
        <time>2016-05-05T14:13:44.000Z</time>
      </trkpt>
      <trkpt lat="43.25636" lon="5.74976">
        <ele>403</ele>
        <time>2016-05-05T14:14:11.000Z</time>
      </trkpt>
      <trkpt lat="43.2563" lon="5.74984">
        <ele>403.39999389648</ele>
        <time>2016-05-05T14:14:14.000Z</time>
      </trkpt>
      <trkpt lat="43.25618" lon="5.74997">
        <ele>403.79998779297</ele>
        <time>2016-05-05T14:14:17.000Z</time>
      </trkpt>
      <trkpt lat="43.25614" lon="5.75002">
        <ele>404</ele>
        <time>2016-05-05T14:14:18.000Z</time>
      </trkpt>
      <trkpt lat="43.25584" lon="5.75042">
        <ele>405.20001220703</ele>
        <time>2016-05-05T14:14:26.000Z</time>
      </trkpt>
      <trkpt lat="43.25547" lon="5.75091">
        <ele>405.79998779297</ele>
        <time>2016-05-05T14:14:35.000Z</time>
      </trkpt>
      <trkpt lat="43.25508" lon="5.75142">
        <ele>405.20001220703</ele>
        <time>2016-05-05T14:14:44.000Z</time>
      </trkpt>
      <trkpt lat="43.25471" lon="5.75193">
        <ele>405.20001220703</ele>
        <time>2016-05-05T14:14:53.000Z</time>
      </trkpt>
      <trkpt lat="43.25436" lon="5.75239">
        <ele>403</ele>
        <time>2016-05-05T14:15:01.000Z</time>
      </trkpt>
      <trkpt lat="43.25404" lon="5.75281">
        <ele>401.60000610352</ele>
        <time>2016-05-05T14:15:08.000Z</time>
      </trkpt>
      <trkpt lat="43.25367" lon="5.7533">
        <ele>401.20001220703</ele>
        <time>2016-05-05T14:15:16.000Z</time>
      </trkpt>
      <trkpt lat="43.25362" lon="5.75337">
        <ele>400.79998779297</ele>
        <time>2016-05-05T14:15:17.000Z</time>
      </trkpt>
      <trkpt lat="43.2534" lon="5.75369">
        <ele>399.60000610352</ele>
        <time>2016-05-05T14:15:22.000Z</time>
      </trkpt>
      <trkpt lat="43.25321" lon="5.75392">
        <ele>400.20001220703</ele>
        <time>2016-05-05T14:15:26.000Z</time>
      </trkpt>
      <trkpt lat="43.25292" lon="5.75422">
        <ele>402.20001220703</ele>
        <time>2016-05-05T14:15:32.000Z</time>
      </trkpt>
      <trkpt lat="43.2525" lon="5.75461">
        <ele>401.20001220703</ele>
        <time>2016-05-05T14:15:40.000Z</time>
      </trkpt>
      <trkpt lat="43.25204" lon="5.75504">
        <ele>400.79998779297</ele>
        <time>2016-05-05T14:15:49.000Z</time>
      </trkpt>
      <trkpt lat="43.25189" lon="5.75519">
        <ele>398.60000610352</ele>
        <time>2016-05-05T14:15:52.000Z</time>
      </trkpt>
      <trkpt lat="43.25173" lon="5.75535">
        <ele>397</ele>
        <time>2016-05-05T14:15:55.000Z</time>
      </trkpt>
      <trkpt lat="43.25148" lon="5.75559">
        <ele>396</ele>
        <time>2016-05-05T14:15:59.000Z</time>
      </trkpt>
      <trkpt lat="43.25141" lon="5.75565">
        <ele>395.79998779297</ele>
        <time>2016-05-05T14:16:00.000Z</time>
      </trkpt>
      <trkpt lat="43.25121" lon="5.75587">
        <ele>395.20001220703</ele>
        <time>2016-05-05T14:16:03.000Z</time>
      </trkpt>
      <trkpt lat="43.25109" lon="5.75603">
        <ele>393.60000610352</ele>
        <time>2016-05-05T14:16:05.000Z</time>
      </trkpt>
      <trkpt lat="43.25096" lon="5.7562">
        <ele>392</ele>
        <time>2016-05-05T14:16:07.000Z</time>
      </trkpt>
      <trkpt lat="43.25077" lon="5.75645">
        <ele>391</ele>
        <time>2016-05-05T14:16:10.000Z</time>
      </trkpt>
      <trkpt lat="43.25064" lon="5.75662">
        <ele>391</ele>
        <time>2016-05-05T14:16:12.000Z</time>
      </trkpt>
      <trkpt lat="43.2505" lon="5.75678">
        <ele>390.79998779297</ele>
        <time>2016-05-05T14:16:14.000Z</time>
      </trkpt>
      <trkpt lat="43.25035" lon="5.75695">
        <ele>388.20001220703</ele>
        <time>2016-05-05T14:16:16.000Z</time>
      </trkpt>
      <trkpt lat="43.25019" lon="5.75712">
        <ele>385.39999389648</ele>
        <time>2016-05-05T14:16:18.000Z</time>
      </trkpt>
      <trkpt lat="43.25011" lon="5.7572">
        <ele>384</ele>
        <time>2016-05-05T14:16:19.000Z</time>
      </trkpt>
      <trkpt lat="43.24994" lon="5.75739">
        <ele>384.60000610352</ele>
        <time>2016-05-05T14:16:21.000Z</time>
      </trkpt>
      <trkpt lat="43.24976" lon="5.75757">
        <ele>385.39999389648</ele>
        <time>2016-05-05T14:16:23.000Z</time>
      </trkpt>
      <trkpt lat="43.24966" lon="5.75768">
        <ele>384.39999389648</ele>
        <time>2016-05-05T14:16:24.000Z</time>
      </trkpt>
      <trkpt lat="43.24958" lon="5.75778">
        <ele>381.79998779297</ele>
        <time>2016-05-05T14:16:25.000Z</time>
      </trkpt>
      <trkpt lat="43.2494" lon="5.75798">
        <ele>377</ele>
        <time>2016-05-05T14:16:27.000Z</time>
      </trkpt>
      <trkpt lat="43.24922" lon="5.75818">
        <ele>375.20001220703</ele>
        <time>2016-05-05T14:16:29.000Z</time>
      </trkpt>
      <trkpt lat="43.24905" lon="5.75836">
        <ele>376</ele>
        <time>2016-05-05T14:16:31.000Z</time>
      </trkpt>
      <trkpt lat="43.24889" lon="5.75854">
        <ele>375.79998779297</ele>
        <time>2016-05-05T14:16:33.000Z</time>
      </trkpt>
      <trkpt lat="43.24873" lon="5.75872">
        <ele>371.20001220703</ele>
        <time>2016-05-05T14:16:35.000Z</time>
      </trkpt>
      <trkpt lat="43.24865" lon="5.7588">
        <ele>368.79998779297</ele>
        <time>2016-05-05T14:16:36.000Z</time>
      </trkpt>
      <trkpt lat="43.24856" lon="5.75888">
        <ele>366.60000610352</ele>
        <time>2016-05-05T14:16:37.000Z</time>
      </trkpt>
      <trkpt lat="43.24847" lon="5.75896">
        <ele>366</ele>
        <time>2016-05-05T14:16:38.000Z</time>
      </trkpt>
      <trkpt lat="43.24838" lon="5.75904">
        <ele>366.60000610352</ele>
        <time>2016-05-05T14:16:39.000Z</time>
      </trkpt>
      <trkpt lat="43.2482" lon="5.75918">
        <ele>368.60000610352</ele>
        <time>2016-05-05T14:16:41.000Z</time>
      </trkpt>
      <trkpt lat="43.24811" lon="5.75926">
        <ele>369.60000610352</ele>
        <time>2016-05-05T14:16:42.000Z</time>
      </trkpt>
      <trkpt lat="43.24802" lon="5.75934">
        <ele>369.79998779297</ele>
        <time>2016-05-05T14:16:43.000Z</time>
      </trkpt>
      <trkpt lat="43.24785" lon="5.75952">
        <ele>366.39999389648</ele>
        <time>2016-05-05T14:16:45.000Z</time>
      </trkpt>
      <trkpt lat="43.24778" lon="5.75961">
        <ele>364.79998779297</ele>
        <time>2016-05-05T14:16:46.000Z</time>
      </trkpt>
      <trkpt lat="43.2477" lon="5.7597">
        <ele>363.20001220703</ele>
        <time>2016-05-05T14:16:47.000Z</time>
      </trkpt>
      <trkpt lat="43.24763" lon="5.75979">
        <ele>362</ele>
        <time>2016-05-05T14:16:48.000Z</time>
      </trkpt>
      <trkpt lat="43.24748" lon="5.76001">
        <ele>360.79998779297</ele>
        <time>2016-05-05T14:16:50.000Z</time>
      </trkpt>
      <trkpt lat="43.24733" lon="5.76022">
        <ele>359.79998779297</ele>
        <time>2016-05-05T14:16:52.000Z</time>
      </trkpt>
      <trkpt lat="43.24711" lon="5.76053">
        <ele>354.79998779297</ele>
        <time>2016-05-05T14:16:55.000Z</time>
      </trkpt>
      <trkpt lat="43.24703" lon="5.76063">
        <ele>355.39999389648</ele>
        <time>2016-05-05T14:16:56.000Z</time>
      </trkpt>
      <trkpt lat="43.24679" lon="5.7609">
        <ele>348.79998779297</ele>
        <time>2016-05-05T14:16:59.000Z</time>
      </trkpt>
      <trkpt lat="43.24662" lon="5.76107">
        <ele>346</ele>
        <time>2016-05-05T14:17:01.000Z</time>
      </trkpt>
      <trkpt lat="43.24646" lon="5.76125">
        <ele>344.60000610352</ele>
        <time>2016-05-05T14:17:03.000Z</time>
      </trkpt>
      <trkpt lat="43.2463" lon="5.76143">
        <ele>344.39999389648</ele>
        <time>2016-05-05T14:17:05.000Z</time>
      </trkpt>
      <trkpt lat="43.24616" lon="5.76161">
        <ele>344.20001220703</ele>
        <time>2016-05-05T14:17:07.000Z</time>
      </trkpt>
      <trkpt lat="43.2461" lon="5.76171">
        <ele>341.60000610352</ele>
        <time>2016-05-05T14:17:08.000Z</time>
      </trkpt>
      <trkpt lat="43.24604" lon="5.76182">
        <ele>339</ele>
        <time>2016-05-05T14:17:09.000Z</time>
      </trkpt>
      <trkpt lat="43.24594" lon="5.76205">
        <ele>333.60000610352</ele>
        <time>2016-05-05T14:17:11.000Z</time>
      </trkpt>
      <trkpt lat="43.2459" lon="5.76216">
        <ele>330.79998779297</ele>
        <time>2016-05-05T14:17:12.000Z</time>
      </trkpt>
      <trkpt lat="43.24584" lon="5.76226">
        <ele>328.79998779297</ele>
        <time>2016-05-05T14:17:13.000Z</time>
      </trkpt>
      <trkpt lat="43.24579" lon="5.76235">
        <ele>326.60000610352</ele>
        <time>2016-05-05T14:17:14.000Z</time>
      </trkpt>
      <trkpt lat="43.24565" lon="5.7625">
        <ele>323</ele>
        <time>2016-05-05T14:17:16.000Z</time>
      </trkpt>
      <trkpt lat="43.24556" lon="5.76255">
        <ele>322</ele>
        <time>2016-05-05T14:17:17.000Z</time>
      </trkpt>
      <trkpt lat="43.24547" lon="5.76259">
        <ele>320.79998779297</ele>
        <time>2016-05-05T14:17:18.000Z</time>
      </trkpt>
      <trkpt lat="43.24538" lon="5.76262">
        <ele>319.39999389648</ele>
        <time>2016-05-05T14:17:19.000Z</time>
      </trkpt>
      <trkpt lat="43.24528" lon="5.76266">
        <ele>318.20001220703</ele>
        <time>2016-05-05T14:17:20.000Z</time>
      </trkpt>
      <trkpt lat="43.24518" lon="5.76268">
        <ele>317</ele>
        <time>2016-05-05T14:17:21.000Z</time>
      </trkpt>
      <trkpt lat="43.24499" lon="5.76274">
        <ele>314.79998779297</ele>
        <time>2016-05-05T14:17:23.000Z</time>
      </trkpt>
      <trkpt lat="43.2448" lon="5.76279">
        <ele>313.20001220703</ele>
        <time>2016-05-05T14:17:25.000Z</time>
      </trkpt>
      <trkpt lat="43.24461" lon="5.76283">
        <ele>312.60000610352</ele>
        <time>2016-05-05T14:17:27.000Z</time>
      </trkpt>
      <trkpt lat="43.24451" lon="5.76286">
        <ele>312.20001220703</ele>
        <time>2016-05-05T14:17:28.000Z</time>
      </trkpt>
      <trkpt lat="43.24441" lon="5.76288">
        <ele>311.79998779297</ele>
        <time>2016-05-05T14:17:29.000Z</time>
      </trkpt>
      <trkpt lat="43.2442" lon="5.76293">
        <ele>310.39999389648</ele>
        <time>2016-05-05T14:17:31.000Z</time>
      </trkpt>
      <trkpt lat="43.24409" lon="5.76296">
        <ele>310</ele>
        <time>2016-05-05T14:17:32.000Z</time>
      </trkpt>
      <trkpt lat="43.24398" lon="5.76299">
        <ele>309.60000610352</ele>
        <time>2016-05-05T14:17:33.000Z</time>
      </trkpt>
      <trkpt lat="43.24387" lon="5.76303">
        <ele>309.20001220703</ele>
        <time>2016-05-05T14:17:34.000Z</time>
      </trkpt>
      <trkpt lat="43.24376" lon="5.76307">
        <ele>308.60000610352</ele>
        <time>2016-05-05T14:17:35.000Z</time>
      </trkpt>
      <trkpt lat="43.24353" lon="5.76316">
        <ele>307</ele>
        <time>2016-05-05T14:17:37.000Z</time>
      </trkpt>
      <trkpt lat="43.24342" lon="5.76321">
        <ele>304.79998779297</ele>
        <time>2016-05-05T14:17:38.000Z</time>
      </trkpt>
      <trkpt lat="43.24331" lon="5.76326">
        <ele>302.60000610352</ele>
        <time>2016-05-05T14:17:39.000Z</time>
      </trkpt>
      <trkpt lat="43.2432" lon="5.76332">
        <ele>300.39999389648</ele>
        <time>2016-05-05T14:17:40.000Z</time>
      </trkpt>
      <trkpt lat="43.2431" lon="5.76336">
        <ele>298.20001220703</ele>
        <time>2016-05-05T14:17:41.000Z</time>
      </trkpt>
      <trkpt lat="43.243" lon="5.76341">
        <ele>296.20001220703</ele>
        <time>2016-05-05T14:17:42.000Z</time>
      </trkpt>
      <trkpt lat="43.2429" lon="5.76344">
        <ele>296.20001220703</ele>
        <time>2016-05-05T14:17:43.000Z</time>
      </trkpt>
      <trkpt lat="43.24281" lon="5.76345">
        <ele>296.39999389648</ele>
        <time>2016-05-05T14:17:44.000Z</time>
      </trkpt>
      <trkpt lat="43.24272" lon="5.76345">
        <ele>297</ele>
        <time>2016-05-05T14:17:45.000Z</time>
      </trkpt>
      <trkpt lat="43.24263" lon="5.76342">
        <ele>298.20001220703</ele>
        <time>2016-05-05T14:17:46.000Z</time>
      </trkpt>
      <trkpt lat="43.24253" lon="5.76336">
        <ele>298.20001220703</ele>
        <time>2016-05-05T14:17:47.000Z</time>
      </trkpt>
      <trkpt lat="43.24245" lon="5.76328">
        <ele>298.39999389648</ele>
        <time>2016-05-05T14:17:48.000Z</time>
      </trkpt>
      <trkpt lat="43.24235" lon="5.76322">
        <ele>298.39999389648</ele>
        <time>2016-05-05T14:17:49.000Z</time>
      </trkpt>
      <trkpt lat="43.24226" lon="5.76318">
        <ele>298</ele>
        <time>2016-05-05T14:17:50.000Z</time>
      </trkpt>
      <trkpt lat="43.24216" lon="5.76317">
        <ele>297</ele>
        <time>2016-05-05T14:17:51.000Z</time>
      </trkpt>
      <trkpt lat="43.24206" lon="5.76317">
        <ele>296</ele>
        <time>2016-05-05T14:17:52.000Z</time>
      </trkpt>
      <trkpt lat="43.24196" lon="5.76319">
        <ele>294.60000610352</ele>
        <time>2016-05-05T14:17:53.000Z</time>
      </trkpt>
      <trkpt lat="43.24176" lon="5.76322">
        <ele>291.60000610352</ele>
        <time>2016-05-05T14:17:55.000Z</time>
      </trkpt>
      <trkpt lat="43.24165" lon="5.76323">
        <ele>290.39999389648</ele>
        <time>2016-05-05T14:17:56.000Z</time>
      </trkpt>
      <trkpt lat="43.24154" lon="5.76324">
        <ele>289</ele>
        <time>2016-05-05T14:17:57.000Z</time>
      </trkpt>
      <trkpt lat="43.24143" lon="5.76322">
        <ele>288.20001220703</ele>
        <time>2016-05-05T14:17:58.000Z</time>
      </trkpt>
      <trkpt lat="43.24132" lon="5.76318">
        <ele>287.60000610352</ele>
        <time>2016-05-05T14:17:59.000Z</time>
      </trkpt>
      <trkpt lat="43.24122" lon="5.76313">
        <ele>287.39999389648</ele>
        <time>2016-05-05T14:18:00.000Z</time>
      </trkpt>
      <trkpt lat="43.24111" lon="5.76308">
        <ele>287</ele>
        <time>2016-05-05T14:18:01.000Z</time>
      </trkpt>
      <trkpt lat="43.24101" lon="5.76304">
        <ele>286.60000610352</ele>
        <time>2016-05-05T14:18:02.000Z</time>
      </trkpt>
      <trkpt lat="43.2409" lon="5.76302">
        <ele>286.20001220703</ele>
        <time>2016-05-05T14:18:03.000Z</time>
      </trkpt>
      <trkpt lat="43.24079" lon="5.76302">
        <ele>286.20001220703</ele>
        <time>2016-05-05T14:18:04.000Z</time>
      </trkpt>
      <trkpt lat="43.24068" lon="5.76304">
        <ele>286</ele>
        <time>2016-05-05T14:18:05.000Z</time>
      </trkpt>
      <trkpt lat="43.24057" lon="5.76308">
        <ele>285.39999389648</ele>
        <time>2016-05-05T14:18:06.000Z</time>
      </trkpt>
      <trkpt lat="43.24036" lon="5.76318">
        <ele>283.39999389648</ele>
        <time>2016-05-05T14:18:08.000Z</time>
      </trkpt>
      <trkpt lat="43.24014" lon="5.76332">
        <ele>279.39999389648</ele>
        <time>2016-05-05T14:18:10.000Z</time>
      </trkpt>
      <trkpt lat="43.24003" lon="5.76339">
        <ele>276.79998779297</ele>
        <time>2016-05-05T14:18:11.000Z</time>
      </trkpt>
      <trkpt lat="43.23992" lon="5.76347">
        <ele>274</ele>
        <time>2016-05-05T14:18:12.000Z</time>
      </trkpt>
      <trkpt lat="43.23981" lon="5.76355">
        <ele>271.20001220703</ele>
        <time>2016-05-05T14:18:13.000Z</time>
      </trkpt>
      <trkpt lat="43.23958" lon="5.76371">
        <ele>269.20001220703</ele>
        <time>2016-05-05T14:18:15.000Z</time>
      </trkpt>
      <trkpt lat="43.23935" lon="5.76386">
        <ele>267.20001220703</ele>
        <time>2016-05-05T14:18:17.000Z</time>
      </trkpt>
      <trkpt lat="43.23924" lon="5.76393">
        <ele>265.39999389648</ele>
        <time>2016-05-05T14:18:18.000Z</time>
      </trkpt>
      <trkpt lat="43.23912" lon="5.764">
        <ele>262.79998779297</ele>
        <time>2016-05-05T14:18:19.000Z</time>
      </trkpt>
      <trkpt lat="43.23901" lon="5.76408">
        <ele>260</ele>
        <time>2016-05-05T14:18:20.000Z</time>
      </trkpt>
      <trkpt lat="43.23889" lon="5.76415">
        <ele>257.39999389648</ele>
        <time>2016-05-05T14:18:21.000Z</time>
      </trkpt>
      <trkpt lat="43.23878" lon="5.76421">
        <ele>254.80000305176</ele>
        <time>2016-05-05T14:18:22.000Z</time>
      </trkpt>
      <trkpt lat="43.23866" lon="5.76427">
        <ele>252.60000610352</ele>
        <time>2016-05-05T14:18:23.000Z</time>
      </trkpt>
      <trkpt lat="43.23854" lon="5.76433">
        <ele>250.39999389648</ele>
        <time>2016-05-05T14:18:24.000Z</time>
      </trkpt>
      <trkpt lat="43.23843" lon="5.76438">
        <ele>248.19999694824</ele>
        <time>2016-05-05T14:18:25.000Z</time>
      </trkpt>
      <trkpt lat="43.23831" lon="5.76444">
        <ele>245.80000305176</ele>
        <time>2016-05-05T14:18:26.000Z</time>
      </trkpt>
      <trkpt lat="43.23819" lon="5.7645">
        <ele>244.19999694824</ele>
        <time>2016-05-05T14:18:27.000Z</time>
      </trkpt>
      <trkpt lat="43.23807" lon="5.76457">
        <ele>244.60000610352</ele>
        <time>2016-05-05T14:18:28.000Z</time>
      </trkpt>
      <trkpt lat="43.23796" lon="5.76464">
        <ele>244.80000305176</ele>
        <time>2016-05-05T14:18:29.000Z</time>
      </trkpt>
      <trkpt lat="43.23786" lon="5.76473">
        <ele>245</ele>
        <time>2016-05-05T14:18:30.000Z</time>
      </trkpt>
      <trkpt lat="43.23776" lon="5.76483">
        <ele>244.60000610352</ele>
        <time>2016-05-05T14:18:31.000Z</time>
      </trkpt>
      <trkpt lat="43.23766" lon="5.76492">
        <ele>242.60000610352</ele>
        <time>2016-05-05T14:18:32.000Z</time>
      </trkpt>
      <trkpt lat="43.23756" lon="5.76502">
        <ele>240.80000305176</ele>
        <time>2016-05-05T14:18:33.000Z</time>
      </trkpt>
      <trkpt lat="43.23746" lon="5.76511">
        <ele>239</ele>
        <time>2016-05-05T14:18:34.000Z</time>
      </trkpt>
      <trkpt lat="43.23737" lon="5.76521">
        <ele>237.39999389648</ele>
        <time>2016-05-05T14:18:35.000Z</time>
      </trkpt>
      <trkpt lat="43.23727" lon="5.7653">
        <ele>236.80000305176</ele>
        <time>2016-05-05T14:18:36.000Z</time>
      </trkpt>
      <trkpt lat="43.23718" lon="5.76539">
        <ele>237.19999694824</ele>
        <time>2016-05-05T14:18:37.000Z</time>
      </trkpt>
      <trkpt lat="43.23701" lon="5.76555">
        <ele>237.80000305176</ele>
        <time>2016-05-05T14:18:39.000Z</time>
      </trkpt>
      <trkpt lat="43.23684" lon="5.76571">
        <ele>237.19999694824</ele>
        <time>2016-05-05T14:18:41.000Z</time>
      </trkpt>
      <trkpt lat="43.23666" lon="5.76587">
        <ele>232.39999389648</ele>
        <time>2016-05-05T14:18:43.000Z</time>
      </trkpt>
      <trkpt lat="43.23649" lon="5.76603">
        <ele>227.39999389648</ele>
        <time>2016-05-05T14:18:45.000Z</time>
      </trkpt>
      <trkpt lat="43.23631" lon="5.76619">
        <ele>226</ele>
        <time>2016-05-05T14:18:47.000Z</time>
      </trkpt>
      <trkpt lat="43.23622" lon="5.76627">
        <ele>225.39999389648</ele>
        <time>2016-05-05T14:18:48.000Z</time>
      </trkpt>
      <trkpt lat="43.23613" lon="5.76635">
        <ele>225</ele>
        <time>2016-05-05T14:18:49.000Z</time>
      </trkpt>
      <trkpt lat="43.23604" lon="5.76643">
        <ele>224.60000610352</ele>
        <time>2016-05-05T14:18:50.000Z</time>
      </trkpt>
      <trkpt lat="43.23594" lon="5.76651">
        <ele>222.39999389648</ele>
        <time>2016-05-05T14:18:51.000Z</time>
      </trkpt>
      <trkpt lat="43.23584" lon="5.76658">
        <ele>220.19999694824</ele>
        <time>2016-05-05T14:18:52.000Z</time>
      </trkpt>
      <trkpt lat="43.23574" lon="5.76665">
        <ele>218.19999694824</ele>
        <time>2016-05-05T14:18:53.000Z</time>
      </trkpt>
      <trkpt lat="43.23564" lon="5.76672">
        <ele>216.19999694824</ele>
        <time>2016-05-05T14:18:54.000Z</time>
      </trkpt>
      <trkpt lat="43.23543" lon="5.76683">
        <ele>213.39999389648</ele>
        <time>2016-05-05T14:18:56.000Z</time>
      </trkpt>
      <trkpt lat="43.23533" lon="5.76688">
        <ele>212.60000610352</ele>
        <time>2016-05-05T14:18:57.000Z</time>
      </trkpt>
      <trkpt lat="43.23522" lon="5.76693">
        <ele>211.80000305176</ele>
        <time>2016-05-05T14:18:58.000Z</time>
      </trkpt>
      <trkpt lat="43.23512" lon="5.76697">
        <ele>211.19999694824</ele>
        <time>2016-05-05T14:18:59.000Z</time>
      </trkpt>
      <trkpt lat="43.23502" lon="5.76701">
        <ele>208.60000610352</ele>
        <time>2016-05-05T14:19:00.000Z</time>
      </trkpt>
      <trkpt lat="43.23492" lon="5.76705">
        <ele>206.60000610352</ele>
        <time>2016-05-05T14:19:01.000Z</time>
      </trkpt>
      <trkpt lat="43.23482" lon="5.76708">
        <ele>205.80000305176</ele>
        <time>2016-05-05T14:19:02.000Z</time>
      </trkpt>
      <trkpt lat="43.23473" lon="5.76711">
        <ele>205</ele>
        <time>2016-05-05T14:19:03.000Z</time>
      </trkpt>
      <trkpt lat="43.23463" lon="5.76714">
        <ele>204</ele>
        <time>2016-05-05T14:19:04.000Z</time>
      </trkpt>
      <trkpt lat="43.23454" lon="5.76715">
        <ele>203.19999694824</ele>
        <time>2016-05-05T14:19:05.000Z</time>
      </trkpt>
      <trkpt lat="43.23444" lon="5.76713">
        <ele>202.39999389648</ele>
        <time>2016-05-05T14:19:06.000Z</time>
      </trkpt>
      <trkpt lat="43.23435" lon="5.76707">
        <ele>201.80000305176</ele>
        <time>2016-05-05T14:19:07.000Z</time>
      </trkpt>
      <trkpt lat="43.23427" lon="5.76698">
        <ele>201.19999694824</ele>
        <time>2016-05-05T14:19:08.000Z</time>
      </trkpt>
      <trkpt lat="43.23419" lon="5.76685">
        <ele>200.39999389648</ele>
        <time>2016-05-05T14:19:09.000Z</time>
      </trkpt>
      <trkpt lat="43.23412" lon="5.76671">
        <ele>199.60000610352</ele>
        <time>2016-05-05T14:19:10.000Z</time>
      </trkpt>
      <trkpt lat="43.23406" lon="5.76658">
        <ele>199</ele>
        <time>2016-05-05T14:19:11.000Z</time>
      </trkpt>
      <trkpt lat="43.234" lon="5.76644">
        <ele>198.39999389648</ele>
        <time>2016-05-05T14:19:12.000Z</time>
      </trkpt>
      <trkpt lat="43.23394" lon="5.76631">
        <ele>197.80000305176</ele>
        <time>2016-05-05T14:19:13.000Z</time>
      </trkpt>
      <trkpt lat="43.23383" lon="5.76607">
        <ele>196.19999694824</ele>
        <time>2016-05-05T14:19:15.000Z</time>
      </trkpt>
      <trkpt lat="43.23377" lon="5.76595">
        <ele>195.39999389648</ele>
        <time>2016-05-05T14:19:16.000Z</time>
      </trkpt>
      <trkpt lat="43.23369" lon="5.76585">
        <ele>194.39999389648</ele>
        <time>2016-05-05T14:19:17.000Z</time>
      </trkpt>
      <trkpt lat="43.2336" lon="5.76579">
        <ele>193</ele>
        <time>2016-05-05T14:19:18.000Z</time>
      </trkpt>
      <trkpt lat="43.23349" lon="5.76575">
        <ele>191.19999694824</ele>
        <time>2016-05-05T14:19:19.000Z</time>
      </trkpt>
      <trkpt lat="43.23338" lon="5.76574">
        <ele>190</ele>
        <time>2016-05-05T14:19:20.000Z</time>
      </trkpt>
      <trkpt lat="43.23326" lon="5.76573">
        <ele>188.60000610352</ele>
        <time>2016-05-05T14:19:21.000Z</time>
      </trkpt>
      <trkpt lat="43.23301" lon="5.7657">
        <ele>186</ele>
        <time>2016-05-05T14:19:23.000Z</time>
      </trkpt>
      <trkpt lat="43.23289" lon="5.76569">
        <ele>184.60000610352</ele>
        <time>2016-05-05T14:19:24.000Z</time>
      </trkpt>
      <trkpt lat="43.23276" lon="5.76567">
        <ele>183.39999389648</ele>
        <time>2016-05-05T14:19:25.000Z</time>
      </trkpt>
      <trkpt lat="43.23264" lon="5.76566">
        <ele>182.19999694824</ele>
        <time>2016-05-05T14:19:26.000Z</time>
      </trkpt>
      <trkpt lat="43.23251" lon="5.76564">
        <ele>181.39999389648</ele>
        <time>2016-05-05T14:19:27.000Z</time>
      </trkpt>
      <trkpt lat="43.23239" lon="5.76563">
        <ele>180.60000610352</ele>
        <time>2016-05-05T14:19:28.000Z</time>
      </trkpt>
      <trkpt lat="43.23226" lon="5.76561">
        <ele>180</ele>
        <time>2016-05-05T14:19:29.000Z</time>
      </trkpt>
      <trkpt lat="43.23214" lon="5.7656">
        <ele>179.19999694824</ele>
        <time>2016-05-05T14:19:30.000Z</time>
      </trkpt>
      <trkpt lat="43.23201" lon="5.76559">
        <ele>178.39999389648</ele>
        <time>2016-05-05T14:19:31.000Z</time>
      </trkpt>
      <trkpt lat="43.23177" lon="5.76556">
        <ele>177</ele>
        <time>2016-05-05T14:19:33.000Z</time>
      </trkpt>
      <trkpt lat="43.23155" lon="5.76554">
        <ele>175</ele>
        <time>2016-05-05T14:19:35.000Z</time>
      </trkpt>
      <trkpt lat="43.23144" lon="5.76553">
        <ele>174</ele>
        <time>2016-05-05T14:19:36.000Z</time>
      </trkpt>
      <trkpt lat="43.23133" lon="5.76552">
        <ele>173.19999694824</ele>
        <time>2016-05-05T14:19:37.000Z</time>
      </trkpt>
      <trkpt lat="43.23122" lon="5.7655">
        <ele>172.19999694824</ele>
        <time>2016-05-05T14:19:38.000Z</time>
      </trkpt>
      <trkpt lat="43.23111" lon="5.76549">
        <ele>171.39999389648</ele>
        <time>2016-05-05T14:19:39.000Z</time>
      </trkpt>
      <trkpt lat="43.23101" lon="5.76548">
        <ele>170.60000610352</ele>
        <time>2016-05-05T14:19:40.000Z</time>
      </trkpt>
      <trkpt lat="43.23082" lon="5.76545">
        <ele>169.19999694824</ele>
        <time>2016-05-05T14:19:42.000Z</time>
      </trkpt>
      <trkpt lat="43.23063" lon="5.76543">
        <ele>168</ele>
        <time>2016-05-05T14:19:44.000Z</time>
      </trkpt>
      <trkpt lat="43.23047" lon="5.76541">
        <ele>167</ele>
        <time>2016-05-05T14:19:46.000Z</time>
      </trkpt>
      <trkpt lat="43.23039" lon="5.76539">
        <ele>166.60000610352</ele>
        <time>2016-05-05T14:19:47.000Z</time>
      </trkpt>
      <trkpt lat="43.23031" lon="5.76538">
        <ele>166.19999694824</ele>
        <time>2016-05-05T14:19:48.000Z</time>
      </trkpt>
      <trkpt lat="43.23024" lon="5.76536">
        <ele>165.60000610352</ele>
        <time>2016-05-05T14:19:49.000Z</time>
      </trkpt>
      <trkpt lat="43.2301" lon="5.76531">
        <ele>165</ele>
        <time>2016-05-05T14:19:51.000Z</time>
      </trkpt>
      <trkpt lat="43.23003" lon="5.76528">
        <ele>164.80000305176</ele>
        <time>2016-05-05T14:19:52.000Z</time>
      </trkpt>
      <trkpt lat="43.22998" lon="5.76521">
        <ele>164.80000305176</ele>
        <time>2016-05-05T14:19:53.000Z</time>
      </trkpt>
      <trkpt lat="43.22994" lon="5.76513">
        <ele>164.80000305176</ele>
        <time>2016-05-05T14:19:54.000Z</time>
      </trkpt>
      <trkpt lat="43.2299" lon="5.76503">
        <ele>164.80000305176</ele>
        <time>2016-05-05T14:19:55.000Z</time>
      </trkpt>
      <trkpt lat="43.22988" lon="5.76492">
        <ele>164.80000305176</ele>
        <time>2016-05-05T14:19:56.000Z</time>
      </trkpt>
      <trkpt lat="43.22986" lon="5.76482">
        <ele>164.60000610352</ele>
        <time>2016-05-05T14:19:57.000Z</time>
      </trkpt>
      <trkpt lat="43.22979" lon="5.76444">
        <ele>163.39999389648</ele>
        <time>2016-05-05T14:20:01.000Z</time>
      </trkpt>
      <trkpt lat="43.22978" lon="5.76436">
        <ele>163</ele>
        <time>2016-05-05T14:20:02.000Z</time>
      </trkpt>
      <trkpt lat="43.22975" lon="5.7642">
        <ele>163.19999694824</ele>
        <time>2016-05-05T14:20:04.000Z</time>
      </trkpt>
      <trkpt lat="43.22973" lon="5.76399">
        <ele>163.39999389648</ele>
        <time>2016-05-05T14:20:07.000Z</time>
      </trkpt>
      <trkpt lat="43.22968" lon="5.76359">
        <ele>164.19999694824</ele>
        <time>2016-05-05T14:20:13.000Z</time>
      </trkpt>
      <trkpt lat="43.22964" lon="5.76346">
        <ele>164.39999389648</ele>
        <time>2016-05-05T14:20:15.000Z</time>
      </trkpt>
      <trkpt lat="43.22947" lon="5.76319">
        <ele>164</ele>
        <time>2016-05-05T14:20:20.000Z</time>
      </trkpt>
      <trkpt lat="43.22943" lon="5.76314">
        <ele>163.80000305176</ele>
        <time>2016-05-05T14:20:21.000Z</time>
      </trkpt>
      <trkpt lat="43.22919" lon="5.7629">
        <ele>162.80000305176</ele>
        <time>2016-05-05T14:20:26.000Z</time>
      </trkpt>
      <trkpt lat="43.22882" lon="5.76254">
        <ele>161.39999389648</ele>
        <time>2016-05-05T14:20:33.000Z</time>
      </trkpt>
      <trkpt lat="43.22876" lon="5.76251">
        <ele>161</ele>
        <time>2016-05-05T14:20:34.000Z</time>
      </trkpt>
      <trkpt lat="43.22842" lon="5.76243">
        <ele>159.60000610352</ele>
        <time>2016-05-05T14:20:39.000Z</time>
      </trkpt>
      <trkpt lat="43.22821" lon="5.76235">
        <ele>158.39999389648</ele>
        <time>2016-05-05T14:20:42.000Z</time>
      </trkpt>
      <trkpt lat="43.22786" lon="5.76224">
        <ele>156.39999389648</ele>
        <time>2016-05-05T14:20:47.000Z</time>
      </trkpt>
      <trkpt lat="43.22778" lon="5.76222">
        <ele>156</ele>
        <time>2016-05-05T14:20:48.000Z</time>
      </trkpt>
      <trkpt lat="43.2275" lon="5.76217">
        <ele>155</ele>
        <time>2016-05-05T14:20:52.000Z</time>
      </trkpt>
      <trkpt lat="43.2273" lon="5.76211">
        <ele>155.19999694824</ele>
        <time>2016-05-05T14:20:55.000Z</time>
      </trkpt>
      <trkpt lat="43.22724" lon="5.76208">
        <ele>155.39999389648</ele>
        <time>2016-05-05T14:20:56.000Z</time>
      </trkpt>
      <trkpt lat="43.22718" lon="5.76205">
        <ele>155.39999389648</ele>
        <time>2016-05-05T14:20:57.000Z</time>
      </trkpt>
      <trkpt lat="43.22709" lon="5.76194">
        <ele>155.60000610352</ele>
        <time>2016-05-05T14:20:59.000Z</time>
      </trkpt>
      <trkpt lat="43.22705" lon="5.76188">
        <ele>155.80000305176</ele>
        <time>2016-05-05T14:21:00.000Z</time>
      </trkpt>
      <trkpt lat="43.22694" lon="5.76161">
        <ele>156.39999389648</ele>
        <time>2016-05-05T14:21:04.000Z</time>
      </trkpt>
      <trkpt lat="43.22693" lon="5.76153">
        <ele>156.60000610352</ele>
        <time>2016-05-05T14:21:05.000Z</time>
      </trkpt>
      <trkpt lat="43.22692" lon="5.76138">
        <ele>157.19999694824</ele>
        <time>2016-05-05T14:21:07.000Z</time>
      </trkpt>
      <trkpt lat="43.22691" lon="5.7613">
        <ele>157.39999389648</ele>
        <time>2016-05-05T14:21:08.000Z</time>
      </trkpt>
      <trkpt lat="43.22689" lon="5.76123">
        <ele>157.39999389648</ele>
        <time>2016-05-05T14:21:09.000Z</time>
      </trkpt>
      <trkpt lat="43.22678" lon="5.76109">
        <ele>157.80000305176</ele>
        <time>2016-05-05T14:21:12.000Z</time>
      </trkpt>
      <trkpt lat="43.22662" lon="5.76106">
        <ele>158.19999694824</ele>
        <time>2016-05-05T14:21:15.000Z</time>
      </trkpt>
      <trkpt lat="43.22651" lon="5.76104">
        <ele>158.39999389648</ele>
        <time>2016-05-05T14:21:17.000Z</time>
      </trkpt>
      <trkpt lat="43.22646" lon="5.76104">
        <ele>158.60000610352</ele>
        <time>2016-05-05T14:21:18.000Z</time>
      </trkpt>
      <trkpt lat="43.22604" lon="5.76101">
        <ele>158.19999694824</ele>
        <time>2016-05-05T14:21:26.000Z</time>
      </trkpt>
      <trkpt lat="43.22547" lon="5.76106">
        <ele>156.19999694824</ele>
        <time>2016-05-05T14:21:36.000Z</time>
      </trkpt>
      <trkpt lat="43.22497" lon="5.76108">
        <ele>154.39999389648</ele>
        <time>2016-05-05T14:21:45.000Z</time>
      </trkpt>
      <trkpt lat="43.22466" lon="5.76102">
        <ele>154.39999389648</ele>
        <time>2016-05-05T14:21:51.000Z</time>
      </trkpt>
      <trkpt lat="43.22461" lon="5.76099">
        <ele>154.60000610352</ele>
        <time>2016-05-05T14:21:52.000Z</time>
      </trkpt>
      <trkpt lat="43.22446" lon="5.7609">
        <ele>155</ele>
        <time>2016-05-05T14:21:55.000Z</time>
      </trkpt>
      <trkpt lat="43.22437" lon="5.7608">
        <ele>155.19999694824</ele>
        <time>2016-05-05T14:21:57.000Z</time>
      </trkpt>
      <trkpt lat="43.22407" lon="5.76036">
        <ele>155</ele>
        <time>2016-05-05T14:22:04.000Z</time>
      </trkpt>
      <trkpt lat="43.22374" lon="5.75983">
        <ele>153.19999694824</ele>
        <time>2016-05-05T14:22:12.000Z</time>
      </trkpt>
      <trkpt lat="43.22369" lon="5.75979">
        <ele>153</ele>
        <time>2016-05-05T14:22:13.000Z</time>
      </trkpt>
      <trkpt lat="43.22337" lon="5.7596">
        <ele>152.39999389648</ele>
        <time>2016-05-05T14:22:19.000Z</time>
      </trkpt>
      <trkpt lat="43.22317" lon="5.75942">
        <ele>153.39999389648</ele>
        <time>2016-05-05T14:22:24.000Z</time>
      </trkpt>
      <trkpt lat="43.22314" lon="5.75937">
        <ele>153.60000610352</ele>
        <time>2016-05-05T14:22:25.000Z</time>
      </trkpt>
      <trkpt lat="43.22293" lon="5.75898">
        <ele>155.19999694824</ele>
        <time>2016-05-05T14:22:32.000Z</time>
      </trkpt>
      <trkpt lat="43.22291" lon="5.75893">
        <ele>155.39999389648</ele>
        <time>2016-05-05T14:22:33.000Z</time>
      </trkpt>
      <trkpt lat="43.22285" lon="5.75886">
        <ele>155.80000305176</ele>
        <time>2016-05-05T14:22:35.000Z</time>
      </trkpt>
      <trkpt lat="43.22282" lon="5.75886">
        <ele>155.80000305176</ele>
        <time>2016-05-05T14:22:36.000Z</time>
      </trkpt>
      <trkpt lat="43.22273" lon="5.75896">
        <ele>155.60000610352</ele>
        <time>2016-05-05T14:22:39.000Z</time>
      </trkpt>
      <trkpt lat="43.22271" lon="5.759">
        <ele>155.39999389648</ele>
        <time>2016-05-05T14:22:40.000Z</time>
      </trkpt>
      <trkpt lat="43.2226" lon="5.75925">
        <ele>154</ele>
        <time>2016-05-05T14:22:46.000Z</time>
      </trkpt>
      <trkpt lat="43.22259" lon="5.75927">
        <ele>153.80000305176</ele>
        <time>2016-05-05T14:22:47.000Z</time>
      </trkpt>
      <trkpt lat="43.22256" lon="5.75937">
        <ele>153.19999694824</ele>
        <time>2016-05-05T14:22:51.000Z</time>
      </trkpt>
      <trkpt lat="43.22244" lon="5.75955">
        <ele>151.60000610352</ele>
        <time>2016-05-05T14:22:56.000Z</time>
      </trkpt>
      <trkpt lat="43.22229" lon="5.75971">
        <ele>151.19999694824</ele>
        <time>2016-05-05T14:23:00.000Z</time>
      </trkpt>
      <trkpt lat="43.2222" lon="5.75978">
        <ele>150.80000305176</ele>
        <time>2016-05-05T14:23:02.000Z</time>
      </trkpt>
      <trkpt lat="43.22206" lon="5.75989">
        <ele>150</ele>
        <time>2016-05-05T14:23:05.000Z</time>
      </trkpt>
      <trkpt lat="43.22196" lon="5.75995">
        <ele>149.60000610352</ele>
        <time>2016-05-05T14:23:07.000Z</time>
      </trkpt>
      <trkpt lat="43.22186" lon="5.75999">
        <ele>149.39999389648</ele>
        <time>2016-05-05T14:23:09.000Z</time>
      </trkpt>
      <trkpt lat="43.22176" lon="5.76004">
        <ele>149</ele>
        <time>2016-05-05T14:23:11.000Z</time>
      </trkpt>
      <trkpt lat="43.22146" lon="5.76013">
        <ele>147</ele>
        <time>2016-05-05T14:23:16.000Z</time>
      </trkpt>
      <trkpt lat="43.22139" lon="5.76015">
        <ele>146.60000610352</ele>
        <time>2016-05-05T14:23:17.000Z</time>
      </trkpt>
      <trkpt lat="43.22113" lon="5.76028">
        <ele>146.19999694824</ele>
        <time>2016-05-05T14:23:21.000Z</time>
      </trkpt>
      <trkpt lat="43.22107" lon="5.7603">
        <ele>146</ele>
        <time>2016-05-05T14:23:22.000Z</time>
      </trkpt>
      <trkpt lat="43.22094" lon="5.76036">
        <ele>145.80000305176</ele>
        <time>2016-05-05T14:23:24.000Z</time>
      </trkpt>
      <trkpt lat="43.22088" lon="5.7604">
        <ele>145.60000610352</ele>
        <time>2016-05-05T14:23:25.000Z</time>
      </trkpt>
      <trkpt lat="43.22076" lon="5.76049">
        <ele>144.80000305176</ele>
        <time>2016-05-05T14:23:27.000Z</time>
      </trkpt>
      <trkpt lat="43.2207" lon="5.76055">
        <ele>144.19999694824</ele>
        <time>2016-05-05T14:23:28.000Z</time>
      </trkpt>
      <trkpt lat="43.22044" lon="5.7608">
        <ele>142</ele>
        <time>2016-05-05T14:23:32.000Z</time>
      </trkpt>
      <trkpt lat="43.22031" lon="5.76092">
        <ele>141.39999389648</ele>
        <time>2016-05-05T14:23:34.000Z</time>
      </trkpt>
      <trkpt lat="43.22025" lon="5.76098">
        <ele>141.19999694824</ele>
        <time>2016-05-05T14:23:35.000Z</time>
      </trkpt>
      <trkpt lat="43.22012" lon="5.7611">
        <ele>140.60000610352</ele>
        <time>2016-05-05T14:23:37.000Z</time>
      </trkpt>
      <trkpt lat="43.21993" lon="5.76128">
        <ele>140</ele>
        <time>2016-05-05T14:23:40.000Z</time>
      </trkpt>
      <trkpt lat="43.21983" lon="5.76138">
        <ele>139.19999694824</ele>
        <time>2016-05-05T14:23:42.000Z</time>
      </trkpt>
      <trkpt lat="43.21978" lon="5.76143">
        <ele>139</ele>
        <time>2016-05-05T14:23:43.000Z</time>
      </trkpt>
      <trkpt lat="43.21973" lon="5.76148">
        <ele>138.60000610352</ele>
        <time>2016-05-05T14:23:44.000Z</time>
      </trkpt>
      <trkpt lat="43.21961" lon="5.76164">
        <ele>138</ele>
        <time>2016-05-05T14:23:47.000Z</time>
      </trkpt>
      <trkpt lat="43.21949" lon="5.76177">
        <ele>137.60000610352</ele>
        <time>2016-05-05T14:23:50.000Z</time>
      </trkpt>
      <trkpt lat="43.21941" lon="5.76183">
        <ele>137.60000610352</ele>
        <time>2016-05-05T14:23:52.000Z</time>
      </trkpt>
      <trkpt lat="43.21938" lon="5.76187">
        <ele>137.60000610352</ele>
        <time>2016-05-05T14:23:53.000Z</time>
      </trkpt>
      <trkpt lat="43.2193" lon="5.76197">
        <ele>137.39999389648</ele>
        <time>2016-05-05T14:23:56.000Z</time>
      </trkpt>
      <trkpt lat="43.21911" lon="5.76209">
        <ele>137.39999389648</ele>
        <time>2016-05-05T14:24:02.000Z</time>
      </trkpt>
      <trkpt lat="43.2189" lon="5.76217">
        <ele>137.80000305176</ele>
        <time>2016-05-05T14:24:07.000Z</time>
      </trkpt>
      <trkpt lat="43.21877" lon="5.76223">
        <ele>138</ele>
        <time>2016-05-05T14:24:10.000Z</time>
      </trkpt>
      <trkpt lat="43.21841" lon="5.76246">
        <ele>137.60000610352</ele>
        <time>2016-05-05T14:24:17.000Z</time>
      </trkpt>
      <trkpt lat="43.21821" lon="5.76258">
        <ele>135.60000610352</ele>
        <time>2016-05-05T14:24:21.000Z</time>
      </trkpt>
      <trkpt lat="43.21805" lon="5.76266">
        <ele>134.19999694824</ele>
        <time>2016-05-05T14:24:24.000Z</time>
      </trkpt>
      <trkpt lat="43.21793" lon="5.76273">
        <ele>134.39999389648</ele>
        <time>2016-05-05T14:24:26.000Z</time>
      </trkpt>
      <trkpt lat="43.2178" lon="5.76278">
        <ele>134.60000610352</ele>
        <time>2016-05-05T14:24:28.000Z</time>
      </trkpt>
      <trkpt lat="43.21774" lon="5.76281">
        <ele>134.60000610352</ele>
        <time>2016-05-05T14:24:29.000Z</time>
      </trkpt>
      <trkpt lat="43.21769" lon="5.76284">
        <ele>134.60000610352</ele>
        <time>2016-05-05T14:24:30.000Z</time>
      </trkpt>
      <trkpt lat="43.21764" lon="5.76287">
        <ele>134.80000305176</ele>
        <time>2016-05-05T14:24:31.000Z</time>
      </trkpt>
      <trkpt lat="43.21757" lon="5.76295">
        <ele>135.60000610352</ele>
        <time>2016-05-05T14:24:33.000Z</time>
      </trkpt>
      <trkpt lat="43.21752" lon="5.76306">
        <ele>135.80000305176</ele>
        <time>2016-05-05T14:24:35.000Z</time>
      </trkpt>
      <trkpt lat="43.2175" lon="5.76311">
        <ele>136.80000305176</ele>
        <time>2016-05-05T14:24:36.000Z</time>
      </trkpt>
      <trkpt lat="43.21745" lon="5.76321">
        <ele>138.39999389648</ele>
        <time>2016-05-05T14:24:38.000Z</time>
      </trkpt>
      <trkpt lat="43.21742" lon="5.76326">
        <ele>139</ele>
        <time>2016-05-05T14:24:39.000Z</time>
      </trkpt>
      <trkpt lat="43.21722" lon="5.76346">
        <ele>142</ele>
        <time>2016-05-05T14:24:44.000Z</time>
      </trkpt>
      <trkpt lat="43.21718" lon="5.7635">
        <ele>142.60000610352</ele>
        <time>2016-05-05T14:24:45.000Z</time>
      </trkpt>
      <trkpt lat="43.21704" lon="5.76364">
        <ele>144.19999694824</ele>
        <time>2016-05-05T14:24:48.000Z</time>
      </trkpt>
      <trkpt lat="43.21687" lon="5.7638">
        <ele>146</ele>
        <time>2016-05-05T14:24:52.000Z</time>
      </trkpt>
      <trkpt lat="43.21683" lon="5.76384">
        <ele>146.60000610352</ele>
        <time>2016-05-05T14:24:53.000Z</time>
      </trkpt>
      <trkpt lat="43.21675" lon="5.7639">
        <ele>146.80000305176</ele>
        <time>2016-05-05T14:24:55.000Z</time>
      </trkpt>
      <trkpt lat="43.21672" lon="5.76393">
        <ele>146.80000305176</ele>
        <time>2016-05-05T14:24:56.000Z</time>
      </trkpt>
      <trkpt lat="43.21668" lon="5.76395">
        <ele>146.60000610352</ele>
        <time>2016-05-05T14:24:57.000Z</time>
      </trkpt>
      <trkpt lat="43.21664" lon="5.76398">
        <ele>146.39999389648</ele>
        <time>2016-05-05T14:24:58.000Z</time>
      </trkpt>
      <trkpt lat="43.21657" lon="5.76403">
        <ele>146</ele>
        <time>2016-05-05T14:25:00.000Z</time>
      </trkpt>
      <trkpt lat="43.21655" lon="5.76407">
        <ele>146.39999389648</ele>
        <time>2016-05-05T14:25:01.000Z</time>
      </trkpt>
      <trkpt lat="43.21652" lon="5.76412">
        <ele>146.60000610352</ele>
        <time>2016-05-05T14:25:02.000Z</time>
      </trkpt>
      <trkpt lat="43.21649" lon="5.76418">
        <ele>147</ele>
        <time>2016-05-05T14:25:03.000Z</time>
      </trkpt>
      <trkpt lat="43.21646" lon="5.76424">
        <ele>147.60000610352</ele>
        <time>2016-05-05T14:25:04.000Z</time>
      </trkpt>
      <trkpt lat="43.21639" lon="5.76441">
        <ele>148.80000305176</ele>
        <time>2016-05-05T14:25:07.000Z</time>
      </trkpt>
      <trkpt lat="43.21634" lon="5.76453">
        <ele>149.39999389648</ele>
        <time>2016-05-05T14:25:09.000Z</time>
      </trkpt>
      <trkpt lat="43.21626" lon="5.76471">
        <ele>150.60000610352</ele>
        <time>2016-05-05T14:25:12.000Z</time>
      </trkpt>
      <trkpt lat="43.21624" lon="5.76477">
        <ele>150.39999389648</ele>
        <time>2016-05-05T14:25:13.000Z</time>
      </trkpt>
      <trkpt lat="43.21615" lon="5.765">
        <ele>150.60000610352</ele>
        <time>2016-05-05T14:25:17.000Z</time>
      </trkpt>
      <trkpt lat="43.21612" lon="5.76504">
        <ele>150.80000305176</ele>
        <time>2016-05-05T14:25:18.000Z</time>
      </trkpt>
      <trkpt lat="43.21604" lon="5.7651">
        <ele>150.80000305176</ele>
        <time>2016-05-05T14:25:20.000Z</time>
      </trkpt>
      <trkpt lat="43.216" lon="5.76512">
        <ele>150.80000305176</ele>
        <time>2016-05-05T14:25:21.000Z</time>
      </trkpt>
      <trkpt lat="43.21594" lon="5.76514">
        <ele>150.39999389648</ele>
        <time>2016-05-05T14:25:22.000Z</time>
      </trkpt>
      <trkpt lat="43.21584" lon="5.76518">
        <ele>149.80000305176</ele>
        <time>2016-05-05T14:25:24.000Z</time>
      </trkpt>
      <trkpt lat="43.21568" lon="5.76532">
        <ele>149.19999694824</ele>
        <time>2016-05-05T14:25:28.000Z</time>
      </trkpt>
      <trkpt lat="43.21537" lon="5.76561">
        <ele>146.39999389648</ele>
        <time>2016-05-05T14:25:34.000Z</time>
      </trkpt>
      <trkpt lat="43.21521" lon="5.76576">
        <ele>144.80000305176</ele>
        <time>2016-05-05T14:25:37.000Z</time>
      </trkpt>
      <trkpt lat="43.21505" lon="5.76592">
        <ele>145.19999694824</ele>
        <time>2016-05-05T14:25:40.000Z</time>
      </trkpt>
      <trkpt lat="43.21502" lon="5.766">
        <ele>145.60000610352</ele>
        <time>2016-05-05T14:25:41.000Z</time>
      </trkpt>
      <trkpt lat="43.21496" lon="5.76614">
        <ele>146.60000610352</ele>
        <time>2016-05-05T14:25:43.000Z</time>
      </trkpt>
      <trkpt lat="43.21491" lon="5.76626">
        <ele>147.19999694824</ele>
        <time>2016-05-05T14:25:45.000Z</time>
      </trkpt>
      <trkpt lat="43.21472" lon="5.76659">
        <ele>147.60000610352</ele>
        <time>2016-05-05T14:25:51.000Z</time>
      </trkpt>
      <trkpt lat="43.21447" lon="5.76698">
        <ele>148</ele>
        <time>2016-05-05T14:25:58.000Z</time>
      </trkpt>
      <trkpt lat="43.21443" lon="5.76703">
        <ele>148</ele>
        <time>2016-05-05T14:25:59.000Z</time>
      </trkpt>
      <trkpt lat="43.21419" lon="5.76734">
        <ele>148</ele>
        <time>2016-05-05T14:26:05.000Z</time>
      </trkpt>
      <trkpt lat="43.21405" lon="5.76751">
        <ele>148.19999694824</ele>
        <time>2016-05-05T14:26:09.000Z</time>
      </trkpt>
      <trkpt lat="43.21402" lon="5.76756">
        <ele>148.39999389648</ele>
        <time>2016-05-05T14:26:10.000Z</time>
      </trkpt>
      <trkpt lat="43.21393" lon="5.7677">
        <ele>148.60000610352</ele>
        <time>2016-05-05T14:26:13.000Z</time>
      </trkpt>
      <trkpt lat="43.21379" lon="5.76782">
        <ele>148.80000305176</ele>
        <time>2016-05-05T14:26:16.000Z</time>
      </trkpt>
      <trkpt lat="43.21343" lon="5.76809">
        <ele>148</ele>
        <time>2016-05-05T14:26:23.000Z</time>
      </trkpt>
      <trkpt lat="43.21336" lon="5.76814">
        <ele>147.39999389648</ele>
        <time>2016-05-05T14:26:24.000Z</time>
      </trkpt>
      <trkpt lat="43.21326" lon="5.76821">
        <ele>146.60000610352</ele>
        <time>2016-05-05T14:26:26.000Z</time>
      </trkpt>
      <trkpt lat="43.21322" lon="5.76824">
        <ele>146.19999694824</ele>
        <time>2016-05-05T14:26:27.000Z</time>
      </trkpt>
      <trkpt lat="43.21318" lon="5.76827">
        <ele>145.80000305176</ele>
        <time>2016-05-05T14:26:28.000Z</time>
      </trkpt>
      <trkpt lat="43.21308" lon="5.76833">
        <ele>144.80000305176</ele>
        <time>2016-05-05T14:26:31.000Z</time>
      </trkpt>
      <trkpt lat="43.21305" lon="5.76835">
        <ele>144.60000610352</ele>
        <time>2016-05-05T14:26:32.000Z</time>
      </trkpt>
      <trkpt lat="43.21281" lon="5.76846">
        <ele>142.39999389648</ele>
        <time>2016-05-05T14:26:39.000Z</time>
      </trkpt>
      <trkpt lat="43.21277" lon="5.76848">
        <ele>142</ele>
        <time>2016-05-05T14:26:40.000Z</time>
      </trkpt>
      <trkpt lat="43.21262" lon="5.76854">
        <ele>140.60000610352</ele>
        <time>2016-05-05T14:26:44.000Z</time>
      </trkpt>
      <trkpt lat="43.21251" lon="5.76857">
        <ele>139.39999389648</ele>
        <time>2016-05-05T14:26:47.000Z</time>
      </trkpt>
      <trkpt lat="43.21248" lon="5.76859">
        <ele>139</ele>
        <time>2016-05-05T14:26:48.000Z</time>
      </trkpt>
      <trkpt lat="43.21236" lon="5.76863">
        <ele>137.80000305176</ele>
        <time>2016-05-05T14:26:53.000Z</time>
      </trkpt>
      <trkpt lat="43.2123" lon="5.76868">
        <ele>137.19999694824</ele>
        <time>2016-05-05T14:30:25.000Z</time>
      </trkpt>
      <trkpt lat="43.21224" lon="5.76873">
        <ele>136.60000610352</ele>
        <time>2016-05-05T14:30:27.000Z</time>
      </trkpt>
      <trkpt lat="43.2122" lon="5.76878">
        <ele>136.39999389648</ele>
        <time>2016-05-05T14:30:28.000Z</time>
      </trkpt>
      <trkpt lat="43.21199" lon="5.76904">
        <ele>134</ele>
        <time>2016-05-05T14:30:32.000Z</time>
      </trkpt>
      <trkpt lat="43.21171" lon="5.76931">
        <ele>132</ele>
        <time>2016-05-05T14:30:37.000Z</time>
      </trkpt>
      <trkpt lat="43.21165" lon="5.76936">
        <ele>131.39999389648</ele>
        <time>2016-05-05T14:30:38.000Z</time>
      </trkpt>
      <trkpt lat="43.21155" lon="5.76944">
        <ele>130.39999389648</ele>
        <time>2016-05-05T14:30:40.000Z</time>
      </trkpt>
      <trkpt lat="43.21142" lon="5.7696">
        <ele>129.19999694824</ele>
        <time>2016-05-05T14:30:43.000Z</time>
      </trkpt>
      <trkpt lat="43.21138" lon="5.76966">
        <ele>129</ele>
        <time>2016-05-05T14:30:44.000Z</time>
      </trkpt>
      <trkpt lat="43.21135" lon="5.76973">
        <ele>128.80000305176</ele>
        <time>2016-05-05T14:30:45.000Z</time>
      </trkpt>
      <trkpt lat="43.21116" lon="5.77007">
        <ele>128.19999694824</ele>
        <time>2016-05-05T14:30:50.000Z</time>
      </trkpt>
      <trkpt lat="43.21112" lon="5.77014">
        <ele>128.39999389648</ele>
        <time>2016-05-05T14:30:51.000Z</time>
      </trkpt>
      <trkpt lat="43.21101" lon="5.77032">
        <ele>128.80000305176</ele>
        <time>2016-05-05T14:30:54.000Z</time>
      </trkpt>
      <trkpt lat="43.21085" lon="5.77055">
        <ele>128.60000610352</ele>
        <time>2016-05-05T14:30:58.000Z</time>
      </trkpt>
      <trkpt lat="43.21077" lon="5.77066">
        <ele>128.19999694824</ele>
        <time>2016-05-05T14:31:00.000Z</time>
      </trkpt>
      <trkpt lat="43.21051" lon="5.7709">
        <ele>126.19999694824</ele>
        <time>2016-05-05T14:31:06.000Z</time>
      </trkpt>
      <trkpt lat="43.21038" lon="5.77103">
        <ele>125.19999694824</ele>
        <time>2016-05-05T14:31:09.000Z</time>
      </trkpt>
      <trkpt lat="43.2102" lon="5.77117">
        <ele>123.59999847412</ele>
        <time>2016-05-05T14:31:13.000Z</time>
      </trkpt>
      <trkpt lat="43.2101" lon="5.77125">
        <ele>123</ele>
        <time>2016-05-05T14:31:15.000Z</time>
      </trkpt>
      <trkpt lat="43.20983" lon="5.77144">
        <ele>121.19999694824</ele>
        <time>2016-05-05T14:31:20.000Z</time>
      </trkpt>
      <trkpt lat="43.20978" lon="5.77149">
        <ele>120.80000305176</ele>
        <time>2016-05-05T14:31:21.000Z</time>
      </trkpt>
      <trkpt lat="43.20947" lon="5.77184">
        <ele>117.59999847412</ele>
        <time>2016-05-05T14:31:28.000Z</time>
      </trkpt>
      <trkpt lat="43.20929" lon="5.77214">
        <ele>115.19999694824</ele>
        <time>2016-05-05T14:31:33.000Z</time>
      </trkpt>
      <trkpt lat="43.20924" lon="5.77224">
        <ele>114.59999847412</ele>
        <time>2016-05-05T14:31:35.000Z</time>
      </trkpt>
      <trkpt lat="43.20922" lon="5.77229">
        <ele>114.40000152588</ele>
        <time>2016-05-05T14:31:36.000Z</time>
      </trkpt>
      <trkpt lat="43.20916" lon="5.77241">
        <ele>113.80000305176</ele>
        <time>2016-05-05T14:31:39.000Z</time>
      </trkpt>
      <trkpt lat="43.2091" lon="5.77245">
        <ele>113.40000152588</ele>
        <time>2016-05-05T14:31:41.000Z</time>
      </trkpt>
      <trkpt lat="43.20907" lon="5.77244">
        <ele>113</ele>
        <time>2016-05-05T14:31:42.000Z</time>
      </trkpt>
      <trkpt lat="43.20899" lon="5.77239">
        <ele>112</ele>
        <time>2016-05-05T14:31:44.000Z</time>
      </trkpt>
      <trkpt lat="43.20895" lon="5.77235">
        <ele>111.59999847412</ele>
        <time>2016-05-05T14:31:45.000Z</time>
      </trkpt>
      <trkpt lat="43.20892" lon="5.77231">
        <ele>111.19999694824</ele>
        <time>2016-05-05T14:31:46.000Z</time>
      </trkpt>
      <trkpt lat="43.20882" lon="5.77218">
        <ele>110.19999694824</ele>
        <time>2016-05-05T14:31:49.000Z</time>
      </trkpt>
      <trkpt lat="43.20878" lon="5.77214">
        <ele>110</ele>
        <time>2016-05-05T14:31:50.000Z</time>
      </trkpt>
      <trkpt lat="43.20861" lon="5.77199">
        <ele>109</ele>
        <time>2016-05-05T14:31:54.000Z</time>
      </trkpt>
      <trkpt lat="43.20847" lon="5.77191">
        <ele>108</ele>
        <time>2016-05-05T14:31:57.000Z</time>
      </trkpt>
      <trkpt lat="43.20819" lon="5.77168">
        <ele>107.59999847412</ele>
        <time>2016-05-05T14:32:03.000Z</time>
      </trkpt>
      <trkpt lat="43.20778" lon="5.77144">
        <ele>106.59999847412</ele>
        <time>2016-05-05T14:32:10.000Z</time>
      </trkpt>
      <trkpt lat="43.20753" lon="5.77131">
        <ele>105.59999847412</ele>
        <time>2016-05-05T14:32:14.000Z</time>
      </trkpt>
      <trkpt lat="43.20715" lon="5.77112">
        <ele>103.80000305176</ele>
        <time>2016-05-05T14:32:20.000Z</time>
      </trkpt>
      <trkpt lat="43.20708" lon="5.77109">
        <ele>103.59999847412</ele>
        <time>2016-05-05T14:32:21.000Z</time>
      </trkpt>
      <trkpt lat="43.20675" lon="5.77088">
        <ele>102</ele>
        <time>2016-05-05T14:32:26.000Z</time>
      </trkpt>
      <trkpt lat="43.20668" lon="5.77083">
        <ele>101.59999847412</ele>
        <time>2016-05-05T14:32:27.000Z</time>
      </trkpt>
      <trkpt lat="43.20653" lon="5.77073">
        <ele>100.80000305176</ele>
        <time>2016-05-05T14:32:29.000Z</time>
      </trkpt>
      <trkpt lat="43.20633" lon="5.77055">
        <ele>99.599998474121</ele>
        <time>2016-05-05T14:32:32.000Z</time>
      </trkpt>
      <trkpt lat="43.20626" lon="5.77047">
        <ele>99.400001525879</ele>
        <time>2016-05-05T14:32:33.000Z</time>
      </trkpt>
      <trkpt lat="43.20602" lon="5.77011">
        <ele>98.599998474121</ele>
        <time>2016-05-05T14:32:38.000Z</time>
      </trkpt>
      <trkpt lat="43.20573" lon="5.76967">
        <ele>99.199996948242</ele>
        <time>2016-05-05T14:32:45.000Z</time>
      </trkpt>
      <trkpt lat="43.20564" lon="5.76957">
        <ele>99.199996948242</ele>
        <time>2016-05-05T14:32:47.000Z</time>
      </trkpt>
      <trkpt lat="43.20554" lon="5.76952">
        <ele>99</ele>
        <time>2016-05-05T14:32:49.000Z</time>
      </trkpt>
      <trkpt lat="43.20533" lon="5.7695">
        <ele>98</ele>
        <time>2016-05-05T14:32:53.000Z</time>
      </trkpt>
      <trkpt lat="43.20528" lon="5.7695">
        <ele>97.800003051758</ele>
        <time>2016-05-05T14:32:54.000Z</time>
      </trkpt>
      <trkpt lat="43.20517" lon="5.76949">
        <ele>97.400001525879</ele>
        <time>2016-05-05T14:32:56.000Z</time>
      </trkpt>
      <trkpt lat="43.20481" lon="5.76946">
        <ele>96.400001525879</ele>
        <time>2016-05-05T14:33:03.000Z</time>
      </trkpt>
      <trkpt lat="43.2043" lon="5.76945">
        <ele>95.199996948242</ele>
        <time>2016-05-05T14:33:13.000Z</time>
      </trkpt>
      <trkpt lat="43.20408" lon="5.76947">
        <ele>95</ele>
        <time>2016-05-05T14:33:17.000Z</time>
      </trkpt>
      <trkpt lat="43.20392" lon="5.76947">
        <ele>94.400001525879</ele>
        <time>2016-05-05T14:33:20.000Z</time>
      </trkpt>
      <trkpt lat="43.20381" lon="5.76947">
        <ele>94</ele>
        <time>2016-05-05T14:33:22.000Z</time>
      </trkpt>
      <trkpt lat="43.2035" lon="5.7695">
        <ele>92.800003051758</ele>
        <time>2016-05-05T14:33:28.000Z</time>
      </trkpt>
      <trkpt lat="43.20345" lon="5.76952">
        <ele>92.400001525879</ele>
        <time>2016-05-05T14:33:29.000Z</time>
      </trkpt>
      <trkpt lat="43.20331" lon="5.76962">
        <ele>91.199996948242</ele>
        <time>2016-05-05T14:33:32.000Z</time>
      </trkpt>
      <trkpt lat="43.20322" lon="5.76968">
        <ele>90.800003051758</ele>
        <time>2016-05-05T14:33:34.000Z</time>
      </trkpt>
      <trkpt lat="43.20317" lon="5.7697">
        <ele>90.800003051758</ele>
        <time>2016-05-05T14:33:35.000Z</time>
      </trkpt>
      <trkpt lat="43.203" lon="5.7697">
        <ele>90.599998474121</ele>
        <time>2016-05-05T14:33:38.000Z</time>
      </trkpt>
      <trkpt lat="43.20295" lon="5.76968">
        <ele>90.599998474121</ele>
        <time>2016-05-05T14:33:39.000Z</time>
      </trkpt>
      <trkpt lat="43.20289" lon="5.76966">
        <ele>90.599998474121</ele>
        <time>2016-05-05T14:33:40.000Z</time>
      </trkpt>
      <trkpt lat="43.20277" lon="5.76962">
        <ele>90.599998474121</ele>
        <time>2016-05-05T14:33:42.000Z</time>
      </trkpt>
      <trkpt lat="43.20264" lon="5.76956">
        <ele>90.599998474121</ele>
        <time>2016-05-05T14:33:44.000Z</time>
      </trkpt>
      <trkpt lat="43.20258" lon="5.76951">
        <ele>90.400001525879</ele>
        <time>2016-05-05T14:33:45.000Z</time>
      </trkpt>
      <trkpt lat="43.20244" lon="5.7693">
        <ele>90.400001525879</ele>
        <time>2016-05-05T14:33:48.000Z</time>
      </trkpt>
      <trkpt lat="43.20238" lon="5.76904">
        <ele>91</ele>
        <time>2016-05-05T14:33:51.000Z</time>
      </trkpt>
      <trkpt lat="43.20237" lon="5.76895">
        <ele>91.199996948242</ele>
        <time>2016-05-05T14:33:52.000Z</time>
      </trkpt>
      <trkpt lat="43.20235" lon="5.76887">
        <ele>91.400001525879</ele>
        <time>2016-05-05T14:33:53.000Z</time>
      </trkpt>
      <trkpt lat="43.20232" lon="5.76879">
        <ele>91.599998474121</ele>
        <time>2016-05-05T14:33:54.000Z</time>
      </trkpt>
      <trkpt lat="43.20222" lon="5.76858">
        <ele>91.800003051758</ele>
        <time>2016-05-05T14:33:57.000Z</time>
      </trkpt>
      <trkpt lat="43.20213" lon="5.76847">
        <ele>91.599998474121</ele>
        <time>2016-05-05T14:33:59.000Z</time>
      </trkpt>
      <trkpt lat="43.20194" lon="5.76825">
        <ele>91.199996948242</ele>
        <time>2016-05-05T14:34:03.000Z</time>
      </trkpt>
      <trkpt lat="43.2018" lon="5.76808">
        <ele>91</ele>
        <time>2016-05-05T14:34:06.000Z</time>
      </trkpt>
      <trkpt lat="43.2016" lon="5.76791">
        <ele>91</ele>
        <time>2016-05-05T14:34:10.000Z</time>
      </trkpt>
      <trkpt lat="43.20154" lon="5.76788">
        <ele>91</ele>
        <time>2016-05-05T14:34:11.000Z</time>
      </trkpt>
      <trkpt lat="43.20144" lon="5.76784">
        <ele>90.800003051758</ele>
        <time>2016-05-05T14:34:13.000Z</time>
      </trkpt>
      <trkpt lat="43.20117" lon="5.76775">
        <ele>90.199996948242</ele>
        <time>2016-05-05T14:34:18.000Z</time>
      </trkpt>
      <trkpt lat="43.20088" lon="5.76753">
        <ele>90.400001525879</ele>
        <time>2016-05-05T14:34:24.000Z</time>
      </trkpt>
      <trkpt lat="43.20079" lon="5.76745">
        <ele>90.800003051758</ele>
        <time>2016-05-05T14:34:26.000Z</time>
      </trkpt>
      <trkpt lat="43.20058" lon="5.76726">
        <ele>91.800003051758</ele>
        <time>2016-05-05T14:34:31.000Z</time>
      </trkpt>
      <trkpt lat="43.20041" lon="5.76708">
        <ele>92.199996948242</ele>
        <time>2016-05-05T14:34:35.000Z</time>
      </trkpt>
      <trkpt lat="43.20037" lon="5.76703">
        <ele>92.199996948242</ele>
        <time>2016-05-05T14:34:36.000Z</time>
      </trkpt>
      <trkpt lat="43.20029" lon="5.76691">
        <ele>92.400001525879</ele>
        <time>2016-05-05T14:34:38.000Z</time>
      </trkpt>
      <trkpt lat="43.20022" lon="5.76677">
        <ele>92.599998474121</ele>
        <time>2016-05-05T14:34:40.000Z</time>
      </trkpt>
      <trkpt lat="43.19999" lon="5.76606">
        <ele>92</ele>
        <time>2016-05-05T14:34:49.000Z</time>
      </trkpt>
      <trkpt lat="43.19994" lon="5.76579">
        <ele>91.800003051758</ele>
        <time>2016-05-05T14:34:52.000Z</time>
      </trkpt>
      <trkpt lat="43.19993" lon="5.76561">
        <ele>91.599998474121</ele>
        <time>2016-05-05T14:34:54.000Z</time>
      </trkpt>
      <trkpt lat="43.19994" lon="5.76541">
        <ele>91.400001525879</ele>
        <time>2016-05-05T14:34:56.000Z</time>
      </trkpt>
      <trkpt lat="43.19996" lon="5.7651">
        <ele>89.800003051758</ele>
        <time>2016-05-05T14:34:59.000Z</time>
      </trkpt>
      <trkpt lat="43.19997" lon="5.76499">
        <ele>89.199996948242</ele>
        <time>2016-05-05T14:35:00.000Z</time>
      </trkpt>
      <trkpt lat="43.19999" lon="5.76466">
        <ele>87.400001525879</ele>
        <time>2016-05-05T14:35:03.000Z</time>
      </trkpt>
      <trkpt lat="43.20002" lon="5.7643">
        <ele>86.800003051758</ele>
        <time>2016-05-05T14:35:06.000Z</time>
      </trkpt>
      <trkpt lat="43.20003" lon="5.76406">
        <ele>86.199996948242</ele>
        <time>2016-05-05T14:35:08.000Z</time>
      </trkpt>
      <trkpt lat="43.20003" lon="5.76394">
        <ele>86</ele>
        <time>2016-05-05T14:35:09.000Z</time>
      </trkpt>
      <trkpt lat="43.20005" lon="5.76338">
        <ele>85.400001525879</ele>
        <time>2016-05-05T14:35:14.000Z</time>
      </trkpt>
      <trkpt lat="43.20006" lon="5.76328">
        <ele>85.199996948242</ele>
        <time>2016-05-05T14:35:15.000Z</time>
      </trkpt>
      <trkpt lat="43.20007" lon="5.76309">
        <ele>85</ele>
        <time>2016-05-05T14:35:17.000Z</time>
      </trkpt>
      <trkpt lat="43.20004" lon="5.76302">
        <ele>84.800003051758</ele>
        <time>2016-05-05T14:35:18.000Z</time>
      </trkpt>
      <trkpt lat="43.19993" lon="5.76298">
        <ele>84.599998474121</ele>
        <time>2016-05-05T14:35:20.000Z</time>
      </trkpt>
      <trkpt lat="43.19987" lon="5.76299">
        <ele>84.599998474121</ele>
        <time>2016-05-05T14:35:21.000Z</time>
      </trkpt>
      <trkpt lat="43.19963" lon="5.763">
        <ele>84.400001525879</ele>
        <time>2016-05-05T14:35:25.000Z</time>
      </trkpt>
      <trkpt lat="43.19951" lon="5.76302">
        <ele>84.199996948242</ele>
        <time>2016-05-05T14:35:27.000Z</time>
      </trkpt>
      <trkpt lat="43.19913" lon="5.76316">
        <ele>84</ele>
        <time>2016-05-05T14:35:34.000Z</time>
      </trkpt>
      <trkpt lat="43.19865" lon="5.76336">
        <ele>83.800003051758</ele>
        <time>2016-05-05T14:35:43.000Z</time>
      </trkpt>
      <trkpt lat="43.19826" lon="5.76351">
        <ele>82.199996948242</ele>
        <time>2016-05-05T14:35:50.000Z</time>
      </trkpt>
      <trkpt lat="43.19808" lon="5.76356">
        <ele>82</ele>
        <time>2016-05-05T14:35:53.000Z</time>
      </trkpt>
      <trkpt lat="43.19803" lon="5.76357">
        <ele>82.400001525879</ele>
        <time>2016-05-05T14:35:54.000Z</time>
      </trkpt>
      <trkpt lat="43.19791" lon="5.76356">
        <ele>83.199996948242</ele>
        <time>2016-05-05T14:35:56.000Z</time>
      </trkpt>
      <trkpt lat="43.19779" lon="5.76354">
        <ele>84</ele>
        <time>2016-05-05T14:35:58.000Z</time>
      </trkpt>
      <trkpt lat="43.19754" lon="5.76345">
        <ele>85.599998474121</ele>
        <time>2016-05-05T14:36:02.000Z</time>
      </trkpt>
      <trkpt lat="43.19736" lon="5.76335">
        <ele>87.599998474121</ele>
        <time>2016-05-05T14:36:05.000Z</time>
      </trkpt>
      <trkpt lat="43.19731" lon="5.7633">
        <ele>88</ele>
        <time>2016-05-05T14:36:06.000Z</time>
      </trkpt>
      <trkpt lat="43.19725" lon="5.76325">
        <ele>88.400001525879</ele>
        <time>2016-05-05T14:36:07.000Z</time>
      </trkpt>
      <trkpt lat="43.19709" lon="5.76306">
        <ele>89.199996948242</ele>
        <time>2016-05-05T14:36:10.000Z</time>
      </trkpt>
      <trkpt lat="43.19694" lon="5.76286">
        <ele>88.800003051758</ele>
        <time>2016-05-05T14:36:13.000Z</time>
      </trkpt>
      <trkpt lat="43.19679" lon="5.76267">
        <ele>88.400001525879</ele>
        <time>2016-05-05T14:36:16.000Z</time>
      </trkpt>
      <trkpt lat="43.19663" lon="5.76254">
        <ele>87.599998474121</ele>
        <time>2016-05-05T14:36:19.000Z</time>
      </trkpt>
      <trkpt lat="43.1963" lon="5.76241">
        <ele>87.800003051758</ele>
        <time>2016-05-05T14:36:25.000Z</time>
      </trkpt>
      <trkpt lat="43.19625" lon="5.76241">
        <ele>88</ele>
        <time>2016-05-05T14:36:26.000Z</time>
      </trkpt>
      <trkpt lat="43.19614" lon="5.76242">
        <ele>89</ele>
        <time>2016-05-05T14:36:28.000Z</time>
      </trkpt>
      <trkpt lat="43.19603" lon="5.76245">
        <ele>90.599998474121</ele>
        <time>2016-05-05T14:36:30.000Z</time>
      </trkpt>
      <trkpt lat="43.19583" lon="5.76253">
        <ele>92</ele>
        <time>2016-05-05T14:36:34.000Z</time>
      </trkpt>
      <trkpt lat="43.19573" lon="5.76257">
        <ele>92.199996948242</ele>
        <time>2016-05-05T14:36:36.000Z</time>
      </trkpt>
      <trkpt lat="43.19563" lon="5.76262">
        <ele>92.400001525879</ele>
        <time>2016-05-05T14:36:38.000Z</time>
      </trkpt>
      <trkpt lat="43.19546" lon="5.76269">
        <ele>92</ele>
        <time>2016-05-05T14:36:41.000Z</time>
      </trkpt>
      <trkpt lat="43.1953" lon="5.76275">
        <ele>90.800003051758</ele>
        <time>2016-05-05T14:36:44.000Z</time>
      </trkpt>
      <trkpt lat="43.1952" lon="5.76279">
        <ele>90</ele>
        <time>2016-05-05T14:36:46.000Z</time>
      </trkpt>
      <trkpt lat="43.19515" lon="5.76281">
        <ele>89.599998474121</ele>
        <time>2016-05-05T14:36:47.000Z</time>
      </trkpt>
      <trkpt lat="43.19468" lon="5.76298">
        <ele>84.800003051758</ele>
        <time>2016-05-05T14:36:55.000Z</time>
      </trkpt>
      <trkpt lat="43.19436" lon="5.76311">
        <ele>80.400001525879</ele>
        <time>2016-05-05T14:37:00.000Z</time>
      </trkpt>
      <trkpt lat="43.19422" lon="5.76317">
        <ele>79</ele>
        <time>2016-05-05T14:37:02.000Z</time>
      </trkpt>
      <trkpt lat="43.19415" lon="5.7632">
        <ele>78.599998474121</ele>
        <time>2016-05-05T14:37:03.000Z</time>
      </trkpt>
      <trkpt lat="43.19408" lon="5.76323">
        <ele>78.199996948242</ele>
        <time>2016-05-05T14:37:04.000Z</time>
      </trkpt>
      <trkpt lat="43.19387" lon="5.76334">
        <ele>77</ele>
        <time>2016-05-05T14:37:07.000Z</time>
      </trkpt>
      <trkpt lat="43.19374" lon="5.76342">
        <ele>76.400001525879</ele>
        <time>2016-05-05T14:37:09.000Z</time>
      </trkpt>
      <trkpt lat="43.19362" lon="5.76351">
        <ele>76</ele>
        <time>2016-05-05T14:37:11.000Z</time>
      </trkpt>
      <trkpt lat="43.19351" lon="5.76361">
        <ele>75.800003051758</ele>
        <time>2016-05-05T14:37:13.000Z</time>
      </trkpt>
      <trkpt lat="43.19338" lon="5.76375">
        <ele>76.199996948242</ele>
        <time>2016-05-05T14:37:16.000Z</time>
      </trkpt>
      <trkpt lat="43.19334" lon="5.76381">
        <ele>76.400001525879</ele>
        <time>2016-05-05T14:37:17.000Z</time>
      </trkpt>
      <trkpt lat="43.19322" lon="5.76406">
        <ele>77.400001525879</ele>
        <time>2016-05-05T14:37:21.000Z</time>
      </trkpt>
      <trkpt lat="43.19313" lon="5.76424">
        <ele>78</ele>
        <time>2016-05-05T14:37:24.000Z</time>
      </trkpt>
      <trkpt lat="43.1931" lon="5.76429">
        <ele>78.199996948242</ele>
        <time>2016-05-05T14:37:25.000Z</time>
      </trkpt>
      <trkpt lat="43.19301" lon="5.76435">
        <ele>78</ele>
        <time>2016-05-05T14:37:27.000Z</time>
      </trkpt>
      <trkpt lat="43.19285" lon="5.76428">
        <ele>76.599998474121</ele>
        <time>2016-05-05T14:37:30.000Z</time>
      </trkpt>
      <trkpt lat="43.1928" lon="5.76424">
        <ele>76.199996948242</ele>
        <time>2016-05-05T14:37:31.000Z</time>
      </trkpt>
      <trkpt lat="43.19265" lon="5.764">
        <ele>74.599998474121</ele>
        <time>2016-05-05T14:37:35.000Z</time>
      </trkpt>
      <trkpt lat="43.1926" lon="5.76369">
        <ele>73.199996948242</ele>
        <time>2016-05-05T14:37:39.000Z</time>
      </trkpt>
      <trkpt lat="43.1925" lon="5.76296">
        <ele>71.400001525879</ele>
        <time>2016-05-05T14:37:47.000Z</time>
      </trkpt>
      <trkpt lat="43.19245" lon="5.76266">
        <ele>71.800003051758</ele>
        <time>2016-05-05T14:37:50.000Z</time>
      </trkpt>
      <trkpt lat="43.19244" lon="5.76244">
        <ele>71.599998474121</ele>
        <time>2016-05-05T14:37:52.000Z</time>
      </trkpt>
      <trkpt lat="43.19248" lon="5.76221">
        <ele>71</ele>
        <time>2016-05-05T14:37:54.000Z</time>
      </trkpt>
      <trkpt lat="43.19251" lon="5.76209">
        <ele>72.199996948242</ele>
        <time>2016-05-05T14:37:55.000Z</time>
      </trkpt>
      <trkpt lat="43.19254" lon="5.76198">
        <ele>72.199996948242</ele>
        <time>2016-05-05T14:37:56.000Z</time>
      </trkpt>
      <trkpt lat="43.19258" lon="5.76179">
        <ele>72.599998474121</ele>
        <time>2016-05-05T14:37:58.000Z</time>
      </trkpt>
      <trkpt lat="43.19262" lon="5.76162">
        <ele>72.800003051758</ele>
        <time>2016-05-05T14:38:00.000Z</time>
      </trkpt>
      <trkpt lat="43.19262" lon="5.76146">
        <ele>73.599998474121</ele>
        <time>2016-05-05T14:38:02.000Z</time>
      </trkpt>
      <trkpt lat="43.19261" lon="5.76122">
        <ele>75.199996948242</ele>
        <time>2016-05-05T14:38:05.000Z</time>
      </trkpt>
      <trkpt lat="43.19258" lon="5.76093">
        <ele>77.599998474121</ele>
        <time>2016-05-05T14:38:09.000Z</time>
      </trkpt>
      <trkpt lat="43.19255" lon="5.76064">
        <ele>80.199996948242</ele>
        <time>2016-05-05T14:38:13.000Z</time>
      </trkpt>
      <trkpt lat="43.19254" lon="5.76057">
        <ele>80.800003051758</ele>
        <time>2016-05-05T14:38:14.000Z</time>
      </trkpt>
      <trkpt lat="43.19252" lon="5.76035">
        <ele>81.800003051758</ele>
        <time>2016-05-05T14:38:17.000Z</time>
      </trkpt>
      <trkpt lat="43.1925" lon="5.76013">
        <ele>82.800003051758</ele>
        <time>2016-05-05T14:38:20.000Z</time>
      </trkpt>
      <trkpt lat="43.1925" lon="5.75992">
        <ele>83.599998474121</ele>
        <time>2016-05-05T14:38:23.000Z</time>
      </trkpt>
      <trkpt lat="43.19249" lon="5.75985">
        <ele>84</ele>
        <time>2016-05-05T14:38:24.000Z</time>
      </trkpt>
      <trkpt lat="43.1925" lon="5.75955">
        <ele>84.599998474121</ele>
        <time>2016-05-05T14:38:28.000Z</time>
      </trkpt>
      <trkpt lat="43.19252" lon="5.75925">
        <ele>86</ele>
        <time>2016-05-05T14:38:32.000Z</time>
      </trkpt>
      <trkpt lat="43.19253" lon="5.75917">
        <ele>86.400001525879</ele>
        <time>2016-05-05T14:38:33.000Z</time>
      </trkpt>
      <trkpt lat="43.19255" lon="5.75886">
        <ele>87.599998474121</ele>
        <time>2016-05-05T14:38:37.000Z</time>
      </trkpt>
      <trkpt lat="43.19257" lon="5.75848">
        <ele>88.800003051758</ele>
        <time>2016-05-05T14:38:42.000Z</time>
      </trkpt>
      <trkpt lat="43.19259" lon="5.7581">
        <ele>90.800003051758</ele>
        <time>2016-05-05T14:38:47.000Z</time>
      </trkpt>
      <trkpt lat="43.1926" lon="5.75772">
        <ele>92.199996948242</ele>
        <time>2016-05-05T14:38:52.000Z</time>
      </trkpt>
      <trkpt lat="43.19261" lon="5.75764">
        <ele>92.400001525879</ele>
        <time>2016-05-05T14:38:53.000Z</time>
      </trkpt>
      <trkpt lat="43.19262" lon="5.75749">
        <ele>93</ele>
        <time>2016-05-05T14:38:55.000Z</time>
      </trkpt>
      <trkpt lat="43.19261" lon="5.75719">
        <ele>94</ele>
        <time>2016-05-05T14:38:59.000Z</time>
      </trkpt>
      <trkpt lat="43.1926" lon="5.75704">
        <ele>94</ele>
        <time>2016-05-05T14:39:01.000Z</time>
      </trkpt>
      <trkpt lat="43.19259" lon="5.75689">
        <ele>94</ele>
        <time>2016-05-05T14:39:03.000Z</time>
      </trkpt>
      <trkpt lat="43.19258" lon="5.75659">
        <ele>94</ele>
        <time>2016-05-05T14:39:08.000Z</time>
      </trkpt>
      <trkpt lat="43.19256" lon="5.75637">
        <ele>94</ele>
        <time>2016-05-05T14:39:11.000Z</time>
      </trkpt>
      <trkpt lat="43.19255" lon="5.75615">
        <ele>94.400001525879</ele>
        <time>2016-05-05T14:39:14.000Z</time>
      </trkpt>
      <trkpt lat="43.19255" lon="5.75593">
        <ele>95.199996948242</ele>
        <time>2016-05-05T14:39:17.000Z</time>
      </trkpt>
      <trkpt lat="43.19257" lon="5.75587">
        <ele>95.599998474121</ele>
        <time>2016-05-05T14:39:18.000Z</time>
      </trkpt>
      <trkpt lat="43.19266" lon="5.75577">
        <ele>96.400001525879</ele>
        <time>2016-05-05T14:39:20.000Z</time>
      </trkpt>
      <trkpt lat="43.19271" lon="5.75574">
        <ele>96.800003051758</ele>
        <time>2016-05-05T14:39:21.000Z</time>
      </trkpt>
      <trkpt lat="43.19288" lon="5.75577">
        <ele>97.599998474121</ele>
        <time>2016-05-05T14:39:24.000Z</time>
      </trkpt>
      <trkpt lat="43.19293" lon="5.75581">
        <ele>97.800003051758</ele>
        <time>2016-05-05T14:39:25.000Z</time>
      </trkpt>
      <trkpt lat="43.19302" lon="5.75591">
        <ele>97.800003051758</ele>
        <time>2016-05-05T14:39:27.000Z</time>
      </trkpt>
      <trkpt lat="43.19306" lon="5.75596">
        <ele>97.800003051758</ele>
        <time>2016-05-05T14:39:28.000Z</time>
      </trkpt>
      <trkpt lat="43.1931" lon="5.75602">
        <ele>97.599998474121</ele>
        <time>2016-05-05T14:39:29.000Z</time>
      </trkpt>
      <trkpt lat="43.19318" lon="5.75613">
        <ele>97.599998474121</ele>
        <time>2016-05-05T14:39:31.000Z</time>
      </trkpt>
      <trkpt lat="43.19328" lon="5.7563">
        <ele>97.400001525879</ele>
        <time>2016-05-05T14:39:34.000Z</time>
      </trkpt>
      <trkpt lat="43.19336" lon="5.75641">
        <ele>97.400001525879</ele>
        <time>2016-05-05T14:39:36.000Z</time>
      </trkpt>
      <trkpt lat="43.19351" lon="5.75662">
        <ele>98.400001525879</ele>
        <time>2016-05-05T14:39:40.000Z</time>
      </trkpt>
      <trkpt lat="43.19362" lon="5.75679">
        <ele>100</ele>
        <time>2016-05-05T14:39:43.000Z</time>
      </trkpt>
      <trkpt lat="43.1937" lon="5.75697">
        <ele>101</ele>
        <time>2016-05-05T14:39:46.000Z</time>
      </trkpt>
      <trkpt lat="43.19378" lon="5.75715">
        <ele>102</ele>
        <time>2016-05-05T14:39:49.000Z</time>
      </trkpt>
      <trkpt lat="43.1938" lon="5.75721">
        <ele>102.19999694824</ele>
        <time>2016-05-05T14:39:50.000Z</time>
      </trkpt>
      <trkpt lat="43.19386" lon="5.75731">
        <ele>103.19999694824</ele>
        <time>2016-05-05T14:39:52.000Z</time>
      </trkpt>
      <trkpt lat="43.1939" lon="5.75736">
        <ele>104</ele>
        <time>2016-05-05T14:39:53.000Z</time>
      </trkpt>
      <trkpt lat="43.19393" lon="5.7574">
        <ele>104.59999847412</ele>
        <time>2016-05-05T14:39:54.000Z</time>
      </trkpt>
      <trkpt lat="43.19402" lon="5.75747">
        <ele>106.40000152588</ele>
        <time>2016-05-05T14:39:56.000Z</time>
      </trkpt>
      <trkpt lat="43.19411" lon="5.75752">
        <ele>108.19999694824</ele>
        <time>2016-05-05T14:39:58.000Z</time>
      </trkpt>
      <trkpt lat="43.19416" lon="5.75755">
        <ele>109.19999694824</ele>
        <time>2016-05-05T14:39:59.000Z</time>
      </trkpt>
      <trkpt lat="43.19421" lon="5.75759">
        <ele>110</ele>
        <time>2016-05-05T14:40:00.000Z</time>
      </trkpt>
      <trkpt lat="43.19428" lon="5.75771">
        <ele>111.40000152588</ele>
        <time>2016-05-05T14:40:02.000Z</time>
      </trkpt>
      <trkpt lat="43.19431" lon="5.75777">
        <ele>111.59999847412</ele>
        <time>2016-05-05T14:40:03.000Z</time>
      </trkpt>
      <trkpt lat="43.19432" lon="5.75792">
        <ele>111.59999847412</ele>
        <time>2016-05-05T14:40:05.000Z</time>
      </trkpt>
      <trkpt lat="43.19432" lon="5.75799">
        <ele>111.59999847412</ele>
        <time>2016-05-05T14:40:06.000Z</time>
      </trkpt>
      <trkpt lat="43.19432" lon="5.7582">
        <ele>110.40000152588</ele>
        <time>2016-05-05T14:40:09.000Z</time>
      </trkpt>
      <trkpt lat="43.19432" lon="5.75841">
        <ele>108.40000152588</ele>
        <time>2016-05-05T14:40:12.000Z</time>
      </trkpt>
      <trkpt lat="43.19432" lon="5.75848">
        <ele>108</ele>
        <time>2016-05-05T14:40:13.000Z</time>
      </trkpt>
      <trkpt lat="43.19433" lon="5.75855">
        <ele>107.59999847412</ele>
        <time>2016-05-05T14:40:14.000Z</time>
      </trkpt>
      <trkpt lat="43.19442" lon="5.75871">
        <ele>107.80000305176</ele>
        <time>2016-05-05T14:40:17.000Z</time>
      </trkpt>
      <trkpt lat="43.1945" lon="5.7588">
        <ele>108.40000152588</ele>
        <time>2016-05-05T14:40:19.000Z</time>
      </trkpt>
      <trkpt lat="43.19462" lon="5.75894">
        <ele>110</ele>
        <time>2016-05-05T14:40:22.000Z</time>
      </trkpt>
      <trkpt lat="43.19469" lon="5.75904">
        <ele>111.19999694824</ele>
        <time>2016-05-05T14:40:24.000Z</time>
      </trkpt>
      <trkpt lat="43.19474" lon="5.75908">
        <ele>112</ele>
        <time>2016-05-05T14:40:25.000Z</time>
      </trkpt>
      <trkpt lat="43.19488" lon="5.75909">
        <ele>114.40000152588</ele>
        <time>2016-05-05T14:40:28.000Z</time>
      </trkpt>
      <trkpt lat="43.19492" lon="5.75905">
        <ele>115.40000152588</ele>
        <time>2016-05-05T14:40:29.000Z</time>
      </trkpt>
      <trkpt lat="43.19499" lon="5.75896">
        <ele>116.59999847412</ele>
        <time>2016-05-05T14:40:31.000Z</time>
      </trkpt>
      <trkpt lat="43.19505" lon="5.75885">
        <ele>118</ele>
        <time>2016-05-05T14:40:33.000Z</time>
      </trkpt>
      <trkpt lat="43.19508" lon="5.7588">
        <ele>118.80000305176</ele>
        <time>2016-05-05T14:40:34.000Z</time>
      </trkpt>
      <trkpt lat="43.19516" lon="5.75864">
        <ele>120.80000305176</ele>
        <time>2016-05-05T14:40:37.000Z</time>
      </trkpt>
      <trkpt lat="43.19519" lon="5.75859">
        <ele>121.59999847412</ele>
        <time>2016-05-05T14:40:38.000Z</time>
      </trkpt>
      <trkpt lat="43.19522" lon="5.75853">
        <ele>122.19999694824</ele>
        <time>2016-05-05T14:40:39.000Z</time>
      </trkpt>
      <trkpt lat="43.19528" lon="5.75844">
        <ele>123.40000152588</ele>
        <time>2016-05-05T14:40:41.000Z</time>
      </trkpt>
      <trkpt lat="43.19531" lon="5.75841">
        <ele>123.80000305176</ele>
        <time>2016-05-05T14:40:42.000Z</time>
      </trkpt>
      <trkpt lat="43.19534" lon="5.75839">
        <ele>124.40000152588</ele>
        <time>2016-05-05T14:40:43.000Z</time>
      </trkpt>
      <trkpt lat="43.1954" lon="5.75835">
        <ele>125.19999694824</ele>
        <time>2016-05-05T14:40:45.000Z</time>
      </trkpt>
      <trkpt lat="43.19541" lon="5.7583">
        <ele>125.59999847412</ele>
        <time>2016-05-05T14:40:46.000Z</time>
      </trkpt>
      <trkpt lat="43.19542" lon="5.75824">
        <ele>126</ele>
        <time>2016-05-05T14:40:47.000Z</time>
      </trkpt>
      <trkpt lat="43.19539" lon="5.75803">
        <ele>127</ele>
        <time>2016-05-05T14:40:50.000Z</time>
      </trkpt>
      <trkpt lat="43.1954" lon="5.75791">
        <ele>127.19999694824</ele>
        <time>2016-05-05T14:40:52.000Z</time>
      </trkpt>
      <trkpt lat="43.19542" lon="5.75786">
        <ele>127.59999847412</ele>
        <time>2016-05-05T14:40:53.000Z</time>
      </trkpt>
      <trkpt lat="43.19549" lon="5.75778">
        <ele>128.39999389648</ele>
        <time>2016-05-05T14:40:55.000Z</time>
      </trkpt>
      <trkpt lat="43.19553" lon="5.75774">
        <ele>128.80000305176</ele>
        <time>2016-05-05T14:40:56.000Z</time>
      </trkpt>
      <trkpt lat="43.19559" lon="5.75766">
        <ele>129.80000305176</ele>
        <time>2016-05-05T14:40:58.000Z</time>
      </trkpt>
      <trkpt lat="43.19565" lon="5.75758">
        <ele>131.60000610352</ele>
        <time>2016-05-05T14:41:00.000Z</time>
      </trkpt>
      <trkpt lat="43.19568" lon="5.75755">
        <ele>132.39999389648</ele>
        <time>2016-05-05T14:41:01.000Z</time>
      </trkpt>
      <trkpt lat="43.19571" lon="5.75753">
        <ele>133.19999694824</ele>
        <time>2016-05-05T14:41:02.000Z</time>
      </trkpt>
      <trkpt lat="43.19578" lon="5.75747">
        <ele>135.19999694824</ele>
        <time>2016-05-05T14:41:05.000Z</time>
      </trkpt>
      <trkpt lat="43.19581" lon="5.75746">
        <ele>135.80000305176</ele>
        <time>2016-05-05T14:41:07.000Z</time>
      </trkpt>
    </trkseg>
  </trk>
</gpx>